[[{"header":{"parameterUnit":"m.s-1","parameterCategory":1,"la1":30.6,"la2":28.766,"lo1":-90.7593,"lo2":-88.6598,"dy":0.0162,"dx":0.0183,"nx":116,"ny":114,"refTime":"2023-09-27T00:00:00:Z","depth":0,"parameterNumber":2,"parameterNumberName":"U-component_of_WINDS"},"data":[0.0,0.0,0.0,0.0,0.0,0.0,0.0,0.0,0.0,0.0,0.0,0.0,0.0,0.0,0.0,0.0,0.0,0.0,0.0,0.0,0.0,0.0,0.0,0.0,0.0,0.0,0.0,0.0,0.0,0.0,0.0,0.0,0.0,0.0,0.0,0.0,0.0,0.0,0.0,0.0,0.0,0.0,0.0,0.0,0.0,0.0,0.0,0.0,0.0,0.0,0.0,0.0,0.0,0.0,0.0,0.0,0.0,0.0,0.0,0.0,0.0,0.0,0.0,0.0,0.0,0.0,0.0,0.0,0.0,0.0,0.0,0.0,0.0,0.0,0.0,0.0,0.0,0.0,0.0,0.0,0.0,0.0,0.0,0.0,0.0,0.0,0.0,0.0,0.0,0.0,0.0,0.0,0.0,0.0,0.0,0.0,0.0,0.0,0.0,0.0,0.0,0.0,0.0,0.0,0.0,0.0,0.0,0.0,0.0,0.0,0.0,0.0,0.0,0.0,0.0,0.0,0.0,0.0,0.0,0.0,0.0,0.0,0.0,0.0,0.0,0.0,0.0,0.0,0.0,0.0,0.0,0.0,0.0,0.0,0.0,0.0,0.0,0.0,0.0,0.0,0.0,0.0,0.0,0.0,0.0,0.0,0.0,0.0,0.0,0.0,0.0,0.0,0.0,0.0,0.0,0.0,0.0,0.0,0.0,0.0,0.0,0.0,0.0,0.0,0.0,0.0,0.0,0.0,0.0,0.0,0.0,0.0,0.0,0.0,0.0,0.0,0.0,0.0,0.0,0.0,0.0,0.0,0.0,0.0,0.0,0.0,0.0,0.0,0.0,0.0,0.0,0.0,0.0,0.0,0.0,0.0,0.0,0.0,0.0,0.0,0.0,0.0,0.0,0.0,0.0,0.0,0.0,0.0,0.0,0.0,0.0,0.0,0.0,0.0,0.0,0.0,0.0,0.0,0.0,0.0,0.0,0.0,0.0,0.0,0.0,0.0,0.0,0.0,0.0,0.0,0.0,0.0,0.0,0.0,0.0,0.0,0.0,0.0,0.0,0.0,0.0,0.0,0.0,0.0,0.0,0.0,0.0,0.0,0.0,0.0,0.0,0.0,0.0,0.0,0.0,0.0,0.0,0.0,0.0,0.0,0.0,0.0,0.0,0.0,0.0,0.0,0.0,0.0,0.0,0.0,0.0,0.0,0.0,0.0,0.0,0.0,0.0,0.0,0.0,0.0,0.0,0.0,0.0,0.0,0.0,0.0,0.0,0.0,0.0,0.0,0.0,0.0,0.0,0.0,0.0,0.0,0.0,0.0,0.0,0.0,0.0,0.0,0.0,0.0,0.0,0.0,0.0,0.0,0.0,0.0,0.0,0.0,0.0,0.0,0.0,0.0,0.0,0.0,0.0,0.0,0.0,0.0,0.0,0.0,0.0,0.0,0.0,0.0,0.0,0.0,0.0,0.0,0.0,0.0,0.0,0.0,0.0,0.0,0.0,0.0,0.0,0.0,0.0,0.0,0.0,0.0,0.0,0.0,0.0,0.0,0.0,0.0,0.0,0.0,0.0,0.0,0.0,0.0,0.0,0.0,0.0,0.0,0.0,0.0,0.0,0.0,0.0,0.0,0.0,0.0,0.0,0.0,0.0,0.0,0.0,0.0,0.0,0.0,0.0,0.0,0.0,0.0,0.0,0.0,0.0,0.0,0.0,0.0,0.0,0.0,0.0,0.0,0.0,0.0,0.0,0.0,0.0,0.0,0.0,0.0,0.0,0.0,0.0,0.0,0.0,0.0,0.0,0.0,0.0,0.0,0.0,0.0,0.0,0.0,0.0,0.0,0.0,0.0,0.0,0.0,0.0,0.0,0.0,0.0,0.0,0.0,0.0,0.0,0.0,0.0,0.0,0.0,0.0,0.0,0.0,0.0,0.0,0.0,0.0,0.0,0.0,0.0,0.0,0.0,0.0,0.0,0.0,0.0,0.0,0.0,0.0,0.0,0.0,0.0,0.0,0.0,0.0,0.0,0.0,0.0,0.0,0.0,0.0,0.0,0.0,0.0,0.0,0.0,0.0,0.0,0.0,0.0,0.0,0.0,0.0,0.0,0.0,0.0,0.0,0.0,0.0,0.0,0.0,0.0,0.0,0.0,0.0,0.0,0.0,0.0,0.0,0.0,0.0,0.0,0.0,0.0,0.0,0.0,0.0,0.0,0.0,0.0,0.0,0.0,0.0,0.0,0.0,0.0,0.0,0.0,0.0,0.0,0.0,0.0,0.0,0.0,0.0,0.0,0.0,0.0,0.0,0.0,0.0,0.0,0.0,0.0,0.0,0.0,0.0,0.0,0.0,0.0,0.0,0.0,0.0,0.0,0.0,0.0,0.0,0.0,0.0,0.0,0.0,0.0,0.0,0.0,0.0,0.0,0.0,0.0,0.0,0.0,0.0,0.0,0.0,0.0,0.0,0.0,0.0,0.0,0.0,0.0,0.0,0.0,0.0,0.0,0.0,0.0,0.0,0.0,0.0,0.0,0.0,0.0,0.0,0.0,0.0,0.0,0.0,0.0,0.0,0.0,0.0,0.0,0.0,0.0,0.0,0.0,0.0,0.0,0.0,0.0,0.0,0.0,0.0,0.0,0.0,0.0,0.0,0.0,0.0,0.0,0.0,0.0,0.0,0.0,0.0,0.0,0.0,0.0,0.0,0.0,0.0,0.0,0.0,0.0,0.0,0.0,0.0,0.0,0.0,0.0,0.0,0.0,0.0,0.0,0.0,0.0,0.0,0.0,0.0,0.0,0.0,0.0,0.0,0.0,0.0,0.0,0.0,0.0,0.0,0.0,0.0,0.0,0.0,0.0,0.0,0.0,0.0,0.0,0.0,0.0,0.0,0.0,0.0,0.0,0.0,0.0,0.0,0.0,0.0,0.0,0.0,0.0,0.0,0.0,0.0,0.0,0.0,0.0,0.0,0.0,0.0,0.0,0.0,0.0,0.0,0.0,0.0,0.0,0.0,0.0,0.0,0.0,0.0,0.0,0.0,0.0,0.0,0.0,0.0,0.0,0.0,0.0,0.0,0.0,0.0,0.0,0.0,0.0,0.0,0.0,0.0,0.0,0.0,0.0,0.0,0.0,0.0,0.0,0.0,0.0,0.0,0.0,0.0,0.0,0.0,0.0,0.0,0.0,0.0,0.0,0.0,0.0,0.0,0.0,0.0,0.0,0.0,0.0,0.0,0.0,0.0,0.0,0.0,0.0,0.0,0.0,0.0,0.0,0.0,0.0,0.0,0.0,0.0,0.0,0.0,0.0,0.0,0.0,0.0,0.0,0.0,0.0,0.0,0.0,0.0,0.0,0.0,0.0,0.0,0.0,0.0,0.0,0.0,0.0,0.0,0.0,0.0,0.0,0.0,0.0,0.0,0.0,0.0,0.0,0.0,0.0,0.0,0.0,0.0,0.0,0.0,0.0,0.0,0.0,0.0,0.0,0.0,0.0,0.0,0.0,0.0,0.0,0.0,0.0,0.0,0.0,0.0,0.0,0.0,0.0,0.0,0.0,0.0,0.0,0.0,0.0,0.0,0.0,0.0,0.0,0.0,0.0,0.0,0.0,0.0,0.0,0.0,0.0,0.0,0.0,0.0,0.0,0.0,0.0,0.0,0.0,0.0,0.0,0.0,0.0,0.0,0.0,0.0,0.0,0.0,0.0,0.0,0.0,0.0,0.0,0.0,0.0,0.0,0.0,0.0,0.0,0.0,0.0,0.0,0.0,0.0,0.0,0.0,0.0,0.0,0.0,0.0,0.0,0.0,0.0,0.0,0.0,0.0,0.0,0.0,0.0,0.0,0.0,0.0,0.0,0.0,0.0,0.0,0.0,0.0,0.0,0.0,0.0,0.0,0.0,0.0,0.0,0.0,0.0,0.0,0.0,0.0,0.0,0.0,0.0,0.0,0.0,0.0,0.0,0.0,0.0,0.0,0.0,0.0,0.0,0.0,0.0,0.0,0.0,0.0,0.0,0.0,0.0,0.0,0.0,0.0,0.0,0.0,0.0,0.0,0.0,0.0,0.0,0.0,0.0,0.0,0.0,0.0,0.0,0.0,0.0,0.0,0.0,0.0,0.0,0.0,0.0,0.0,0.0,0.0,0.0,0.0,0.0,0.0,0.0,0.0,0.0,0.0,0.0,0.0,0.0,0.0,0.0,0.0,0.0,0.0,0.0,0.0,0.0,0.0,0.0,0.0,0.0,0.0,0.0,0.0,0.0,0.0,0.0,0.0,0.0,0.0,0.0,0.0,0.0,0.0,0.0,0.0,0.0,0.0,0.0,0.0,0.0,0.0,0.0,0.0,0.0,0.0,0.0,0.0,0.0,0.0,0.0,0.0,0.0,0.0,0.0,0.0,0.0,0.0,0.0,0.0,0.0,0.0,0.0,0.0,0.0,0.0,0.0,0.0,0.0,0.0,0.0,0.0,0.0,0.0,0.0,0.0,0.0,0.0,0.0,0.0,0.0,0.0,0.0,0.0,0.0,0.0,0.0,0.0,0.0,0.0,0.0,0.0,0.0,0.0,0.0,0.0,0.0,0.0,0.0,0.0,0.0,0.0,0.0,0.0,0.0,0.0,0.0,0.0,0.0,0.0,0.0,0.0,0.0,0.0,0.0,0.0,0.0,0.0,0.0,0.0,0.0,0.0,0.0,0.0,0.0,0.0,0.0,0.0,0.0,0.0,0.0,0.0,0.0,0.0,0.0,0.0,0.0,0.0,0.0,0.0,0.0,0.0,0.0,0.0,0.0,0.0,0.0,0.0,0.0,0.0,0.0,0.0,0.0,0.0,0.0,0.0,0.0,0.0,0.0,0.0,0.0,0.0,0.0,0.0,0.0,0.0,0.0,0.0,0.0,0.0,0.0,0.0,0.0,0.0,0.0,0.0,0.0,0.0,0.0,0.0,0.0,0.0,0.0,0.0,0.0,0.0,0.0,0.0,0.0,0.0,0.0,0.0,0.0,0.0,0.0,0.0,0.0,0.0,0.0,0.0,0.0,0.0,0.0,0.0,0.0,0.0,0.0,0.0,0.0,0.0,0.0,0.0,0.0,0.0,0.0,0.0,0.0,0.0,0.0,0.0,0.0,0.0,0.0,0.0,0.0,0.0,0.0,0.0,0.0,0.0,0.0,0.0,0.0,0.0,0.0,0.0,0.0,0.0,0.0,0.0,0.0,0.0,0.0,0.0,0.0,0.0,0.0,0.0,0.0,0.0,0.0,0.0,0.0,0.0,0.0,0.0,0.0,0.0,0.0,0.0,0.0,0.0,0.0,0.0,0.0,0.0,0.0,0.0,0.0,0.0,0.0,0.0,0.0,0.0,0.0,0.0,0.0,0.0,0.0,0.0,0.0,0.0,0.0,0.0,0.0,0.0,0.0,0.0,0.0,0.0,0.0,0.0,0.0,0.0,0.0,0.0,0.0,0.0,0.0,0.0,0.0,0.0,0.0,0.0,0.0,0.0,0.0,0.0,0.0,0.0,0.0,0.0,0.0,0.0,0.0,0.0,0.0,0.0,0.0,0.0,0.0,0.0,0.0,0.0,0.0,0.0,0.0,0.0,0.0,0.0,0.0,0.0,0.0,0.0,0.0,0.0,0.0,0.0,0.0,0.0,0.0,0.0,0.0,0.0,0.0,0.0,0.0,0.0,0.0,0.0,0.0,0.0,0.0,0.0,0.0,0.0,0.0,0.0,0.0,0.0,0.0,0.0,0.0,0.0,0.0,0.0,0.0,0.0,0.0,0.0,0.0,0.0,0.0,0.0,0.0,0.0,0.0,0.0,0.0,0.0,0.0,0.0,0.0,0.0,0.0,0.0,0.0,0.0,0.0,0.0,0.0,0.0,0.0,0.0,0.0,0.0,0.0,0.0,0.0,0.0,0.0,0.0,0.0,0.0,0.0,0.0,0.0,0.0,0.0,0.0,0.0,0.0,0.0,0.0,0.0,0.0,0.0,0.0,0.0,0.0,0.0,0.0,0.0,0.0,0.0,0.0,0.0,0.0,0.0,0.0,0.0,0.0,0.0,0.0,0.0,0.0,0.0,0.0,0.0,0.0,0.0,-0.4823,0.0,0.0,0.0,0.0,0.0,0.0,0.0,0.0,0.0,0.0,0.0,0.0,0.0,0.0,0.0,0.0,0.0,0.0,0.0,0.0,0.0,0.0,0.0,0.0,0.0,0.0,0.0,0.0,0.0,0.0,0.0,0.0,0.0,0.0,0.0,0.0,0.0,0.0,0.0,0.8712,0.8866,1.0154,1.2467,1.5213,1.82,0.0,0.0,0.0,0.0,0.0,0.0,0.0,0.0,0.0,0.0,0.0,0.0,0.0,0.0,0.0,0.0,0.0,0.0,0.0,0.0,0.0,0.0,0.0,0.0,0.0,0.0,0.0,0.0,0.0,0.0,0.0,0.0,0.0,0.0,0.0,0.0,0.0,0.0,0.0,0.0,0.0,0.0,0.0,0.0,0.0,0.0,0.0,0.0,0.0,0.0,0.0,0.0,0.0,0.0,0.0,0.0,0.0,0.0,0.0,0.0,0.0,0.0,0.0,0.0,0.0,0.0,0.0,0.0,0.0,0.0,0.0,-0.4457,0.0,0.0,0.0,0.0,0.0,0.0,0.0,0.0,0.0,0.0,0.0,0.0,0.0,0.0,0.0,0.0,0.0,0.0,0.0,0.0,0.0,0.0,0.0,0.0,0.0291,0.0883,0.3429,0.5112,0.0,0.0,0.0,0.0,0.0,0.0,0.0,0.7846,0.5995,0.5792,0.3534,0.3809,0.6421,0.7267,0.9256,1.2212,1.4135,0.0,0.0,0.0,0.0,0.0,0.0,0.0,0.0,0.0,0.0,0.0,0.0,0.0,0.0,0.0,0.0,0.0,0.0,0.0,0.0,0.0,0.0,0.0,0.0,0.0,0.0,0.0,0.0,0.0,0.0,0.0,0.0,0.0,0.0,0.0,0.0,0.0,0.0,0.0,0.0,0.0,0.0,0.0,0.0,0.0,0.0,0.0,0.0,0.0,0.0,0.0,0.0,0.0,0.0,0.0,0.0,0.0,0.0,0.0,0.0,0.0,0.0,0.0,-0.6822,-0.6764,-0.7084,-0.7122,-0.7036,-0.6773,-0.6284,-0.5344,-0.4018,-0.2303,0.0,0.0,0.0,0.0,0.0,0.0,0.0,0.0,0.0,0.0,0.0,0.0,0.0,0.0,0.0,0.0,0.0,0.0,0.0,0.0,0.0,-0.1647,-0.0257,0.4288,0.3374,0.5476,0.0,0.0,0.0,0.0,0.0,0.0,0.6409,0.2566,0.0429,0.0164,-0.144,-0.197,-0.1489,-0.1353,-0.1135,-0.0485,0.7676,1.2238,1.3912,0.0,0.0,0.0,0.0,0.0,0.0,0.0,0.0,0.0,0.0,0.0,0.0,0.0,0.0,0.0,0.0,0.0,0.0,0.0,0.0,0.0,0.0,0.0,0.0,0.0,0.0,0.0,0.0,0.0,0.0,0.0,0.0,0.0,0.0,0.0,0.0,0.0,0.0,0.0,0.0,0.0,-0.4872,-0.4845,0.0,0.0,0.0,0.0,0.0,0.0,0.0,0.0,0.0,0.0,0.0,0.0,0.0,-0.8835,-0.8348,-0.8384,-0.7903,-0.6992,-0.788,-0.8468,-0.8854,-0.9155,-0.9291,-0.9219,-0.8467,0.0,-0.3979,-0.3615,0.0,0.0,0.0,0.0,0.0,0.0,0.0,0.0,0.0,0.0,0.0,0.0,0.0,0.0,0.0,0.0,0.0,0.0,0.0,0.0,0.0,-0.6094,-0.593,-0.4149,-0.1014,0.2156,0.5168,0.7234,0.0,0.0,0.0,0.2999,0.2802,-0.1179,-0.4343,-0.6582,-0.805,-0.8362,-0.7571,-0.7749,-0.7766,-0.7429,-0.315,0.1715,0.6789,0.764,0.0,0.0,0.0,0.0,0.0,0.0,0.0,0.0,0.0,0.0,0.0,0.0,0.0,0.0,0.0,0.0,0.0,0.0,0.0,0.0,0.0,0.0,0.0,0.0,0.0,0.0,0.0,0.0,0.0,0.0,0.0,0.0,0.0,0.0,0.0,0.0,0.0,0.0,0.0,-0.413,-0.4978,-0.475,-0.5604,-0.6566,0.0,0.0,0.0,0.0,0.0,0.0,0.0,0.0,0.0,-1.0329,-0.8903,-0.8334,-0.8701,-0.8271,-0.828,-0.8711,-0.8771,-0.9048,-0.9492,-0.9626,-0.969,-0.966,-0.886,-0.7788,-0.6464,-0.5004,-0.3709,-0.2634,0.0,0.0,0.0,0.0,-0.5482,-0.5216,0.0,0.0,0.0,0.0,0.0,0.0,0.0,0.0,0.0,0.0,0.0,0.0,-0.8044,-0.9232,-0.967,-0.9472,-0.5723,-0.1908,0.1536,0.5245,0.0,0.0,0.0689,-0.1012,-0.2995,-0.6395,-0.9624,-1.2696,-1.3863,-1.4076,-1.3364,-1.38,-1.3724,-1.3226,-1.2877,-0.828,-0.0686,0.0282,0.2826,0.629,0.0,0.0,0.0,0.0,0.0,0.0,0.0,0.0,0.0,0.0,0.0,0.0,0.0,0.0,0.0,0.0,0.0,0.0,0.0,0.0,0.0,0.0,0.0,0.0,0.0,0.0,0.0,0.0,0.0,0.0,0.0,0.0,0.0,0.0,0.0,0.0,0.0,-0.4461,-0.496,-0.48,-0.5454,-0.6169,0.0,0.0,0.0,0.0,0.0,0.0,-0.9807,-0.9418,-0.9153,-0.91,-0.7829,-0.7668,-0.8731,-0.8296,-0.8748,-1.0024,-0.9569,-0.9653,-1.0013,-0.994,-0.9826,-0.957,-0.8967,-0.8624,-0.8365,-0.6312,-0.4761,-0.3776,-0.3935,-0.4207,-0.4673,-0.5343,-0.5584,-0.5573,0.0,0.0,0.0,0.0,0.0,0.0,0.0,0.0,0.0,0.0,0.0,-0.6793,-0.9009,-0.9299,-0.8019,-0.4748,-0.9225,-0.5769,0.9559,0.8749,0.3272,-0.6625,-0.5348,-0.7153,-1.3037,-1.4736,-1.6113,-1.7273,-1.7663,-1.8398,-1.9482,-2.0196,-2.0075,-1.9246,-1.897,-1.4601,-0.7252,-0.4883,-0.2898,-0.1118,0.1714,0.0,0.0,0.0,0.0,0.0,0.0,0.0,0.0,0.0,0.0,0.0,0.0,0.0,0.0,0.0,0.0,0.0,0.0,0.0,0.0,0.0,0.0,0.0,0.0,0.0,0.0,0.0,0.0,0.0,0.0,0.0,0.0,0.0,0.0,0.0,0.0,0.0,0.0,-0.5797,-0.5415,0.0,0.0,0.0,0.0,-0.7621,-0.8519,-0.8664,-0.7728,-0.7001,-0.6954,-0.7752,-0.7098,-0.7167,-0.8027,-0.8801,-0.9374,-0.9747,-1.0277,-1.0675,-1.0915,-1.0641,-1.0084,-0.9304,-0.9385,-0.8998,-0.8143,-0.7335,-0.661,-0.6028,-0.5925,-0.5549,-0.5081,-0.4955,-0.5054,-0.5091,0.0,0.0,0.0,0.0,0.0,0.0,0.0,0.0,-0.429,-0.4657,-0.5102,-0.7124,-1.1749,-1.0993,-0.9827,-0.9062,-0.693,-0.2654,0.4304,0.5588,0.327,-0.3052,-0.6055,-0.9905,-1.4879,-1.6196,-1.7647,-1.9347,-2.0317,-2.118,-2.1913,-2.2461,-2.2317,-2.1573,-2.2003,-2.0019,-1.6123,-1.2047,-0.8885,-0.6509,-0.4917,-0.4547,0.0,0.0,0.0,0.0,0.0,0.0,0.0,0.0,0.0,0.0,0.0,0.0,0.0,0.0,0.0,0.0,0.0,0.0,0.0,0.0,0.0,0.0,0.0,0.0,0.0,0.0,0.0,0.0,0.0,0.0,0.0,0.0,0.0,0.0,0.0,0.0,0.0,-0.6289,-0.6457,0.0,-0.7112,-0.7495,-0.7657,-0.7516,-0.7845,-0.7968,-0.7817,-0.715,-0.6929,-0.7398,-0.7261,-0.7748,-0.8821,-0.9513,-0.9959,-1.0131,-1.0146,-0.9864,-0.9325,-0.9236,-0.9047,-0.8678,-0.8159,-0.8106,-0.8263,-0.7431,-0.6933,-0.6586,-0.5891,-0.5371,-0.5135,-0.5186,-0.5172,-0.5008,0.0,0.0,0.0,0.0,0.0,0.0,0.0,0.0,-0.4142,-0.5155,-0.6358,-0.8518,-1.2303,-1.1088,-1.0086,-1.0311,-0.5934,-0.1922,0.0928,0.2205,0.17,-0.088,-0.7345,-1.2327,-1.5439,-1.7501,-1.9347,-2.0974,-2.2202,-2.2987,-2.3339,-2.4006,-2.3967,-2.3375,-2.4247,-2.3992,-2.2634,-1.9196,-1.541,-1.1587,-1.0113,-0.9661,-0.9739,0.0,0.0,0.0,0.0,0.0,0.0,0.0,0.0,0.0,0.0,0.0,0.0,0.0,0.0,0.0,0.0,0.0,0.0,0.0,0.0,0.0,0.0,0.0,0.0,0.0,0.0,0.0,0.0,0.0,0.0,0.0,0.0,0.0,0.0,0.0,-0.6454,-0.6849,-0.6827,-0.6858,-0.7102,-0.7236,-0.7171,-0.6974,-0.7234,-0.7431,-0.742,-0.6921,-0.6714,-0.6826,-0.7212,-0.797,-0.9069,-0.9417,-0.9873,-1.0401,-0.9715,-0.9076,-0.8507,-0.8449,-0.822,-0.7926,-0.7403,-0.7513,-0.8018,-0.7155,-0.6957,-0.7095,-0.6294,-0.5748,-0.544,-0.5491,-0.5477,-0.5302,0.0,0.0,0.0,0.0,0.0,0.0,0.0,-0.1915,-0.3627,-0.4767,-0.8662,-1.1122,-1.0517,-0.9556,-0.8577,-0.7721,-0.6731,-0.4154,0.0553,-0.0882,-0.183,-0.1523,-0.9651,-1.4601,-1.5418,-1.9228,-2.1609,-2.2381,-2.3358,-2.3894,-2.4045,-2.5019,-2.5264,-2.4896,-2.5884,-2.6355,-2.6317,-2.5947,-2.2285,-1.6517,-1.3888,-1.3551,-1.4347,0.0,0.0,0.0,0.0,0.0,0.0,0.0,0.0,0.0,0.0,0.0,0.0,0.0,0.0,0.0,0.0,0.0,0.0,0.0,0.0,0.0,0.0,0.0,0.0,0.0,0.0,0.0,0.0,0.0,0.0,0.0,0.0,0.0,-0.6381,-0.6376,-0.6662,-0.7386,-0.638,-0.5816,-0.632,-0.6722,-0.6557,-0.5875,-0.6741,-0.6986,-0.6328,-0.6118,-0.6037,-0.6037,-0.6897,-0.7721,-0.8649,-0.8639,-0.9172,-1.0269,-0.9024,-0.8531,-0.8719,-0.8499,-0.7905,-0.7065,-0.7227,-0.7367,-0.7386,-0.6659,-0.6872,-0.7668,-0.7236,-0.6626,-0.6013,-0.5864,-0.5822,-0.5696,0.0,0.0,0.0,0.0,0.0,0.0,0.0,0.1132,-0.2022,-0.4876,-0.7987,-1.0257,-1.1058,-1.0297,-0.9557,-0.9006,-0.66,-0.4183,-0.205,-0.3961,-0.6144,-0.8284,-1.206,-1.5511,-1.8504,-2.053,-2.2446,-2.4267,-2.4625,-2.4715,-2.4513,-2.4878,-2.5235,-2.557,-2.6629,-2.7122,-2.7198,-2.7662,-2.6365,-2.3652,-1.9527,-1.8269,-1.8635,0.0,0.0,0.0,0.0,0.0,0.0,0.0,0.0,0.0,0.0,0.0,0.0,0.0,0.0,0.0,0.0,0.0,0.0,0.0,0.0,0.0,0.0,0.0,0.0,0.0,0.0,0.0,0.0,0.0,0.0,0.0,0.0,-0.6585,-0.6065,-0.5801,-0.5836,-0.6205,-0.6025,-0.6009,-0.6296,-0.6421,-0.6389,-0.6208,-0.6398,-0.6517,-0.6335,-0.622,-0.6576,-0.7251,-0.7505,-0.8146,-0.9114,-0.887,-0.868,-0.8524,-0.8916,-0.8323,-0.7026,-0.7897,-0.7711,-0.664,-0.6604,-0.6682,-0.674,-0.6419,-0.649,-0.671,-0.6543,-0.6317,-0.6023,-0.5983,-0.505,-0.357,0.0,0.0,0.0,0.0,0.0,0.0,0.0,0.3656,0.0924,-0.2927,-0.7099,-0.9791,-0.9989,-1.0007,-0.9661,-0.8751,-0.5416,-0.3328,-0.3132,-0.5785,-0.8666,-1.1559,-1.4557,-1.7343,-1.9866,-2.1968,-2.3812,-2.5412,-2.6026,-2.6188,-2.5931,-2.6437,-2.6805,-2.7117,-2.856,-2.9219,-2.9327,-3.0179,-2.9861,-2.8528,-2.5452,-2.3636,-2.2611,-2.0878,-2.0622,-2.0872,-1.8525,-1.6281,-1.4023,-1.1358,0.0,0.0,0.0,0.0,0.0,0.0,0.0,0.0,0.0,0.0,0.0,0.0,0.0,0.0,0.0,0.0,0.0,0.0,0.0,0.0,0.0,0.0,0.0,0.0,-0.7186,-0.7173,-0.602,-0.573,-0.5728,-0.5966,-0.6074,-0.6162,-0.6251,-0.6338,-0.6338,-0.6338,-0.6338,-0.6338,-0.6338,-0.62,-0.6645,-0.7783,-0.7706,-0.8227,-0.9296,-0.8711,-0.8227,-0.7892,-0.797,-0.748,-0.6527,-0.7205,-0.713,-0.6595,-0.6519,-0.6488,-0.65,-0.6419,-0.6338,0.0,0.0,0.0,0.0,0.0,-0.4131,-0.2279,0.0,0.0,0.0,0.0,0.0,0.0,0.0,0.5076,0.3716,-0.0164,-0.5976,-0.9338,-0.8337,-0.8924,-0.8965,-0.8031,-0.4319,-0.2669,-0.4222,-0.7234,-1.0187,-1.2993,-1.6889,-1.9477,-2.0518,-2.3438,-2.537,-2.6177,-2.7311,-2.7764,-2.7617,-2.8588,-2.9,-2.9004,-3.0816,-3.1686,-3.1825,-3.2676,-3.2458,-3.1475,-3.0729,-2.8789,-2.6093,-2.4369,-2.3508,-2.3005,-2.1086,-1.868,-1.6323,-1.5592,0.0,0.0,0.0,0.0,0.0,0.0,0.0,0.0,0.0,0.0,0.0,0.0,0.0,0.0,0.0,0.0,0.0,0.0,0.0,0.0,0.0,0.0,0.0,0.0,-0.7956,-0.7851,-0.625,-0.6057,-0.6105,-0.6244,-0.6338,-0.6338,-0.6338,-0.6338,-0.6338,-0.6338,-0.6338,-0.6338,-0.6338,0.0,0.0,0.0,0.0,-0.7904,-0.9145,-0.8183,-0.7737,-0.7807,-0.6999,-0.6621,-0.6698,-0.6709,-0.6743,-0.6759,-0.6705,-0.6632,-0.6549,-0.6539,-0.6359,-0.6103,-0.6103,-0.6103,-0.5944,-0.4753,-0.3193,-0.1561,0.0,0.0,0.0,0.0,0.0,0.0,0.0,0.3036,0.1419,-0.0309,-0.4604,-0.7911,-0.8951,-0.7296,-0.7321,-1.0285,-0.6911,-0.6313,-1.0385,-1.0936,-1.2841,-1.6754,-1.8303,-2.0348,-2.3035,-2.4612,-2.6013,-2.7294,-2.7542,-2.7634,-2.7621,-2.8348,-2.9062,-2.9728,-3.0749,-3.1618,-3.2284,-3.2452,-3.2466,-3.2331,-3.209,-3.042,-2.7988,-2.7081,-2.6453,-2.582,-2.4116,-2.2642,-2.0998,-1.7836,-1.6365,-1.5054,-1.0459,-0.7309,0.0,0.0,0.0,0.0,0.0,0.0,0.0,0.0,0.0,0.0,0.0,0.0,0.0,0.0,0.0,0.0,0.0,0.0,0.0,-0.829,-0.8319,-0.7902,-0.6478,-0.6217,-0.6227,-0.6257,-0.6338,-0.6338,-0.6338,-0.6338,-0.6338,-0.6338,-0.6338,-0.6338,-0.6338,-0.6234,-0.6685,-0.7783,-0.6992,-0.7065,-0.8084,-0.7227,-0.6759,-0.6791,0.0,0.0,-0.6702,-0.7799,-0.772,-0.6822,-0.6763,-0.6706,-0.6692,-0.6532,-0.5921,-0.5002,-0.5002,-0.5002,-0.4756,-0.2908,-0.1978,-0.1446,0.0,0.0,0.0,0.0,0.0,0.0,0.0,0.1365,-0.0102,-0.1338,-0.5109,-0.8099,-0.9175,-0.851,-0.8828,-1.0913,-0.9,-0.8264,-0.9752,-1.2546,-1.5474,-1.8472,-2.0783,-2.2788,-2.4523,-2.6154,-2.7403,-2.8191,-2.8606,-2.8891,-2.9102,-2.8922,-2.9202,-2.9813,-3.0337,-3.0976,-3.1676,-3.2259,-3.2811,-3.3277,-3.2978,-3.1953,-3.0521,-2.9817,-2.8502,-2.6949,-2.6136,-2.4724,-2.287,-2.0653,-1.8796,-1.6692,-1.2617,-0.8936,-0.5605,0.0,0.0,0.0,0.0,0.0,0.0,0.0,0.0,0.0,0.0,0.0,0.0,0.0,0.0,-0.7138,0.0,0.0,-1.0134,-0.9647,-0.9264,-0.8562,-0.7238,-0.6644,-0.6338,-0.6338,-0.6338,-0.6338,-0.6338,-0.6338,-0.6338,-0.6338,-0.6338,-0.6338,-0.6338,-0.6338,-0.6795,-0.7783,-0.6795,-0.6832,-0.7914,-0.6987,-0.6549,-0.6702,-0.7355,-0.7436,-0.6922,-0.7513,-0.7543,-0.699,-0.6903,-0.6823,-0.6759,-0.6009,-0.5002,-0.3812,-0.3377,-0.3127,-0.3046,-0.2009,-0.1232,-0.0693,0.0,0.0,0.0,0.0,0.0,0.0,0.0,-0.0285,-0.1501,-0.2836,-0.5805,-0.8185,-0.9219,-0.9258,-0.943,-0.9947,-1.0292,-1.0079,-0.9155,-1.3922,-1.7657,-1.966,-2.3067,-2.5208,-2.5834,-2.76,-2.8733,-2.9222,-2.962,-2.9918,-3.0073,-2.92,-2.8888,-2.9115,-2.9419,-2.981,-3.0358,-3.1653,-3.2711,-3.3526,-3.3412,-3.3072,-3.2526,-3.1773,-2.9901,-2.7586,-2.694,-2.5183,-2.2955,-2.1722,-1.9356,-1.6465,-1.3791,-1.0026,-0.6149,-0.4125,-0.115,0.0,0.0,0.0,0.0,0.0,0.0,0.0,0.0,0.0,-0.2373,-0.5735,-0.6862,-0.7866,-1.0118,-1.0892,-1.1071,-1.068,-1.0121,-0.9145,-0.7681,-0.6747,-0.6203,-0.6173,-0.6224,-0.6338,-0.6338,-0.6338,-0.6338,-0.6338,-0.6338,-0.6338,-0.6338,-0.6338,-0.6641,-0.748,-0.6718,-0.6791,-0.7728,-0.6896,-0.6654,-0.6926,-0.6831,-0.6909,-0.7136,-0.7021,-0.7034,-0.7051,-0.6782,-0.6679,-0.6414,-0.5141,-0.384,-0.2765,-0.192,-0.1509,-0.1271,-0.1258,-0.0706,0.0,0.0,0.0,0.0,0.0,0.0,0.0,0.0,0.0,-0.3352,-0.4634,-0.5094,-0.6377,-0.9172,-0.5919,-0.4413,-0.6623,-1.0121,-1.3179,-1.5408,-1.6704,-1.8679,-2.1567,-2.3755,-2.5804,-2.7754,-2.8253,-2.9219,-3.0675,-2.9683,-2.8892,-2.8281,-2.7799,-2.735,-2.6974,-2.7641,-2.801,-2.8171,-2.9973,-3.1184,-3.1984,-3.3178,-3.3238,-3.2519,-3.1711,-3.04,-2.8617,-2.5678,-2.346,-2.1363,-1.7837,-1.5519,-1.3832,-1.2035,-0.9283,-0.6641,-0.5935,0.0,0.0589,-0.1094,-0.0431,0.0868,0.1105,0.0345,-0.0578,0.0,0.0,-0.4725,-0.6919,-0.8146,-0.9325,-1.0795,-1.1909,-1.1954,-1.0124,-0.9766,-0.8859,-0.6539,-0.6129,-0.6006,-0.5867,-0.6095,-0.6338,-0.6338,-0.6338,-0.6338,-0.6338,-0.6338,-0.6338,-0.6338,-0.6338,-0.6338,-0.649,-0.6338,-0.6407,-0.6628,-0.6688,-0.6759,-0.6929,-0.7041,-0.7109,-0.7139,-0.7126,-0.7126,-0.7051,-0.5802,-0.529,-0.5178,-0.3852,-0.2707,-0.1753,-0.1666,-0.1,-0.0166,-0.016,-0.0079,0.0,0.0,0.0,0.0,0.0,0.0,0.0,0.0,0.0,0.0,-0.5443,-0.6051,-0.7384,-0.9981,-0.943,-0.9426,-1.0787,-1.1986,-1.3861,-1.6713,-1.7536,-1.9169,-2.199,-2.4541,-2.6358,-2.7382,-2.8465,-2.9401,-3.0205,-2.904,-2.8225,-2.7718,-2.5572,-2.4451,-2.4192,-2.3778,-2.3926,-2.4583,-2.6947,-2.8677,-2.9947,-3.1179,-3.1421,-3.1023,-3.0405,-2.7889,-2.4649,-2.4614,-2.3129,0.0,-1.7963,-1.5637,-1.3502,-1.0987,-0.8866,-0.7036,-0.589,-0.4148,0.0,-0.2362,0.0,0.0,0.0,-0.1267,-0.17,-0.2979,-0.4651,-0.6393,-0.8309,-0.9669,-1.1016,-1.2387,-1.2805,-1.2537,0.0,-1.0184,-0.9048,-0.7323,-0.6374,-0.5874,-0.581,-0.5844,-0.5939,-0.6108,-0.6568,-0.6684,-0.6331,-0.6338,-0.6338,-0.6338,-0.6338,-0.6298,-0.638,-0.6383,-0.6498,-0.6736,-0.68,-0.6905,-0.7051,-0.7112,-0.7139,-0.7143,-0.7234,-0.6911,-0.6178,-0.4846,-0.382,-0.3171,-0.2605,-0.1722,-0.0684,-0.0676,-0.0421,0.0,0.0,0.0,0.0,0.0,0.0,0.0,0.0,0.0,0.0,0.0,0.0,0.0,0.0,-0.6726,-0.8199,-1.035,-1.2357,-1.3622,-1.3858,-1.3495,-1.4157,-1.6263,-1.756,-1.921,-2.139,-2.4375,-2.6371,-2.7119,-2.8307,-2.9107,-2.9483,-2.811,-2.6961,-2.6038,-2.284,-2.1342,-2.1326,-1.961,-1.9275,-2.0292,-2.3334,-2.5357,-2.6612,-2.8677,-2.9266,-2.8864,-2.7988,-2.5076,-2.1697,-2.3251,-2.1688,-1.8621,-1.7091,-1.5191,-1.306,-1.0633,-0.905,-0.7787,-0.6607,-0.5828,-0.4979,-0.3257,0.0,0.0,-0.2647,-0.2536,-0.2663,-0.4454,-0.5889,-0.7344,-0.8859,-1.0042,-1.1203,-1.2631,-1.2758,-1.2323,-1.16,-1.0423,-0.915,-0.788,-0.6584,-0.5742,-0.5742,-0.5783,-0.5855,-0.5878,-0.6559,-0.6734,-0.6263,-0.6237,-0.6338,-0.6338,-0.6298,-0.6366,-0.6468,-0.6512,-0.6661,-0.6926,-0.6929,-0.7,-0.7139,-0.7183,-0.7204,-0.721,-0.6992,-0.6202,-0.497,-0.3628,-0.2606,-0.1788,-0.141,-0.0789,0.0,0.0,0.0,0.0,0.0,0.0,0.0,0.0,0.0,0.0,0.0,0.0,0.0,0.0,0.0,0.0,0.0,0.0,0.0,0.0,-1.2327,-1.3647,-1.3098,-1.3903,-1.4511,-1.4681,-1.7004,-1.877,-1.9633,-2.2752,-2.5504,-2.7717,-2.7699,-2.8082,-2.8927,-2.6937,-2.4729,-2.2281,-1.9585,-1.8486,-1.8577,-1.5522,-1.4413,-1.5213,-1.9293,-2.1072,-2.1445,-2.5893,-2.7152,-2.6106,-2.4206,-2.2734,-2.1662,-2.1396,-1.8172,-1.3947,-1.3573,-1.2779,-1.1845,-1.1099,-1.0072,-0.9103,-0.8939,-0.7589,-0.5728,-0.3818,0.0,-0.2318,-0.2797,-0.3112,-0.3652,-0.4862,-0.6016,-0.7197,-0.8263,-0.8474,-0.9071,-1.0941,-1.1158,-1.0974,-1.0881,-0.9981,-0.893,-0.7677,-0.6418,-0.5596,-0.5596,-0.6048,-0.6169,0.0,-0.5861,-0.603,-0.6037,-0.6176,-0.6338,-0.6338,-0.639,-0.6468,-0.6471,-0.6617,-0.677,-0.6926,-0.6929,-0.7,-0.7143,-0.7292,-0.7363,-0.7366,-0.6197,-0.4966,-0.359,-0.2397,-0.1824,-0.1701,-0.0538,0.0,0.0,0.0,0.0,0.0,0.0,0.0,0.0,0.0,0.0,0.0,0.0,0.0,0.0,0.0,0.0,0.0,0.0,0.0,0.0,0.0,0.0,0.0,0.0,-1.4497,-1.4951,-1.587,-1.6929,-1.7794,-1.839,-2.1442,-2.3442,-2.4068,-2.4921,-2.5477,-2.5791,-2.4629,-2.1813,-1.7479,-1.4375,-1.1837,-0.9904,-0.8376,-0.8719,-1.0708,-1.4347,-1.737,-1.9617,-1.8338,-2.0365,-2.3588,-1.8574,-1.7558,-1.8898,0.0,-1.8319,-1.5945,-1.4667,-1.3579,-1.2436,-1.0664,-0.9673,-0.9048,-0.8289,-0.7291,-0.6037,-0.4467,0.0,-0.251,-0.3782,-0.3828,-0.4014,-0.599,-0.725,-0.8106,-0.8209,-0.8825,-0.9387,-0.9834,-1.0131,-0.9926,-0.894,-0.8719,-0.8267,-0.6912,-0.6229,-0.581,-0.5613,-0.5766,0.0,0.0,0.0,0.0,-0.6013,-0.6173,-0.6302,-0.6396,-0.6542,-0.6671,-0.6773,-0.6824,-0.6922,-0.7068,-0.7068,-0.7092,-0.7051,-0.6385,-0.5715,-0.4979,-0.3663,-0.2897,-0.2446,-0.1208,-0.064,-0.0539,-0.018,0.0,0.0,0.0,0.0,0.0,0.0,0.0,0.0,0.0,0.0,0.0,0.0,0.0,0.0,0.0,0.0,0.0,0.0,0.0,0.0,0.0,0.0,0.0,0.0,0.0,-1.48,-1.5342,-1.5997,-1.6415,-1.6538,-1.9111,-2.0657,-2.0934,-2.1875,-2.2275,-2.2195,-2.1497,-1.8741,-1.4116,-1.0202,-0.6309,-0.2522,-0.135,-0.2582,-0.5691,-0.9097,-1.3002,-1.6775,-1.5785,-1.788,-2.1116,-1.6706,-1.6306,0.0,-1.8108,-1.7828,-1.7233,-1.5892,-1.4633,-1.3248,-1.0949,-0.9134,-0.7774,-0.7216,-0.6273,-0.5186,-0.4314,-0.3289,-0.2758,-0.4029,-0.4261,-0.4648,-0.657,-0.7197,-0.7311,-0.7057,-0.7335,-0.7719,-0.7865,-0.8153,-0.8318,-0.7917,-0.7749,-0.7404,-0.6775,-0.6134,-0.5779,-0.5749,-0.5698,-0.5589,0.0,0.0,0.0,-0.5935,-0.619,-0.6376,-0.6468,-0.6668,-0.6827,-0.6926,-0.6976,-0.7075,-0.7221,-0.7221,-0.7001,-0.6639,-0.5445,-0.4256,-0.3157,-0.2296,-0.1704,-0.1237,-0.0373,0.0,0.0,0.0,0.0,0.0,0.0,0.0,0.0,0.0,0.0,0.0,0.0,0.0,0.0,0.0,0.0,0.0,0.0,0.0,0.0,0.0,0.0,0.0,0.0,0.0,0.0,0.0,0.0,0.0,-1.3271,-1.4226,-1.4638,-1.416,-1.5852,-1.7348,-1.8421,-1.8705,-1.8668,-1.8394,-1.7637,-1.5517,-1.2059,-0.7218,-0.2216,0.2854,0.5037,0.3602,-0.077,-0.4075,-0.8322,-1.3229,-1.7426,-1.8979,-1.8686,-1.7887,-1.8352,-1.9147,-1.6672,-1.6561,-1.7502,-1.6935,-1.5591,-1.3756,-1.1494,-0.8308,-0.548,-0.5779,-0.4629,-0.3252,-0.3402,-0.3127,-0.2935,-0.3548,-0.4272,-0.5301,-0.6521,-0.5891,-0.4983,-0.4801,-0.4384,-0.4213,0.0,0.0,-0.6225,-0.7634,-0.6908,-0.6455,-0.7136,-0.6211,-0.5586,0.0,0.0,0.0,0.0,0.0,0.0,-0.5847,0.0,-0.6478,-0.6495,-0.6776,-0.6939,-0.6939,-0.7078,-0.7221,-0.737,-0.7377,-0.6771,-0.5565,-0.4294,-0.3057,-0.1908,-0.1872,-0.1161,0.0,0.0,0.0,0.0,0.0,0.0,0.0,0.0,0.0,0.0,0.0,0.0,0.0,0.0,0.0,0.0,0.0,0.0,0.0,0.0,0.0,0.0,0.0,0.0,0.0,0.0,0.0,0.0,0.0,0.0,0.0,-1.3328,-1.2889,-1.2401,-1.1942,-1.3561,-1.4674,-1.5106,-1.5957,-1.6157,-1.5697,-1.3882,-1.1502,-0.8578,-0.4239,-0.0952,0.1517,0.7765,0.5194,-0.376,-0.2882,-0.7341,-1.4701,-1.1326,-1.2843,-1.6624,-1.2123,-1.3416,-1.7412,-1.613,-1.59,-1.617,-1.595,0.0,0.0,0.0,-0.4815,-0.4117,-0.2978,-0.2453,-0.232,-0.2906,-0.1891,-0.1343,-0.4016,-0.3644,-0.314,-0.5111,-0.4636,-0.3736,-0.3459,-0.3582,-0.3698,0.0,0.0,0.0,-0.5679,-0.6061,0.0,-0.6503,-0.6419,0.0,-0.6359,0.0,-0.6386,-0.6166,-0.6274,0.0,0.0,-0.6407,-0.6573,-0.68,-0.6987,-0.7085,-0.7085,-0.7234,-0.7333,-0.737,-0.654,-0.4957,-0.2838,-0.2508,-0.1646,-0.0494,-0.0484,-0.0285,0.0,0.0,0.0,0.0,0.0,0.0,0.0,0.0,0.0,0.0,0.0,0.0,0.0,0.0,0.0,0.0,0.0,0.0,0.0,0.0,0.0,0.0,0.0,0.0,0.0,0.0,0.0,0.0,0.0,0.0,0.0,0.0,-1.1067,-1.0419,-0.9776,-1.0772,-1.1424,-1.1607,-1.2445,-1.2637,-1.2184,-1.119,-0.9473,-0.6997,-0.1968,0.0998,0.2449,0.9079,0.7355,-0.0576,-0.1391,-0.6215,0.0,0.0,-1.3104,-1.6176,-1.3124,-1.4072,-1.6918,-1.6116,-1.5475,0.0,0.0,0.0,-0.6754,-0.2855,-0.1268,-0.0817,-0.0769,0.0,-0.0585,-0.187,-0.1493,-0.1211,-0.3153,-0.3043,-0.2809,-0.4002,-0.3397,-0.2584,-0.2356,-0.237,0.0,-0.2609,0.0,0.0,0.0,0.0,0.0,-0.5844,-0.6067,-0.6254,0.0,-0.6569,0.0,-0.6376,-0.6549,-0.6671,0.0,-0.6671,-0.6749,-0.6919,-0.7061,-0.7139,-0.7139,-0.7292,-0.7155,-0.6711,-0.5489,-0.3913,-0.1883,-0.1276,-0.0685,0.0,0.0,0.0,0.0,0.0,0.0,0.0,0.0,0.0,0.0,0.0,0.0,0.0,0.0,0.0372,0.083,0.0,0.0,0.0,0.0,0.0,0.0,0.0,0.0,0.0,0.0,0.0,0.0,0.0,0.0,0.0,0.0,0.0,0.0,0.0,0.0,-0.8606,-0.7854,-0.8094,-0.8335,-0.8537,-0.9072,-0.917,-0.8796,-0.9298,-0.861,-0.6687,-0.0718,0.2631,0.3862,0.8978,0.8653,0.4006,-0.0373,-0.5354,-1.062,-1.4355,-1.6025,-1.6341,0.0,-1.69,-1.6777,-1.6104,-1.5034,0.0,0.0,-0.6344,-0.418,-0.0528,0.1847,0.2927,0.1296,0.1194,0.1162,-0.0665,-0.1373,-0.1654,-0.1908,-0.2509,-0.2923,-0.2983,-0.2168,-0.1356,-0.1283,0.0,-0.1079,-0.1742,-0.2342,-0.3036,-0.3913,0.0,-0.4562,-0.5287,-0.5538,-0.5806,-0.6237,-0.6532,-0.6658,-0.6546,-0.6773,-0.6936,-0.6956,-0.6956,-0.6956,-0.6956,-0.7075,-0.716,-0.72,-0.7148,-0.6689,-0.5584,-0.4382,-0.3015,-0.1711,-0.0605,0.0,0.0,0.0,0.0,0.0,0.0,0.0,0.0,0.0,0.0,0.0,0.0,0.0096,0.0286,0.0287,0.1145,0.2278,0.0,0.0,0.0,0.0,0.0,0.0,0.0,0.0,0.0,0.0,-0.6538,-0.7226,0.0,0.0,0.0,0.0,0.0,0.0,0.0,0.0,0.0,-0.6857,-0.6908,-0.7183,-0.7703,-0.8291,-0.8334,-0.776,-0.8082,-0.7958,-0.7324,-0.2041,0.0913,0.1957,0.6421,0.5097,-0.0589,-0.1831,-0.5834,-1.1489,-1.326,-1.4448,-1.5151,-1.4978,0.0,0.0,-1.4666,0.0,0.0,-0.8666,-0.5914,-0.322,0.095,0.3088,0.4007,0.3929,0.2827,0.1302,0.0087,-0.0266,-0.08,-0.2611,-0.182,-0.0689,-0.1082,-0.0719,0.0,0.0,-0.0273,-0.0954,-0.1078,-0.2075,-0.2989,-0.3398,0.0,0.0,0.0,0.0,-0.6071,0.0,0.0,0.0,0.0,0.0,0.0,0.0,0.0,-0.7102,-0.7102,-0.7126,-0.7258,-0.7512,-0.65,-0.5382,-0.4294,-0.3011,-0.1711,-0.0303,-0.0101,0.0,0.0,0.0,0.0,0.0,0.0,0.0,0.0,0.0,0.0,0.0,0.0,0.0676,0.1622,0.1646,0.2505,0.3616,0.0,0.0,0.0,0.0,0.0,0.0,0.0,-0.4578,-0.5293,-0.6005,-0.6539,-0.7069,-0.7657,-0.7342,0.0,0.0,0.0,0.0,0.0,0.0,0.0,0.0,0.0,0.0,-0.6594,-0.6901,-0.6965,0.0,0.0,-0.6982,-0.6631,-0.2208,0.1302,0.4124,0.7708,0.6523,0.1611,-0.1869,-0.5556,-0.9376,-1.2502,-1.3802,-1.3863,0.0,0.0,0.0,0.0,0.0,0.0,0.0,-0.6104,-0.2958,0.099,0.2882,0.3606,0.3616,0.3122,0.2101,0.0432,0.044,0.0525,-0.1183,-0.079,-0.0072,-0.0253,0.0,0.0,0.0,-0.0045,-0.0525,-0.0847,0.0,0.0,0.0,0.0,0.0,0.0,0.0,0.0,0.0,0.0,0.0,0.0,0.0,0.0,0.0,0.0,-0.7139,-0.7139,-0.6496,-0.635,-0.6541,-0.5363,-0.4101,-0.3015,-0.2314,-0.131,0.0,0.0,0.0,0.0,0.0,0.0,0.0,0.0,0.0,0.0,0.0,0.0,0.0098,0.0793,0.1483,0.206,0.2769,0.3844,0.4988,0.0,0.0,0.0,0.0,0.0,0.0,0.0,-0.5614,-0.6209,-0.6295,-0.675,-0.7077,-0.7211,-0.6782,-0.6296,0.0,0.0,0.0,0.0,0.0,0.0,0.0,0.0,0.0,0.0,0.0,0.0,0.0,0.0,0.0,0.0,0.0,0.0,0.0,0.0,0.8505,0.5803,-0.0603,-0.4365,0.0,0.0,-1.2853,0.0,0.0,0.0,0.0,0.0,0.0,0.0,0.0,-0.5954,-0.2929,0.0168,0.2079,0.3086,0.2933,0.292,0.2598,0.0842,0.0859,0.1195,0.0246,0.0075,0.0134,0.018,0.0161,0.0,0.0,0.0088,-0.0133,-0.0611,0.0,-0.1252,0.0,0.0,0.0,0.0,0.0,0.0,0.0,0.0,0.0,0.0,0.0,0.0,0.0,0.0,0.0,-0.6739,-0.5684,-0.5053,-0.5244,-0.3974,-0.2961,-0.2012,-0.1711,-0.1008,0.0,0.0,0.0,0.0,0.0,0.0,0.0,0.0,0.0,0.0,0.0,0.0202,0.0504,0.1611,0.2314,0.3016,0.4017,0.5322,0.6418,0.0,0.0,0.0,0.0,0.0,0.0,0.0,-0.5976,-0.7077,-0.7337,-0.7247,-0.7273,-0.752,-0.6561,-0.57,0.0,0.0,0.0,0.0,0.0,0.0,0.0,0.0,0.0,0.0,0.0,0.0,0.0,0.0,0.0,0.0,0.0,0.0,0.0,0.0,0.0,0.0,0.2514,0.0,0.0,0.0,0.0,0.0,0.0,0.0,0.0,0.0,0.0,0.0,0.0,0.0,-0.2812,-0.1289,0.0956,0.3109,0.3315,0.0,0.0,0.1691,0.0913,0.0168,0.0,0.0292,0.0697,0.0805,0.0,0.0,0.0808,0.037,0.0,-0.008,-0.0534,-0.0985,0.0,0.0,-0.2975,0.0,0.0,0.0,0.0,0.0,0.0,0.0,0.0,0.0,0.0,0.0,0.0,-0.5512,-0.44,-0.382,-0.3994,-0.264,-0.1976,-0.2012,-0.0807,-0.0101,0.0,0.0,0.0,0.0,0.0,0.0,0.0,0.0,0.0,0.0,0.0,0.0706,0.1812,0.1912,0.3518,0.5627,0.5727,0.6631,0.7836,0.0,0.0,0.0,0.0,0.0,0.0,-0.5029,-0.6088,-0.7191,-0.8145,-0.7677,-0.71,-0.6619,-0.6264,-0.5648,-0.4702,0.0,0.0,0.0,0.0,0.0,0.0,0.0,0.0,0.0,0.0,0.0,0.0,0.0,0.0,0.0,0.0,0.0,0.0,0.0,0.0,0.0,0.0,0.0,0.0,0.0,0.0,0.0,0.0,0.0,0.0,0.0,0.0,0.0,0.0,0.0,0.0,-0.0878,0.0503,0.0,0.0,0.243,0.2597,0.1116,0.1317,0.1564,0.0302,0.0335,0.0698,0.0751,0.0,0.1064,0.1142,0.0755,0.0441,0.0432,0.0,-0.0507,-0.0902,-0.1257,0.0,0.0,0.0,0.0,0.0,0.0,0.0,0.0,0.0,0.0,0.0,0.0,0.0,-0.3193,-0.2776,-0.2525,-0.2642,-0.1388,-0.0701,-0.0807,-0.0299,0.0,0.0,0.0,0.0,0.0,0.0,0.0,0.0,0.0,0.0,0.0,0.0907,0.1511,0.2113,0.382,0.5024,0.6129,0.6933,0.7537,0.8038,0.0,0.0,0.0,0.0,0.0,-0.4805,-0.5147,-0.5991,-0.6878,-0.7748,-0.744,-0.687,-0.6222,-0.6128,-0.5827,-0.507,-0.5205,0.0,0.0,0.0,0.0,0.0,0.0,0.0,0.0,0.0,-0.4483,-0.4852,-0.4489,0.0,0.0,0.0,0.0,0.0,0.0,0.0,0.0,0.0,0.0,0.0,0.0,0.0,0.0,0.0,0.0,0.0,0.0,0.0,0.0,0.0,0.0,0.0,0.0,0.0,0.1214,0.0,0.1817,0.2465,0.0525,0.1044,0.1858,0.0342,0.0427,0.0854,0.0,0.0,0.1486,0.1314,0.1061,0.0876,0.0863,0.0508,0.0122,-0.0123,-0.0415,-0.0751,-0.1228,0.0,0.0,0.0,0.0,0.0,0.0,0.0,0.0,0.0,0.0,0.0,-0.1808,-0.1447,-0.1271,-0.1285,-0.0401,0.0,0.0,0.0,0.0,0.0,0.0,0.0,0.0,0.0,0.0,0.0,0.0,0.0,0.0,0.1411,0.2213,0.2815,0.5125,0.6232,0.6731,0.7637,0.8038,0.8038,0.0,0.0,0.0,0.0,0.0,0.0,-0.4706,-0.561,-0.6138,-0.5701,-0.6253,-0.6702,-0.6702,-0.6214,-0.6113,-0.6626,-0.6192,0.0,0.0,0.0,0.0,0.0,0.0,0.0,0.0,0.0,-0.4311,-0.4304,-0.4291,-0.403,-0.3508,0.0,0.0,0.0,0.0,0.0,0.0,0.0,0.0,0.0,0.0,0.0,0.0,0.0,0.0,0.0,0.0,0.0,0.0,0.0,0.0,0.0,0.0,0.1695,0.1446,0.0639,0.0541,0.064,0.0107,0.0,0.0,0.0,0.0672,0.1184,0.0,0.1371,0.1855,0.1389,0.1295,0.1287,0.1287,0.0949,0.089,0.1477,0.0088,0.0,0.0702,0.0,0.0,0.0,0.0,0.0,0.0,0.0,0.0,0.0,0.0,0.0,-0.1807,-0.0667,0.0,0.0,0.0,0.0,0.0,0.0,0.0,0.0,0.0,0.0,0.0,0.0,0.0,0.0,0.0,0.0,0.0,0.1411,0.2815,0.4117,0.5425,0.6833,0.7939,0.8038,0.8038,0.8038,0.0,0.0,0.0,0.0,0.0,0.0,0.0,-0.5135,-0.5432,-0.5273,-0.563,-0.5811,-0.5613,-0.5628,-0.5773,-0.6124,-0.6001,0.0,0.0,0.0,0.0,0.0,0.0,0.0,0.0,0.0,-0.357,-0.4156,-0.397,-0.3812,-0.3646,-0.4063,-0.2772,0.0,0.0,0.0,0.0,0.0,0.0,0.0,0.0,0.0,0.0,0.0,0.0,0.0,0.0,0.0,0.0,0.0,0.0,0.0,0.0,0.0,0.0,0.1234,0.1447,0.0,0.0556,0.0551,0.0843,0.0522,0.0869,0.1361,0.1531,0.206,0.2426,0.2284,0.2006,0.178,0.1782,0.1517,0.1245,0.1018,0.0581,0.0292,0.0,0.0,0.0,0.0,0.0,0.0,0.0,0.0,0.0,0.0,0.0,0.0,-0.0571,-0.0193,0.0,0.0,0.0,0.0,0.0,0.0,0.0,0.0,0.0,0.0,0.0,0.0,0.0,0.0,0.0,0.0,0.0202,0.2414,0.3615,0.4216,0.6528,0.7637,0.8038,0.8038,0.8038,0.8038,0.0,0.0,0.0,0.0,0.0,0.0,0.0,-0.4637,-0.4786,-0.4805,-0.4952,-0.5146,-0.5372,-0.5372,-0.5572,-0.615,-0.6012,0.0,0.0,0.0,0.0,0.0,0.0,0.0,0.0,-0.3021,-0.2988,-0.3759,-0.3669,-0.3655,-0.3742,-0.4179,-0.2296,0.1536,0.3492,0.0,0.0,0.0,0.0,0.0,0.0,0.0,0.7428,0.0,0.0,0.0,0.0,0.0,0.0,0.0,0.0,0.0,0.0,0.0,0.0,0.0,0.1927,0.1836,0.0,0.092,0.1152,0.0931,0.1192,0.0,0.0,0.2351,0.2712,0.2712,0.248,0.2281,0.2281,0.2016,0.1789,0.1739,0.1262,0.088,0.0,0.0,0.0,0.0,0.0,0.0,0.0,0.0,0.0,0.0,0.0,0.0,0.0,0.0,0.0,0.0,0.0,0.0,0.0,0.0,0.0,0.0,0.0,0.0,0.0,0.0,0.0,0.0,0.0,0.0,0.0,0.2914,0.4016,0.4216,0.693,0.8038,0.8038,0.8038,0.8038,0.8038,0.0,0.0,0.0,0.0,0.0,0.0,0.0,-0.4089,-0.4252,-0.4293,-0.4293,-0.4668,-0.5677,-0.5362,-0.5471,-0.6479,0.0,0.0,0.0,0.0,0.0,0.0,0.0,0.0,-0.3261,-0.2552,-0.2505,-0.3086,-0.3374,-0.3615,-0.3756,-0.3981,-0.197,0.1991,0.5878,0.7741,0.8049,0.0,0.0,0.0,0.0,0.0,0.0,0.0,0.0,0.0,0.0,0.0,0.0,0.0,0.0,0.0,0.0,0.0,0.0,0.0,0.0,0.0,0.0,0.1022,0.1106,0.0,0.0,0.0,0.2035,0.2393,0.0,0.2712,0.2712,0.2719,0.271,0.2478,0.2503,0.3261,0.2007,0.0,0.0,0.0,0.0,0.0,0.0,0.0,0.0,0.0,0.0,0.0,0.0,0.0,0.0,0.0,0.0,0.0,0.0,0.0,0.0,0.0,0.0,0.0,0.0,0.0,0.0,0.0,0.0,0.0,0.0,0.0,0.0202,0.2914,0.4016,0.4216,0.693,0.8038,0.8038,0.8038,0.8038,0.8038,0.0,0.0,0.0,0.0,0.0,0.0,0.0,0.0,0.0,0.0,-0.4301,-0.4399,-0.4639,-0.4749,-0.489,0.0,0.0,0.0,0.0,0.0,0.0,0.0,0.0,0.0,-0.0852,-0.108,-0.1518,-0.2121,-0.3199,-0.3615,-0.3447,-0.4334,-0.2985,0.0305,0.3347,0.6219,0.8856,0.9412,0.0,0.0,0.0,0.0,0.0,0.0,0.0,0.0,0.7695,0.7057,0.0,0.0,0.0,0.0,0.0,0.0,0.0,0.0,0.2022,0.167,0.1602,0.0,0.1048,0.1535,0.1731,0.1976,0.0,0.2636,0.2712,0.2712,0.0,0.2751,0.2978,0.3021,0.304,0.3034,0.2311,0.0,0.0,0.0,0.0,0.0,0.0,0.0,0.0,0.0,0.0,0.0,0.0,0.0,0.0,0.0,0.0,0.0,0.0,0.0,0.0,0.0,0.0,0.0,0.0,0.0,0.0,0.0,0.0,0.0,0.0,0.0,0.0202,0.2914,0.4016,0.4216,0.693,0.8038,0.8038,0.8038,0.8038,0.8038,0.0,0.0,0.0,0.0,0.0,0.0,0.0,0.0,0.0,0.0,0.0,0.0,0.0,0.0,0.0,0.0,0.0,0.0,0.0,0.0,0.0,0.0,0.0,-0.0381,0.0803,-0.0045,-0.0961,-0.1934,-0.2655,-0.3286,-0.3809,-0.479,-0.3699,-0.0843,0.2779,0.6174,0.9208,0.9562,0.9617,0.9509,0.9827,0.0,0.0,0.0,0.0,0.0,0.7738,0.7164,0.0,0.5999,0.5344,0.4591,0.0,0.0,0.0,0.0,0.2,0.1803,0.1803,0.1716,0.1716,0.2053,0.2208,0.2383,0.2733,0.273,0.2712,0.0,0.0,0.2856,0.308,0.3014,0.2926,0.2885,0.2103,0.0,0.0,0.0,0.0,0.0,0.0,0.0,0.0,0.0,0.0,0.0,0.0,0.0,0.0,0.0,0.0,0.0,0.0,0.0,0.0,0.0,0.0,0.0,0.0,0.0,0.0,0.0,0.0,0.0,0.0,0.0,0.0202,0.2914,0.4016,0.4216,0.693,0.8038,0.8038,0.8038,0.8038,0.8038,0.0,0.0,0.0,0.0,0.0,0.0,0.0,0.0,0.0,0.0,0.0,0.0,0.0,0.0,0.0,0.0,0.0,0.0,0.0,0.0,0.0,0.0,0.0,0.0671,0.1825,0.0817,-0.0399,-0.1747,-0.208,-0.291,-0.4239,-0.5159,-0.4055,-0.1127,0.3057,0.6602,0.9453,0.9551,0.9609,0.9666,0.9746,0.0,0.0,0.0,0.0,0.0,0.0,0.0,0.0,0.6094,0.5336,0.4543,0.4017,0.0,0.0,0.0,0.0,0.0,0.1803,0.21,0.2415,0.2432,0.2666,0.291,0.291,0.0,0.0,0.0,0.0,0.0,0.0,0.2767,0.0,0.0,0.0,0.0,0.0,0.0,0.0,0.0,0.0,0.0,0.0,0.0,0.0,0.0,0.0,0.0,0.0,0.0,0.0,0.0,0.0,0.0,0.0,0.0,0.0,0.0,0.0,0.0,0.0,0.0,0.0,0.0,0.0,0.0,0.0202,0.2914,0.4016,0.4216,0.693,0.8038,0.8038,0.8038,0.8038,0.8038,0.0,0.0,0.0,0.0,0.0,0.0,0.0,0.0,0.0,0.0,0.0,0.0,0.0,0.0,0.0,0.0,0.0,0.0,0.0,0.0,0.0,-0.0066,0.0469,0.1167,0.2034,0.1711,0.0979,-0.0157,-0.204,-0.3074,-0.3333,-0.5094,-0.3637,0.0601,0.2729,0.6094,1.0098,0.9395,0.9434,0.992,0.9708,0.0,0.0,0.0,0.0,0.0,0.0,0.0,0.0,0.6005,0.5172,0.4267,0.3729,0.0,0.0,0.0,0.0,0.0,0.1803,0.1846,0.1972,0.2189,0.2562,0.291,0.291,0.2985,0.0,0.0,0.0,0.0,0.0,0.0,0.0,0.0,0.0,0.0,0.0,0.0,0.0,0.0,0.0,0.0,0.0,0.0,0.0,0.0,0.0,0.0,0.0,0.0,0.0,0.0,0.0,0.0,0.0,0.0,0.0,0.0,0.0,0.0,0.0,0.0,0.0,0.0,0.0,0.0,0.0202,0.2914,0.4016,0.4216,0.693,0.8038,0.8038,0.8038,0.8038,0.8038,0.0,0.0,0.0,0.0,0.0,0.0,0.0,0.0,0.0,0.0,0.0,0.0,0.0,0.0,0.0,0.0,0.0,0.0,0.0,0.0,0.0,0.1216,0.1338,0.1563,0.1938,0.1992,0.129,-0.0225,-0.1832,-0.3179,-0.4343,-0.6019,-0.4338,0.0142,0.1277,0.4244,0.8435,0.8822,0.9157,0.9414,0.0,0.0,0.0,0.0,0.0,0.0,0.0,0.0,0.0,0.0,0.4604,0.3777,0.3202,0.0,0.0,0.0,0.0,0.0,0.1803,0.1809,0.1819,0.1858,0.2289,0.2736,0.2967,0.3073,0.0,0.0,0.0,0.0,0.0,0.0,0.0,0.0,0.0,0.0,0.0,0.0,0.0,0.0,0.0,0.0,0.0,0.0,0.0,0.0,0.1344,0.0995,0.1015,0.037,0.0,0.0,0.0,0.0,0.0,0.0,0.0,0.0,0.0,0.0,0.0,0.0,0.0,0.0,0.0,0.0,0.0202,0.2914,0.4016,0.4216,0.693,0.8038,0.8038,0.8038,0.8038,0.8038,0.0,0.0,0.0,0.0,0.0,0.0,0.0,0.0,0.0,0.0,0.0,0.0,0.0,0.0,0.0,0.0,0.0,0.0,0.0,0.0,0.1419,0.1781,0.1894,0.1916,0.1872,0.1686,0.0913,-0.0471,-0.1794,-0.3474,-0.5457,-0.6327,-0.4636,-0.079,0.0246,0.2973,0.6874,0.8178,0.8738,0.8784,0.0,0.0,0.0,0.0,0.0,0.0,0.0,0.0,0.0,0.0,0.0,0.0,0.0,0.0,0.0,0.1869,0.1803,0.1781,0.1692,0.1643,0.1575,0.1496,0.0,0.2414,0.2674,0.2762,0.0,0.0,0.0,0.0,0.0,0.0,0.0,0.0,0.0,0.0,0.0,0.0,0.0,0.0,0.0,0.0,0.0,0.0,0.0,0.0,0.2314,0.1705,0.1375,0.0457,0.0,0.0,0.0,0.0,0.0,0.0,0.0,0.0,0.0,0.0,0.0,0.0,0.0,0.0,0.0,0.0202,0.0605,0.3015,0.4216,0.4718,0.703,0.8038,0.8038,0.8038,0.8038,0.8038,0.0,0.0,0.0,0.0,0.0,0.0,0.0,0.0,0.0,0.0,0.0,0.0,0.0,0.0,0.0,0.0,0.0,0.0,0.0,0.0,0.2148,0.1803,0.2148,0.2263,0.2078,0.0563,-0.0147,-0.0043,-0.2197,-0.4111,-0.5838,-0.4944,-0.346,-0.1439,0.0672,0.3541,0.6842,0.759,0.8058,0.8354,0.8354,0.0,0.0,0.0,0.0,0.0,0.0,0.0,0.0,0.0,0.0,0.0,0.0,0.0,0.1825,0.1803,0.1803,0.1736,0.143,0.1158,0.0985,0.112,0.1512,0.1822,0.1737,0.1807,0.0,0.1842,0.0,0.0,0.0,0.0,0.0,0.0,0.0,0.0,0.0,0.0,0.0,0.0,0.0,0.0,0.0,0.0,0.0,0.1966,0.1845,0.1317,0.018,0.0088,0.0,0.0,0.0,0.0,0.0,0.0,0.0,0.0,0.0,0.0,0.0,0.0,0.0,0.0,0.0,0.0706,0.2012,0.3416,0.472,0.6027,0.7434,0.8038,0.8038,0.8038,0.8038,0.8038,0.0,0.0,0.0,0.0,0.0,0.0,0.0,0.0,0.0,0.0,0.0,0.0,0.0,0.0,0.0,0.0,0.0,0.0,0.0,0.2078,0.2294,0.2366,0.215,0.1809,0.1368,0.0357,-0.0594,-0.1508,-0.3026,-0.3954,-0.4242,-0.4738,-0.3298,-0.0256,0.0659,0.2785,0.574,0.6748,0.7343,0.7609,0.7528,0.7299,0.0,0.0,0.0,0.0,0.0,0.0,0.0,0.0,0.3012,0.2471,0.2084,0.1891,0.1803,0.1803,0.1803,0.1736,0.1385,0.1116,0.0855,0.0707,0.0671,0.0,0.0,0.1716,0.1718,0.1313,0.1265,0.0,0.0,0.0,0.0,0.0,0.0,0.0,0.0,0.0,0.0,0.0,0.0,0.0,0.0,0.0,0.4276,0.3847,0.2577,0.1629,0.1141,0.0431,0.0,0.0,0.0,0.0,0.0,0.0,0.0,0.0,0.0,0.0,0.0,0.0,0.0,0.0,0.0903,0.15,0.2177,0.4299,0.5525,0.6129,0.7434,0.8038,0.8038,0.8038,0.8038,0.8038,0.0,0.0,0.0,0.0,0.0,0.0,0.0,0.0,0.0,0.0,0.0,0.0,0.0,0.0,0.0,0.0,0.0,0.0,0.2518,0.2521,0.2558,0.2693,0.2462,0.1931,0.1054,0.0603,-0.0479,-0.2213,-0.2938,-0.2798,-0.1861,-0.2861,-0.1657,0.1331,0.1744,0.3143,0.5228,0.6151,0.6634,0.6758,0.6701,0.6562,0.0,0.0,0.0,0.0,0.0,0.0,0.0,0.0,0.2622,0.215,0.1891,0.1803,0.1803,0.1803,0.1803,0.1714,0.1294,0.105,0.0808,0.0366,0.0,0.0,0.0931,0.1157,0.1111,0.0706,0.0798,0.0,0.0,0.0,0.0,0.0,0.0,0.0,0.0,0.0,0.0,0.0,0.0,0.0,0.0,0.0,0.473,0.4144,0.2629,0.1614,0.1226,0.0427,0.0,0.0,0.0,0.0,0.0,0.0,0.0,0.0,0.0,0.0,0.0,0.04,0.0601,0.0693,0.2001,0.2895,0.3454,0.5198,0.6232,0.6734,0.7637,0.8038,0.8038,0.8038,0.8038,0.8038,0.0,0.0,0.0,0.0,0.0,0.0,0.0,0.0,0.0,0.0,0.0,0.0,0.0,0.0,0.0,0.0,0.0,0.0,0.2896,0.3031,0.2991,0.2714,0.322,0.2816,0.135,0.1257,0.0223,-0.1781,-0.1576,-0.0588,0.1127,0.1189,0.1908,0.3196,0.4168,0.4954,0.5534,0.5873,0.5909,0.5823,0.5935,0.5796,0.549,0.0,0.0,0.0,0.0,0.0,0.0,0.0,0.2481,0.215,0.1891,0.1803,0.1803,0.1803,0.1806,0.1673,0.1072,0.0902,0.0745,0.0,0.0,0.0,0.0,0.0,0.0,0.0,0.0,0.0881,0.0118,0.0,0.0,0.0,0.0,0.0,0.0,0.0,0.0,0.0,0.0,0.0,0.0,0.4876,0.4057,0.1989,0.1782,0.1283,0.009,0.0,0.0,0.0,0.0,0.0,0.0,0.0,0.0,0.0,0.0,0.0,0.0098,0.1397,0.2012,0.2112,0.3414,0.482,0.6027,0.6029,0.6833,0.8038,0.8038,0.8038,0.8038,0.8038,0.8038,0.8038,0.0,0.0,0.0,0.0,0.0,0.0,0.0,0.0,0.0,0.0,0.0,0.0,0.0,0.0,0.0,0.0,0.0,0.0,0.2677,0.2954,0.3151,0.3269,0.3247,0.3093,0.2858,0.2044,0.1088,0.0022,-0.0111,0.0858,0.2777,0.2277,0.3804,0.6908,0.5649,0.5687,0.6667,0.6159,0.5909,0.5845,0.5501,0.5425,0.545,0.0,0.0,0.0,0.0,0.0,0.0,0.0,0.0,0.0,0.1825,0.1803,0.1803,0.1803,0.1859,0.1868,0.1501,0.1211,0.0,0.0569,0.0,0.0,0.0,0.0,0.0,0.0,0.0179,0.0415,0.0727,0.0,0.0,0.0,0.0,0.0,0.0,0.0,0.0,0.0,0.0,0.0,0.0,0.4051,0.3063,0.1736,0.0973,0.0406,0.0,0.0,0.0,0.0,0.0,0.0,0.0,0.0,0.0,0.0,0.0,0.0469,0.125,0.1761,0.2448,0.3387,0.4767,0.5584,0.6113,0.6997,0.7637,0.8038,0.8038,0.8038,0.8038,0.8038,0.8038,0.8038,0.0,0.0,0.0,0.0,0.0,0.0,0.0,0.0,0.0,0.0,0.0,0.0,0.0,0.0,0.0,0.0,0.0,0.0,0.0,0.3151,0.3338,0.3485,0.3247,0.3129,0.3178,0.2621,0.2276,0.2181,0.1751,0.292,0.5512,0.4552,0.5854,0.8902,0.6833,0.6457,0.7318,0.6103,0.559,0.5539,0.5117,0.504,0.5127,0.0,0.0,0.0,0.0,0.0,0.0,0.0,0.0,0.0,0.1648,0.1607,0.1582,0.1471,0.1502,0.1496,0.1192,0.0,0.0,0.0501,0.0206,0.0,0.0,0.0,0.0,0.0,0.0,0.0,0.0,0.0,0.0,0.0,0.0,0.0,0.0,0.0,0.0,0.0,0.0,0.0,0.4006,0.3057,0.2076,0.1055,0.0401,0.0,0.0,0.0,0.0,0.0,0.0,0.0,0.0,0.0515,0.0701,0.073,0.1186,0.2018,0.3251,0.2887,0.3384,0.4561,0.6079,0.6741,0.6822,0.77,0.8038,0.8038,0.8038,0.8038,0.8038,0.8038,0.8038,0.8038,0.0,0.0,0.0,0.0,0.0,0.0,0.0,0.0,0.0,0.0,0.0,0.0,0.0,0.0,0.0,0.0,0.0,0.0,0.0,0.0,0.3555,0.3534,0.3302,0.3045,0.2783,0.3087,0.3614,0.4361,0.376,0.5184,0.8455,0.7321,0.7767,0.9495,0.7671,0.7177,0.759,0.5904,0.5194,0.5156,0.4905,0.478,0.4702,0.4435,0.0,0.0,0.0,0.0,0.0,0.0,0.0,0.0,0.1452,0.1321,0.1252,0.1005,0.0919,0.085,0.0546,0.0,0.0,0.0108,0.0043,0.0,0.0,0.0,0.0,0.0,0.0,0.0,0.0,0.0,0.0,0.0,0.0,0.0,0.0,0.0,0.0,0.0,0.0,0.0,0.2866,0.2044,0.1131,0.0081,0.0,0.0,0.0,0.0,0.0081,0.0162,0.0162,0.0164,0.0168,0.134,0.1883,0.179,0.3031,0.4188,0.5369,0.4553,0.4724,0.5897,0.7263,0.7896,0.8038,0.8038,0.8038,0.8038,0.8038,0.8038,0.8038,0.8038,0.8038,0.8038,0.0,0.0,0.0,0.0,0.0,0.0,0.0,0.0,0.0,0.0,0.0,0.0,0.0,0.0,0.0,0.0,0.0,0.0,0.0,0.0,0.4042,0.3822,0.375,0.3607,0.3338,0.3994,0.4528,0.4852,0.4696,0.5665,0.7644,0.7425,0.8054,0.9299,0.7962,0.7487,0.7625,0.6467,0.5868,0.5734,0.5657,0.5388,0.4982,0.4718,0.4187,0.0,0.0,0.0,0.0,0.0,0.0,0.0,0.1718,0.1519,0.1296,0.123,0.1146,0.1049,0.0967,0.0783,0.0,0.0,0.0292,0.0,0.0,0.0,0.0,0.0,0.0,0.0,0.0,0.0,0.0,0.0,0.0,0.0,0.0,0.0,0.0,0.0,0.0,0.3829,0.2034,0.1678,0.1161,0.0079,0.0,0.0,0.0,0.0,0.0396,0.1264,0.1264,0.1289,0.1258,0.2305,0.2443,0.179,0.2901,0.4132,0.5364,0.5344,0.6059,0.7376,0.7697,0.7896,0.8038,0.8038,0.8038,0.8038,0.8038,0.8038,0.8038,0.8038,0.8038,0.8038,0.0,0.0,0.0,0.0,0.0,0.0,0.0,0.0,0.0,0.0,0.0,0.0,0.0,0.0,0.0,0.0,0.0,0.0,0.0,0.0,0.4244,0.4092,0.4225,0.425,0.4175,0.4872,0.5392,0.5709,0.5942,0.663,0.7737,0.8392,0.9207,1.0069,0.9022,0.8487,0.8285,0.6958,0.613,0.5716,0.5716,0.5382,0.4884,0.4609,0.4086,0.3452,0.3029,0.0,0.0,0.0,0.0,0.0,0.0,0.0,0.1274,0.1141,0.0944,0.0774,0.0757,0.0,0.0,0.0385,0.0,0.0,0.0,0.0,0.0,0.0,0.0,0.0,0.0,0.0,0.0,0.0,0.0,0.0,0.0,0.0,0.0,0.0,0.0,0.2541,0.1525,0.1043,0.0608,0.0077,0.0,0.0,0.0,0.0471,0.102,0.1568,0.2035,0.2307,0.2307,0.3419,0.3729,0.3296,0.4504,0.5513,0.6251,0.632,0.6869,0.7706,0.7631,0.7726,0.7929,0.7929,0.7974,0.8038,0.8038,0.8038,0.8038,0.8038,0.8038,0.8038,0.0,0.0,0.0,0.0,0.0,0.0,0.0,0.0,0.0,0.0,0.0,0.0,0.0,0.0,0.0,0.0,0.0,0.0,0.0,0.0,0.0,0.4549,0.4815,0.5015,0.5145,0.5729,0.6236,0.6693,0.7093,0.7723,0.8524,0.9375,1.0132,1.0727,0.9859,0.9275,0.8829,0.7263,0.6218,0.5632,0.5651,0.5313,0.4753,0.4616,0.4145,0.3553,0.322,0.275,0.2279,0.2156,0.0,0.0,0.0,0.0,0.1252,0.1027,0.0736,0.0477,0.0492,0.0,0.0067,0.0127,0.0096,0.0,0.0,0.0,0.0,0.0,0.0,0.0,0.0,0.0,0.0,0.0,0.0,0.0,0.0,0.0,0.0,0.0,0.0,0.1218,0.1108,0.0436,0.0,0.0,0.0154,0.0312,0.0312,0.1246,0.1951,0.2113,0.2957,0.3383,0.3397,0.4515,0.506,0.4944,0.6257,0.699,0.7105,0.7129,0.7295,0.7553,0.7424,0.7526,0.7773,0.7773,0.7865,0.8001,0.8001,0.8018,0.8038,0.8038,0.8038,0.8038,0.0,0.0,0.0,0.0,0.0,0.0,0.0,0.0,0.0,0.0,0.0,0.0,0.0,0.0,0.0,0.0,0.0,0.0,0.5736,0.0,0.0,0.56,0.5808,0.5995,0.62,0.6677,0.7109,0.746,0.7621,0.8558,1.0166,0.929,0.9198,0.9749,0.8933,0.8447,0.8169,0.7066,0.6419,0.6116,0.6285,0.5837,0.5077,0.5468,0.4903,0.3873,0.3297,0.29,0.2555,0.2031,0.1828,0.0,0.0,0.0,0.1296,0.1252,0.105,0.0841,0.0,0.0,0.0416,0.0,0.0,0.0,0.0,0.0,0.0,0.0,0.0,0.0,0.0,0.0,0.0,0.0,0.0,0.0,0.0,0.0,0.0,0.0,0.1877,0.1008,0.0271,0.007,0.0,0.0,0.0824,0.1367,0.1367,0.2275,0.3213,0.4217,0.4284,0.4332,0.4449,0.5556,0.5704,0.4944,0.6257,0.6939,0.6959,0.7085,0.7238,0.74,0.738,0.7468,0.7628,0.7628,0.7712,0.7841,0.7841,0.7923,0.8038,0.8038,0.8038,0.8038,0.0,0.0,0.0,0.0,0.0,0.0,0.0,0.0,0.0,0.0,0.0,0.0,0.0,0.0,0.0,0.6259,0.6254,0.6235,0.6235,0.6199,0.629,0.652,0.6542,0.6803,0.7329,0.7508,0.7816,0.8223,0.8249,0.0,0.0,1.0024,1.0729,1.2529,1.1535,1.0808,1.0189,0.7872,0.6606,0.6181,0.6,0.5421,0.4692,0.5086,0.4603,0.3688,0.3501,0.3206,0.2879,0.2532,0.2246,0.2019,0.2019,0.0,0.0,0.0,0.1361,0.0,0.0936,0.0665,0.0438,0.0,0.0,0.0,0.0,0.0,0.0,0.0,0.0,0.0,0.0,0.0,0.0,0.0,0.0,0.0,0.0,0.0,0.0,0.0,0.105,0.0438,0.0067,0.0,0.0208,0.071,0.1166,0.1627,0.2216,0.3101,0.3957,0.4589,0.5072,0.5442,0.5556,0.6058,0.6126,0.5834,0.6391,0.6763,0.6929,0.6993,0.7102,0.7241,0.7241,0.7377,0.76,0.76,0.7733,0.794,0.794,0.798,0.8038,0.8038,0.8038,0.8038,0.0,0.0,0.0,0.0,0.0,0.0,0.0,0.0,0.0,0.0,0.0,0.0,0.0,0.0,0.0,0.0,0.6704,0.6674,0.6674,0.675,0.694,0.7258,0.7268,0.7556,0.824,0.825,0.8459,0.8874,0.0,0.0,1.1022,1.0983,1.227,0.0,1.3328,1.2198,0.0,0.8413,0.6881,0.6162,0.5676,0.5054,0.4455,0.4736,0.4384,0.3727,0.3755,0.0,0.0,0.0,0.0,0.0,0.0,0.0,0.0,0.0,0.0,0.0,0.0,0.0,0.0555,0.0663,0.0,0.0,0.0,0.0,0.0,0.0,0.0,0.0,0.0,0.0,0.0,0.0,0.0,0.0,0.0,0.0,0.0,0.0,0.0466,0.0,0.0,0.0197,0.0537,0.1242,0.176,0.2283,0.3018,0.4025,0.4654,0.4842,0.5522,0.6047,0.62,0.624,0.6315,0.642,0.6454,0.6593,0.6814,0.6895,0.6987,0.7088,0.7126,0.7272,0.7485,0.7526,0.7695,0.7929,0.7967,0.8004,0.8038,0.8038,0.8038,0.8038,0.0,0.0,0.0,0.0,0.0,0.0,0.0,0.0,0.0,0.0,0.0,0.0,0.6789,0.6851,0.6941,0.7156,0.7156,0.7156,0.7156,0.7402,0.7606,0.7767,0.8055,0.0,0.866,0.8858,0.9077,0.9354,0.0,0.0,1.1397,1.1955,1.2799,1.3793,1.2333,1.0601,0.8741,0.0,0.0,0.6159,0.5623,0.5147,0.4803,0.0,0.0,0.0,0.0,0.0,0.0,0.0,0.0,0.0,0.0,0.0,0.0,0.0,0.0,0.0,0.0,0.1232,0.0,0.0,0.0,0.0,0.0,0.0,0.0,0.0,0.0,0.0,0.0,0.0,0.0,0.0,0.0,0.0,0.0,0.0,0.0,0.0,0.0423,0.0,0.0,0.0608,0.1097,0.1272,0.2887,0.3944,0.4119,0.5038,0.5594,0.5734,0.5813,0.5888,0.604,0.6186,0.6342,0.6352,0.641,0.6481,0.6505,0.6797,0.6932,0.6946,0.7082,0.7149,0.7177,0.7322,0.7478,0.7638,0.777,0.7913,0.8038,0.8038,0.8038,0.8038,0.0,0.0,0.0,0.0,0.0,0.0,0.0,0.0,0.0,0.0,0.0,0.0,0.0,0.7247,0.7501,0.7577,0.7826,0.7973,0.7973,0.8047,0.821,0.8434,0.8473,0.8676,0.9067,0.9153,0.9329,0.9599,0.0,1.014,1.1337,1.142,1.1674,1.2052,1.2004,1.1478,1.0521,0.8452,0.0,0.0,0.0,0.0,0.0,0.0,0.0,0.0,0.0,0.0,0.0,0.0,0.0,0.0,0.0,0.0,0.0,0.0,0.0,0.0,0.0,0.0,0.0,0.0,0.0,0.0,0.0,0.0,0.0,0.0,0.0,0.0,0.0,0.0,0.0,0.0,0.0,0.0,0.0,0.0,0.0,0.0,0.0173,0.0177,0.0656,0.092,0.1371,0.1995,0.3197,0.3939,0.4038,0.4982,0.5511,0.5661,0.5664,0.5735,0.5881,0.6037,0.6112,0.6115,0.6264,0.6383,0.6474,0.6586,0.6742,0.6932,0.6983,0.7112,0.7292,0.735,0.7516,0.774,0.779,0.7906,0.8038,0.8038,0.8038,0.8038,0.0,0.0,0.0,0.0,0.0,0.0,0.0,0.0,0.0,0.0,0.0,0.0,0.0,0.0,0.794,0.8053,0.8316,0.848,0.8539,0.8539,0.8778,0.931,0.9027,0.9143,0.9798,0.9888,0.9852,0.9707,1.0083,1.0474,0.0,1.0742,1.0703,1.0703,1.1091,1.1089,0.0,0.0,0.0,0.6734,0.0,0.0,0.4449,0.0,0.0,0.0,0.0,0.0,0.0,0.0,0.0,0.0,0.0,0.0,0.0,0.0,0.0,0.0,0.211,0.0,0.0,0.0,0.0,0.0,0.0,0.0,0.0,0.0,0.0,0.0,0.0,0.0,0.0,0.0,0.0,0.0,0.0,0.0,0.0,0.0,0.0392,0.057,0.107,0.1551,0.2153,0.2829,0.365,0.0,0.4358,0.5038,0.5433,0.5586,0.5589,0.5657,0.58,0.5952,0.603,0.603,0.6186,0.6312,0.6403,0.6451,0.661,0.6854,0.6905,0.7068,0.7299,0.735,0.7489,0.7675,0.7773,0.7872,0.797,0.8021,0.8038,0.8038,0.0,0.0,0.0,0.0,0.0,0.0,0.0,0.0,0.0,0.8105,0.0,0.0,0.0,0.0,0.0,0.865,0.8689,0.8745,0.888,0.8897,0.9366,1.0403,0.9762,0.9857,1.0834,1.108,1.0709,0.9748,1.0839,1.0884,0.999,1.0063,1.0031,0.9905,0.9554,0.9189,0.8866,0.0,0.8215,0.6444,0.0,0.5235,0.4735,0.0,0.0,0.0,0.4476,0.4528,0.0,0.0,0.0,0.0,0.0,0.0,0.0,0.0,0.0,0.0,0.0,0.0,0.0,0.0,0.0,0.0,0.0,0.0,0.0,0.0,0.0,0.0,0.0,0.0,0.0,0.0,0.0,0.0,0.0,0.0,0.0,0.0,0.1119,0.1116,0.1169,0.25,0.3426,0.3593,0.4401,0.4948,0.5061,0.5289,0.543,0.5579,0.5583,0.565,0.5786,0.5939,0.602,0.6023,0.6179,0.6257,0.6268,0.6403,0.6552,0.6709,0.6858,0.7004,0.7153,0.7302,0.7366,0.74,0.7692,0.7807,0.7831,0.7984,0.8038,0.8038,0.0,0.0,0.0,0.0,0.0,0.0,0.0,0.7973,0.8111,0.0,0.0,0.0,0.8387,0.8961,0.9691,1.0544,1.072,1.0847,1.1038,1.1139,1.1367,1.1761,1.1572,1.166,1.2094,1.1556,1.1142,1.0867,1.0598,1.0279,0.9933,0.9938,1.0112,0.0,0.9492,0.9377,0.9767,0.9095,0.0,0.0,0.6227,0.5437,0.0,0.0,0.0,0.0,0.0,0.3798,0.3845,0.0,0.3572,0.3506,0.0,0.0,0.0,0.0,0.0,0.0,0.2321,0.0,0.0,0.0,0.0,0.0,0.0,0.0,0.0,0.0,0.0,0.0,0.0,0.0,0.0,0.0,0.0,0.0,0.0,0.0,0.0,0.0,0.1118,0.1507,0.2569,0.3072,0.3421,0.0,0.4429,0.4723,0.4338,0.5032,0.5449,0.5423,0.5423,0.5443,0.5484,0.5637,0.5762,0.5867,0.602,0.6152,0.6264,0.6302,0.6461,0.6702,0.6746,0.6905,0.7143,0.7187,0.7272,0.739,0.7584,0.7723,0.7831,0.7984,0.8038,0.8038,0.0,0.0,0.0,0.0,0.0,0.0,0.7929,0.8077,0.8238,0.0,0.0,0.0,0.8954,0.9865,1.0754,1.1414,1.1675,1.1881,1.2062,1.2196,1.2475,1.2958,1.2613,1.2656,1.316,1.2691,1.2218,1.1793,1.1364,1.106,1.0884,1.0527,1.0465,1.0613,0.0,0.0,0.0,0.0,0.0,0.0,0.6204,0.0,0.0,0.4144,0.4015,0.0,0.0,0.0,0.3967,0.3494,0.3406,0.0,0.0,0.0,0.0,0.0,0.0,0.0,0.0,0.0,0.0,0.0,0.0,0.0,0.1159,0.0842,0.0,0.0,0.0,0.0,0.0,0.0,0.0,0.0,0.0,0.0,0.0,0.0,0.0,0.0,0.2065,0.2399,0.3239,0.363,0.384,0.3941,0.4546,0.4797,0.4564,0.5114,0.5428,0.5428,0.5428,0.5428,0.5428,0.5511,0.5633,0.5715,0.5928,0.6078,0.6166,0.623,0.642,0.6698,0.6634,0.681,0.7136,0.7078,0.7139,0.7295,0.7516,0.7651,0.775,0.796,0.8038,0.8038,0.0,0.0,0.0,0.7936,0.8052,0.8077,0.7944,0.8196,0.8402,0.0,0.8667,0.9163,0.9996,1.0928,1.1597,1.186,1.2156,1.2415,1.2598,1.2744,1.3179,1.4013,1.3311,1.3281,1.4137,1.4059,1.3549,1.2633,1.261,1.2447,1.214,1.1368,1.0875,1.0652,0.0,0.0,0.0,0.0,0.0,0.7012,0.5969,0.5262,0.0,0.0,0.4282,0.0,0.4108,0.4255,0.4487,0.3462,0.3242,0.0,0.0,0.0,0.0,0.0,0.3895,0.0,0.0,0.0,0.0,0.0,0.0,0.0,0.156,0.1156,0.0737,0.0,0.0,0.0,0.0,0.0,0.0,0.0,0.0,0.0,0.0,0.0,0.0,0.0,0.0,0.3456,0.3511,0.4125,0.4525,0.4543,0.4787,0.5078,0.5318,0.5415,0.5428,0.5428,0.5428,0.5428,0.5428,0.5498,0.5572,0.5593,0.5871,0.6013,0.6183,0.6266,0.6493,0.6829,0.661,0.6715,0.7105,0.698,0.701,0.717,0.7461,0.7577,0.7611,0.7906,0.8014,0.8014,0.0,0.0,0.0,0.8097,0.8214,0.827,0.8092,0.8255,0.846,0.8616,0.9281,1.0274,1.1654,1.1992,1.2531,1.3523,1.3769,1.4061,1.4513,1.4684,1.4835,1.501,1.4862,1.4867,1.5043,1.4367,1.3855,1.3558,1.2859,1.2097,1.1253,1.1075,1.0813,1.0438,0.0,0.0,0.0,0.0,0.0,0.7099,0.6255,0.0,0.4885,0.4254,0.3907,0.3745,0.3632,0.3665,0.3687,0.0,0.2989,0.2923,0.0,0.0,0.0,0.0,0.0,0.0,0.0,0.0,0.0,0.0,0.0,0.0,0.2039,0.1899,0.1737,0.0,0.0,0.0,0.0,0.0,0.0,0.0,0.0,0.0,0.0,0.0,0.0,0.0,0.0,0.3624,0.4236,0.4405,0.457,0.4636,0.4938,0.5118,0.5185,0.5339,0.5428,0.5428,0.5428,0.5428,0.5428,0.5459,0.5467,0.5593,0.5766,0.6343,0.7208,0.6565,0.682,0.7701,0.6882,0.6661,0.6966,0.6939,0.701,0.7156,0.7343,0.7414,0.7451,0.7746,0.7855,0.7855,0.0,0.0,0.0,0.8254,0.8361,0.8404,0.8151,0.8263,0.8612,0.9174,1.0352,1.1475,1.2307,1.2824,1.3425,1.4175,1.4404,1.4663,1.5064,1.5168,1.5229,1.5296,1.5293,1.5268,1.5195,1.4736,1.4455,1.4359,1.344,1.2743,1.2233,1.2086,1.1251,0.9924,1.0394,0.0,0.0,0.0,0.7542,0.7315,0.5777,0.0,0.4447,0.3955,0.365,0.3506,0.3506,0.333,0.3111,0.3175,0.3164,0.0,0.0,0.3749,0.4413,0.0,0.4516,0.4361,0.0,0.0,0.0,0.3107,0.0,0.0,0.0,0.2164,0.2007,0.1665,0.144,0.0,0.0,0.0,0.0,0.0,0.0,0.0,0.0,0.0,0.0,0.0,0.0,0.3897,0.4294,0.4355,0.445,0.4674,0.4826,0.4935,0.4986,0.5084,0.5142,0.5142,0.5209,0.5237,0.5277,0.5377,0.5466,0.5477,0.5627,0.6054,0.6641,0.6296,0.657,0.7255,0.663,0.658,0.6922,0.6848,0.6943,0.7156,0.7312,0.737,0.7397,0.7624,0.7706,0.7716,0.8895,0.0,0.0,0.0,0.8717,0.8691,0.845,0.8415,0.8795,0.9901,1.1124,1.2041,1.2456,0.0,0.0,0.0,1.4072,1.4263,0.0,0.0,0.0,1.4709,1.5036,1.5036,1.4614,1.4852,1.4933,1.4856,1.407,1.3568,1.3406,1.3034,1.1729,0.0,0.0,0.0,0.0,0.0,0.0,0.7233,0.0,0.4369,0.423,0.3762,0.3597,0.3584,0.3468,0.3111,0.2751,0.3028,0.0,0.3324,0.3138,0.414,0.0,0.0,0.0,0.0,0.0,0.0,0.0,0.0,0.0,0.2951,0.0,0.0,0.0,0.2146,0.0,0.0,0.0,0.0,0.0,0.0,0.0,0.0,0.0,0.0,0.0,0.0,0.4019,0.403,0.418,0.4197,0.4304,0.4626,0.4674,0.4745,0.4867,0.4904,0.4918,0.4918,0.503,0.5081,0.5123,0.542,0.5588,0.5686,0.5958,0.619,0.6301,0.625,0.6398,0.6738,0.6464,0.6498,0.6875,0.6753,0.6875,0.7153,0.7278,0.7326,0.7346,0.7499,0.7577,0.7614,0.9299,0.9623,0.0,0.0,0.9612,0.9439,0.9593,0.892,0.9015,1.0735,1.0654,0.0,0.0,0.0,0.0,0.0,0.0,0.0,1.4672,0.0,0.0,1.2565,1.4098,1.4276,1.2825,1.4195,1.4844,1.4722,1.4437,1.3869,1.304,1.2592,1.1774,0.0,0.983,0.0,0.0,0.0,0.6858,0.0,0.5301,0.5061,0.0,0.4283,0.3938,0.3868,0.3333,0.2961,0.2684,0.0,0.2641,0.2898,0.0,0.3923,0.4373,0.0,0.0,0.0,0.0,0.0,0.0,0.0,0.3791,0.0,0.0,0.0,0.3195,0.3017,0.0,0.0,0.0,0.0,0.0,0.0,0.0,0.0,0.0,0.0,0.0,0.0,0.4019,0.403,0.418,0.4197,0.4314,0.4532,0.4613,0.4697,0.4714,0.4847,0.4918,0.4918,0.4935,0.4982,0.5123,0.5868,0.6353,0.6572,0.7494,0.8053,0.8282,0.7475,0.7305,0.7581,0.6729,0.6437,0.6725,0.6709,0.6875,0.7143,0.716,0.7166,0.7183,0.7339,0.7485,0.76,0.9699,0.9738,0.0,0.0,0.935,0.9344,0.9737,1.0288,1.0942,1.1694,0.0,0.0,0.0,0.0,0.0,0.0,0.0,1.3111,0.0,0.0,0.0,0.0,0.0,0.0,1.3449,1.4209,1.4488,1.4245,1.416,1.3592,1.2591,1.2785,1.177,0.0,0.9533,0.0,0.7928,0.0,0.0,0.0,0.0,0.0,0.0,0.444,0.4104,0.4153,0.3638,0.3266,0.2989,0.0,0.2927,0.0,0.0,0.0,0.0,0.0,0.0,0.0,0.0,0.0,0.0,0.0,0.0,0.0,0.3375,0.0,0.3249,0.0,0.0,0.0,0.0,0.0,0.0,0.0,0.2893,0.0,0.0,0.0,0.0,0.0,0.0,0.0,0.405,0.4066,0.4127,0.4328,0.4395,0.447,0.4555,0.4619,0.4653,0.4653,0.4741,0.511,0.5715,0.6154,0.6777,0.7464,0.7902,0.7942,0.7712,0.7253,0.7029,0.6865,0.6391,0.6295,0.6569,0.6569,0.6746,0.7017,0.7017,0.7068,0.716,0.7316,0.7411,0.7492,1.0053,0.0,0.0,0.0,0.0,0.0,0.0,0.0,0.0,0.0,0.0,0.0,1.3819,1.3911,0.0,0.0,0.0,1.2536,0.0,0.0,1.2324,0.0,0.0,0.0,0.0,0.0,1.4005,1.3702,1.372,1.3295,1.2473,1.2738,1.1728,0.9726,0.0,0.8542,0.7302,0.0,0.0,0.618,0.5992,0.5791,0.55,0.4582,0.4289,0.4349,0.3945,0.3564,0.3252,0.2891,0.3379,0.0,0.364,0.0,0.0,0.0,0.0,0.0,0.6148,0.0,0.0,0.0,0.0,0.0,0.0,0.0,0.0,0.0,0.0,0.0,0.0,0.0,0.0,0.0,0.0,0.3904,0.0,0.0,0.0,0.0,0.0,0.0,0.0,0.3958,0.4036,0.418,0.4197,0.4311,0.4512,0.4519,0.4519,0.4519,0.4791,0.535,0.62,0.6759,0.7453,0.835,0.8586,0.8358,0.7766,0.7462,0.7052,0.6569,0.6197,0.6388,0.6947,0.6947,0.7058,0.735,0.735,0.7187,0.7153,0.7265,0.7363,0.7465,1.0371,1.1186,0.0,0.0,0.0,0.0,0.0,0.0,0.0,0.0,0.0,0.0,0.0,0.0,0.0,0.0,0.0,0.898,1.1032,0.0,0.9576,0.0,0.0,1.215,0.0,0.0,1.343,1.321,1.3278,1.3177,1.2857,1.2116,1.1689,1.1518,0.9318,0.8448,0.8513,0.6771,0.58,0.5423,0.5423,0.5193,0.4814,0.0,0.4615,0.4376,0.4078,0.0,0.0,0.3651,0.3768,0.0,0.0,0.0,0.0,0.0,0.0,0.0,0.0,0.0,0.0,0.5112,0.0,0.0,0.0,0.0,0.3568,0.0,0.0,0.0,0.0,0.0,0.0,0.0,0.0,0.0,0.0,0.0,0.0,0.0,0.0,0.0,0.0,0.3799,0.3924,0.4174,0.4197,0.4311,0.4512,0.4519,0.4519,0.4519,0.5117,0.572,0.62,0.7735,0.8769,0.9289,1.0129,1.0122,0.9388,0.8646,0.795,0.7208,0.6565,0.6954,0.7965,0.7965,0.8106,0.8361,0.8361,0.7868,0.7139,0.7146,0.7336,0.7594,0.0,0.0,0.0,0.0,0.0,0.0,0.0,1.29,0.0,0.0,0.0,0.0,0.0,0.0,1.1696,0.0,0.0,0.9776,0.9839,1.012,0.0,0.0,0.0,1.1861,0.0,0.0,1.245,1.181,1.2293,1.2141,1.1428,1.1427,1.1214,1.0773,0.0,0.7962,0.0,0.0,0.0,0.0,0.0,0.5502,0.511,0.0,0.0,0.4924,0.4254,0.3889,0.0,0.3528,0.3607,0.3908,0.4426,0.485,0.523,0.5498,0.5564,0.0,0.0,0.0,0.4631,0.5074,0.0,0.0,0.0,0.0,0.0,0.0,0.0,0.0,0.0,0.0,0.0,0.0,0.0,0.0,0.0,0.0,0.0,0.0,0.0,0.0,0.0,0.0,0.0,0.4623,0.43,0.4202,0.4505,0.4519,0.468,0.5164,0.5378,0.6258,0.7746,0.8339,0.9108,1.0199,1.0613,1.0454,0.9753,0.9563,0.9185,0.8576,0.8286,0.8449,0.8865,0.8865,0.8643,0.8259,0.8259,0.7769,0.7153,0.7255,0.736,0.7478,1.3297,0.0,0.0,0.0,0.0,0.0,0.0,0.0,0.0,0.0,1.325,0.0,1.2081,0.0,1.0836,0.0,0.9335,0.9292,0.8976,0.9428,0.0,0.9209,1.0449,0.0,0.0,0.0,0.0,1.0391,1.109,1.1137,1.056,1.0698,1.0558,1.0134,0.0,0.7923,0.6677,0.0,0.5843,0.0,0.0,0.5585,0.0,0.0,0.5177,0.5353,0.0,0.4253,0.3993,0.3816,0.3754,0.3831,0.4314,0.4774,0.5234,0.5483,0.5724,0.5932,0.627,0.5691,0.0,0.5137,0.4435,0.0,0.3715,0.0,0.0,0.0,0.0,0.0,0.0,0.0,0.0,0.0,0.0,0.0,0.0,0.5739,0.0,0.0,0.0,0.0,0.0,0.0,0.4862,0.5264,0.4709,0.4452,0.4824,0.4838,0.5054,0.5483,0.6101,0.7151,0.8604,0.8942,0.9695,1.0715,1.0902,1.0801,1.0441,1.0259,0.9984,0.9691,0.9332,0.9458,0.982,0.982,0.9627,0.9299,0.8896,0.8303,0.768,0.7431,0.736,0.7489,0.0,0.0,0.0,0.0,1.5027,0.0,0.0,0.0,1.3774,0.0,1.2498,1.1729,1.0971,0.9705,0.8781,0.8404,0.7573,0.0,0.8328,0.8498,0.0,0.0,0.8608,0.8334,0.661,0.0,0.0,0.0,0.0,1.0157,1.0186,0.9892,0.9749,0.9746,0.9548,0.0,0.6308,0.6838,0.6098,0.4625,0.5121,0.5478,0.5705,0.5431,0.5504,0.5643,0.5346,0.4728,0.4089,0.4442,0.4121,0.3663,0.408,0.4692,0.5259,0.5297,0.5708,0.6256,0.6493,0.6138,0.5606,0.5338,0.0,0.0,0.0,0.0,0.3602,0.0,0.0,0.0,0.0,0.0,0.0,0.0,0.0,0.0,0.0,0.0,0.0,0.0,0.0,0.0,0.0,0.5346,0.5534,0.5993,0.5345,0.5111,0.0,0.5487,0.5487,0.5487,0.7184,0.8234,0.8604,0.9541,1.0345,1.0995,1.1009,1.1169,1.1388,1.0812,1.0497,1.0437,0.9723,0.997,1.0858,1.0858,1.1094,1.1404,1.0191,0.9308,0.8715,0.7492,0.7333,0.7607,1.3594,1.4459,1.549,0.0,1.558,1.4864,0.0,0.0,0.0,0.0,1.1489,1.045,0.9195,0.8356,0.7522,0.6648,0.6758,0.0,0.0,0.0,0.0,0.6626,0.7636,0.7598,0.6259,0.7993,0.0,0.7106,0.0,0.0,0.8386,0.8831,0.905,0.9054,0.0,0.0,0.5879,0.6321,0.5716,0.4519,0.5275,0.5778,0.0,0.0,0.5855,0.5609,0.4787,0.4468,0.4396,0.4113,0.3668,0.3365,0.4108,0.4558,0.4867,0.5179,0.5708,0.6209,0.6283,0.5716,0.5117,0.5129,0.4544,0.3947,0.0,0.0,0.0,0.0,0.0,0.0,0.0,0.0,0.0,0.0,0.0,0.0,0.0,0.0,0.0,0.7355,0.0,0.0,0.0,0.6215,0.6163,0.6555,0.6067,0.5664,0.5521,0.0,0.5487,0.5487,0.6122,0.713,0.861,0.8981,0.9762,1.0995,1.1209,1.147,1.1764,1.1834,1.1812,1.1819,1.1594,1.17,1.1922,1.1922,1.1719,1.1404,1.0191,0.8804,0.7492,0.7228,0.7261,0.7434,1.4787,0.0,0.0,1.6912,0.0,0.0,1.4099,0.0,0.0,1.1204,1.0511,0.0,0.8166,0.7191,0.6425,0.5955,0.5996,0.0,0.6726,0.0,0.0,0.6472,0.6612,0.6227,0.5245,0.6468,0.0,0.6144,0.0,0.0,0.7969,0.8386,0.8574,0.0,0.0,0.8122,0.0,0.6171,0.5907,0.5562,0.5664,0.0,0.0,0.5938,0.5833,0.5745,0.4534,0.4167,0.419,0.3893,0.352,0.3338,0.4086,0.4576,0.5009,0.5545,0.6101,0.6567,0.6734,0.6137,0.5455,0.548,0.4839,0.416,0.4034,0.4019,0.4019,0.0,0.0,0.0,0.0,0.0,0.0,0.0,0.0,0.0,0.0,0.0,0.0,0.0,0.0,0.0,0.0,0.6725,0.6693,0.7062,0.6633,0.6166,0.5827,0.0,0.5814,0.5487,0.6721,0.7789,0.861,0.9636,1.0501,1.1182,1.1476,1.1777,1.2064,1.2225,1.2305,1.2305,1.2305,1.2305,1.2311,1.2445,1.2376,1.2086,1.0661,0.9204,0.7841,0.7316,0.7238,0.7461,0.0,0.0,0.0,0.0,0.0,0.0,0.0,1.3541,0.0,0.9648,0.0,0.8748,0.7336,0.6121,0.5479,0.5667,0.0,0.5633,0.7038,0.5866,0.5514,0.648,0.557,0.472,0.3991,0.4744,0.0,0.0,0.0,0.0,0.8228,0.8319,0.0,0.0,0.0,0.0,0.0,0.6384,0.6385,0.6825,0.6187,0.6206,0.6527,0.5734,0.5688,0.5933,0.4554,0.3975,0.3852,0.3813,0.3596,0.342,0.3957,0.4669,0.5435,0.5967,0.6594,0.7194,0.7455,0.6893,0.6163,0.6022,0.5328,0.4506,0.4118,0.4063,0.4077,0.4077,0.4063,0.4203,0.0,0.0,0.0,0.0,0.0,0.0,0.0,0.0,0.0,0.0,0.0,0.0,0.0,0.0,0.7188,0.7493,0.7164,0.6749,0.0,0.0,0.6312,0.5651,0.7859,0.8974,0.8717,1.0622,1.1613,1.1543,1.1616,1.1873,1.2305,1.215,1.215,1.2305,1.2305,1.2305,1.2325,1.2625,1.2875,1.2907,1.1387,1.0096,0.8973,0.7925,0.7667,0.7967,0.0,0.0,0.0,0.0,0.0,1.1841,1.2425,1.1154,0.952,0.7848,0.708,0.6354,0.5593,0.5117,0.4779,0.4588,0.4695,0.0,0.0,0.0,0.0,0.5059,0.4871,0.4338,0.3377,0.4664,0.5067,0.0,0.0,0.0,0.7751,0.8512,0.0,0.0,0.0,0.0,0.7963,0.719,0.0,0.6314,0.6869,0.6905,0.6574,0.6185,0.5886,0.551,0.4626,0.4324,0.4213,0.3799,0.3604,0.3585,0.3669,0.4612,0.5666,0.5757,0.6734,0.7736,0.7836,0.6949,0.6022,0.6003,0.5144,0.4278,0.4202,0.43,0.444,0.444,0.429,0.4397,0.5259,0.0,0.0,0.0,0.0,0.0,0.0,0.0,0.0,0.0,0.0,0.0,0.0,0.0,0.0,0.7506,0.7609,0.0,0.0,0.0,0.6534,0.0,0.6672,0.0,0.0,0.0,1.0786,1.2144,1.1147,1.1209,1.2305,1.1465,1.1539,1.2305,1.2305,1.2305,1.2325,1.2625,1.2504,1.2164,1.2041,1.1295,1.0265,1.0091,1.0028,0.9975,0.0,0.0,0.0,0.0,0.0,0.0,0.0,0.8397,0.0,0.6613,0.6555,0.6287,0.5681,0.511,0.4823,0.4951,0.4844,0.488,0.5139,0.4888,0.4739,0.476,0.4756,0.0,0.3279,0.4355,0.4933,0.4934,0.0,0.0,0.8334,0.0,0.0,0.0,0.0,0.9468,0.0,0.0,0.0,0.7436,0.7121,0.6906,0.6717,0.6099,0.5686,0.5365,0.4493,0.417,0.4144,0.3719,0.3629,0.3813,0.43,0.5133,0.5976,0.6493,0.7214,0.7867,0.7671,0.6809,0.5982,0.5798,0.4972,0.4214,0.4341,0.4412,0.4519,0.4519,0.4406,0.47,0.5855,0.6691,0.0,0.0,0.0,0.0,0.0,0.0,0.0,0.0,0.0,0.0,0.0,0.0,0.0,0.0,0.0,0.0,0.0,0.0,0.6475,0.0,0.0,0.0,0.8796,0.0,1.1237,1.2078,1.1494,1.1282,1.1539,1.1545,1.1545,1.1545,1.207,1.2392,1.2565,1.3026,1.3137,1.3021,1.2451,1.198,1.1381,1.0783,1.095,1.1381,0.0,1.6501,0.0,0.0,1.2382,0.0,0.8392,0.627,0.5057,0.5592,0.6116,0.6256,0.5794,0.5119,0.4884,0.531,0.497,0.4888,0.5324,0.4745,0.4504,0.4712,0.472,0.4331,0.3459,0.4184,0.48,0.0,0.0,0.0,0.0,0.0,0.0,0.0,0.0,0.0,0.0,0.0,0.8646,0.861,0.7499,0.6984,0.6791,0.5842,0.547,0.5277,0.433,0.4039,0.4029,0.3761,0.3748,0.4004,0.4961,0.5629,0.6255,0.7205,0.7775,0.8016,0.7733,0.6867,0.6046,0.5793,0.5015,0.4324,0.4436,0.4519,0.4519,0.4519,0.4625,0.5117,0.6367,0.7074,0.0,0.0,0.0,0.0,0.0,0.0,0.0,0.0,0.0,0.0,0.0,0.0,0.0,0.0,0.0,0.0,0.7538,0.0,0.0,0.0,0.0,0.8667,0.8881,0.0,1.181,1.2058,1.1488,1.1058,1.0789,1.1397,1.1353,1.0946,1.1938,1.2605,1.2973,1.3447,1.3814,1.3997,1.3027,1.2674,1.2589,1.1643,1.1906,1.2674,0.0,0.0,0.0,0.0,0.0,0.0,0.7533,0.5805,0.449,0.4541,0.4612,0.4629,0.4574,0.4476,0.4465,0.4496,0.4465,0.4469,0.4494,0.4431,0.4428,0.4434,0.4428,0.4294,0.393,0.4484,0.4592,0.0,0.0,0.7648,0.0,0.0,0.0,0.0,0.0,0.0,0.0,1.0157,0.957,0.8683,0.857,0.7688,0.6378,0.5723,0.536,0.5046,0.426,0.406,0.415,0.4036,0.3988,0.4094,0.4901,0.5679,0.6523,0.7265,0.8069,0.8731,0.8652,0.7617,0.6538,0.6524,0.5483,0.4501,0.4515,0.4519,0.4519,0.4519,0.5003,0.5651,0.648,0.6642,0.7182,0.0,0.0,0.0,0.0,0.0,0.0,0.0,0.0,0.0,0.0,0.9652,0.0,0.0,0.9031,0.0,0.0,0.0,0.0,0.8843,0.8932,0.9627,1.1057,1.1095,1.161,1.2659,1.0251,0.9721,1.0783,0.997,1.0171,1.123,1.2317,1.3026,1.3567,1.3539,1.3814,1.4088,1.3997,1.3913,1.3913,1.3822,1.3822,1.3913,0.0,0.0,0.0,0.0,0.0,0.0,0.0,0.4948,0.4305,0.4705,0.4546,0.4457,0.4624,0.4628,0.4815,0.5277,0.5068,0.503,0.5277,0.5068,0.4954,0.4954,0.4954,0.4714,0.4262,0.4769,0.5037,0.0,0.0,0.0,0.0,0.0,0.0,0.0,0.0,1.0118,0.9804,0.9478,0.8918,0.8201,0.7829,0.7094,0.6228,0.5831,0.5366,0.493,0.4449,0.4324,0.4419,0.4775,0.4844,0.4895,0.5475,0.6369,0.7274,0.7847,0.8416,0.8586,0.7723,0.7074,0.6372,0.5555,0.4901,0.4519,0.4519,0.4519,0.4519,0.4519,0.5386,0.6253,0.6534,0.7343,0.8103,0.0,0.0,0.0,0.0,0.0,0.0,0.0,0.0,0.0,0.0,0.0,0.0,0.0,0.0,0.0,0.0,0.0,0.0,0.8724,0.0,0.927,1.0343,1.0614,1.0953,1.131,1.0056,0.9301,0.9059,0.9814,1.0936,1.2222,1.2969,1.342,1.3661,1.3834,1.3981,1.4088,1.4088,1.4088,1.4088,1.4088,1.4088,1.4088,1.0334,0.0,0.9923,0.0,0.6936,0.6329,0.5184,0.4569,0.4396,0.4877,0.4774,0.4691,0.4803,0.4884,0.5207,0.5853,0.5634,0.5619,0.6002,0.5751,0.5603,0.5564,0.5564,0.0,0.4783,0.5169,0.5347,0.5347,0.6401,0.0,0.0,0.0,0.0,0.0,0.9843,0.9597,0.9239,0.8854,0.8373,0.7878,0.7426,0.6747,0.598,0.583,0.5349,0.4727,0.4746,0.4787,0.4893,0.5601,0.5886,0.6062,0.6375,0.7063,0.7794,0.8352,0.8651,0.8533,0.7289,0.675,0.6317,0.5113,0.4625,0.4519,0.4519,0.4519,0.457,0.4732,0.5932,0.6912,0.6912,0.7937,0.8804,0.8804,0.0,0.0,0.0,0.0,0.0,0.0,1.0167,1.0559,1.1065,1.1275,0.0,0.0,0.0,0.0,0.0,0.0,0.0,0.0,0.0,0.0,1.0049,1.0523,1.0603,1.0401,0.9859,0.899,0.7863,0.9729,1.1278,1.2518,1.3352,1.3774,1.3794,1.4001,1.4088,1.4088,1.4088,1.4088,1.4088,1.4088,1.4088,1.4088,0.9804,0.9116,0.8071,0.6912,0.6386,0.5856,0.5102,0.4881,0.4795,0.4815,0.5086,0.5156,0.4853,0.5099,0.5456,0.5861,0.5906,0.6003,0.6285,0.6301,0.6269,0.0,0.0,0.6041,0.5681,0.5681,0.5316,0.4506,0.0,0.0,0.6265,0.0,0.8725,0.8716,0.8716,0.8716,0.8724,0.8692,0.8405,0.7878,0.7911,0.6943,0.5513,0.5706,0.5125,0.4316,0.5155,0.5483,0.5597,0.6312,0.7069,0.7664,0.7664,0.7664,0.783,0.8586,0.8804,0.8646,0.7883,0.7128,0.6421,0.5651,0.5003,0.4519,0.4519,0.4519,0.4677,0.5378,0.6686,0.767,0.767,0.8321,0.8804,0.8804,0.0,0.0,0.0,0.0,0.0,0.0,1.0965,1.1765,1.1765,1.2452,0.0,0.0,0.0,0.0,0.0,0.0,0.0,0.9673,0.996,0.0,1.0989,1.0989,1.0795,1.0401,0.9306,0.8472,0.7872,0.9433,1.0761,1.1766,1.34,1.4082,1.4082,1.4088,1.4088,1.4088,1.4088,1.4088,1.4088,1.4088,1.4088,1.4088,0.7354,0.6985,0.6375,0.5315,0.5181,0.5231,0.5273,0.5,0.4971,0.548,0.5417,0.5246,0.5169,0.5239,0.5533,0.0,0.5906,0.6014,0.0,0.6371,0.6207,0.6207,0.6207,0.6162,0.6033,0.6033,0.5903,0.5648,0.0,0.0,0.0,0.8289,0.8709,0.8684,0.8692,0.848,0.816,0.8175,0.797,0.7591,0.707,0.6458,0.5793,0.5471,0.5191,0.4992,0.5371,0.5814,0.6367,0.7128,0.7503,0.7777,0.8268,0.8427,0.848,0.8752,0.8427,0.7883,0.7128,0.6421,0.571,0.5003,0.468,0.4519,0.4519,0.4838,0.5382,0.6095,0.7015,0.7723,0.7723,0.8321,0.8804,0.8804,0.8804,0.0,0.0,0.0,0.0,0.0,1.1566,1.1972,1.251,1.2295,0.0,0.0,0.0,0.0,0.0,0.0,0.0,0.0,1.0267,0.0,1.1283,1.1289,1.0628,0.9306,0.8942,0.8477,0.7868,0.9208,1.0448,1.1425,1.3027,1.3781,1.3801,1.4001,1.4088,1.4088,1.4088,1.4088,1.3997,1.3203,1.2851,1.2766,0.6248,0.5951,0.561,0.5251,0.5201,0.5294,0.5543,0.5239,0.5169,0.5603,0.5456,0.5309,0.5309,0.5386,0.0,0.6261,0.6172,0.6348,0.6917,0.6703,0.6554,0.6506,0.6506,0.6458,0.6361,0.635,0.0,0.6181,0.6588,0.7148,0.7889,0.8252,0.8399,0.8423,0.8405,0.8237,0.7896,0.7896,0.7788,0.7596,0.6859,0.6325,0.5961,0.5638,0.544,0.5405,0.607,0.6632,0.7128,0.7883,0.8103,0.8209,0.8646,0.8804,0.8804,0.8804,0.848,0.7883,0.6858,0.6258,0.571,0.4736,0.4677,0.4948,0.5226,0.5819,0.647,0.6907,0.7616,0.8103,0.8103,0.848,0.8804,0.8804,0.8804,0.8962,0.9361,0.0,0.0,0.0,0.0,0.0,0.0,1.1674,1.142,0.0,0.0,0.0,0.0,0.0,0.0,1.0107,1.0508,1.0949,1.1423,1.1536,1.0673,0.8797,0.8148,0.7811,0.7863,0.914,1.0304,1.1443,1.2943,1.3707,1.3821,1.4008,1.4088,1.4088,1.4088,1.4088,1.3997,1.3294,1.2973,1.2839,0.6233,0.5868,0.5595,0.0,0.608,0.0,0.5861,0.5533,0.5316,0.5316,0.5316,0.5347,0.5347,0.5603,0.5897,0.6288,0.0,0.0,0.0,0.7167,0.7118,0.7021,0.6979,0.6881,0.6645,0.6645,0.6506,0.6271,0.6829,0.7328,0.7912,0.791,0.7885,0.7918,0.7907,0.7882,0.7882,0.7882,0.7888,0.7867,0.713,0.6569,0.6121,0.6226,0.5931,0.5684,0.7158,0.7723,0.7883,0.8586,0.8804,0.8804,0.8804,0.8804,0.8804,0.8804,0.8752,0.8427,0.7074,0.6642,0.6258,0.4956,0.5113,0.576,0.6529,0.7182,0.7723,0.7777,0.8321,0.8804,0.8804,0.8804,0.8804,0.8804,0.8804,0.8804,0.8857,0.0,0.0,0.0,0.0,0.0,1.0821,1.0787,1.0506,0.0,0.0,0.0,0.0,0.0,1.0221,1.018,1.0748,1.1189,1.1483,1.1764,1.0947,0.8915,0.7335,0.7045,0.7979,0.9243,1.0559,1.176,1.302,1.3801,1.4055,1.4082,1.4088,1.4088,1.4088,1.4088,1.4088,1.399,1.3887,1.3728,0.0,0.0,0.5251,0.5199,0.5347,0.5456,0.5456,0.5354,0.5386,0.5564,0.5603,0.5712,0.597,0.623,0.642,0.6533,0.6587,0.6742,0.7027,0.7027,0.7027,0.7021,0.6979,0.6979,0.693,0.6881,0.6979,0.7216,0.753,0.7773,0.7911,0.7908,0.7882,0.7894,0.7902,0.7882,0.7882,0.7882,0.8023,0.8225,0.7455,0.7218,0.7248,0.6688,0.6781,0.718,0.7563,0.8062,0.8586,0.8752,0.8804,0.8804,0.8804,0.8804,0.8804,0.8804,0.8427,0.7883,0.7509,0.702,0.6534,0.6209,0.6204,0.6529,0.7289,0.7557,0.7883,0.8427,0.8699,0.8804,0.8804,0.8804,0.8804,0.8804,0.8804,0.8956,0.951,0.9718,0.0,0.0,1.0905,1.1066,1.0838,1.0556,1.0348,0.0,0.0,0.0,0.9586,1.0768,1.1249,1.0802,1.1356,1.1804,1.2091,1.2164,1.1713,1.0619,0.9441,0.9163,0.9642,1.0737,1.1364,1.176,1.302,1.3687,1.3768,1.3995,1.4088,1.4088,1.4088,1.4088,1.399,1.3043,1.2216,1.125,0.5354,0.5175,0.503,0.503,0.5169,0.5309,0.5309,0.5417,0.5533,0.5673,0.582,0.5993,0.6195,0.6448,0.6595,0.6594,0.6693,0.6833,0.6979,0.6979,0.6979,0.6979,0.7167,0.7216,0.7216,0.7356,0.7591,0.7896,0.8051,0.821,0.8318,0.8318,0.8322,0.833,0.833,0.833,0.833,0.833,0.8397,0.8504,0.7774,0.757,0.7634,0.7264,0.7367,0.7747,0.8068,0.8434,0.8804,0.8804,0.8804,0.8804,0.8804,0.8804,0.8804,0.8804,0.8533,0.8156,0.7777,0.7396,0.7128,0.7128,0.6858,0.6858,0.7943,0.8209,0.8315,0.8699,0.8804,0.8804,0.8804,0.8804,0.8804,0.8804,0.8804,0.891,0.9309,0.9361,0.9516,1.0016,1.0249,1.0346,1.0316,1.0159,1.0051,1.0051,1.0219,0.0,1.0094,1.1216,1.1597,1.1009,1.169,1.2144,1.2305,1.1842,1.139,1.1006,1.0012,0.9844,1.0512,1.119,1.1793,1.2412,1.3264,1.3721,1.3854,1.4021,1.4088,1.4088,1.4088,1.4088,1.399,1.3328,1.2354,1.123,0.5239,0.5061,0.496,0.5246,0.5309,0.5316,0.5347,0.5564,0.5738,0.5816,0.6098,0.6271,0.6319,0.6506,0.6645,0.6645,0.6881,0.6979,0.6979,0.7027,0.707,0.7021,0.7363,0.7546,0.749,0.7794,0.811,0.8396,0.842,0.8599,0.8804,0.8804,0.8804,0.8804,0.8804,0.8804,0.8804,0.8804,0.8804,0.8752,0.8121,0.7871,0.7876,0.7866,0.7884,0.7961,0.8593,0.8804,0.8804,0.8804,0.8804,0.8804,0.8804,0.8804,0.8804,0.8804,0.8804,0.8646,0.8049,0.7883,0.7883,0.7883,0.7396,0.7235,0.8533,0.8804,0.8804,0.8804,0.8804,0.8804,0.8804,0.8804,0.8804,0.8804,0.8804,0.8804,0.8804,0.0,0.8965,0.9157,0.9263,0.9472,0.9726,0.9786,0.9833,0.988,1.0381,1.0688,1.0688,1.1483,1.1683,1.1142,1.1891,1.2305,1.2305,1.1465,1.1031,1.1073,1.0251,1.029,1.1199,1.1438,1.2176,1.3353,1.3601,1.3854,1.4088,1.4088,1.4088,1.4088,1.4088,1.4088,1.4088,1.3926,1.3101,1.1916,0.5277,0.5246,0.5239,0.5277,0.5309,0.5386,0.5603,0.5673,0.5868,0.6402,0.6495,0.6645,0.6839,0.693,0.693,0.693,0.6979,0.6979,0.6979,0.7265,0.7307,0.7021,0.7553,0.7754,0.7485,0.8018,0.8333,0.8396,0.8626,0.8751,0.8804,0.8804,0.8804,0.8804,0.8804,0.8804,0.8804,0.8804,0.8804,0.8804,0.8652,0.8639,0.8633,0.8652,0.8652,0.8652,0.8752,0.8804,0.8804,0.8804,0.8804,0.8804,0.8804,0.8804,0.8804,0.8804,0.8804,0.8752,0.8646,0.8646,0.8646,0.8646,0.8533,0.8533,0.8752,0.8804,0.8804,0.8804,0.8804,0.8804,0.8804,0.8804,0.8804,0.8804,0.8804,0.8804,0.8804,0.0,0.9137,0.9183,0.9679,1.0,1.0047,1.0274,1.0528,1.0768,1.1102,1.1289,1.1289,1.1891,1.2084,1.1744,1.2104,1.2305,1.2305,1.215,1.2195,1.252,1.2368,1.2551,1.3185,1.3238,1.3503,1.3955,1.4001,1.4041,1.4088,1.4088,1.4088,1.4088,1.4088,1.4088,1.401,1.2949,1.1888,1.0671,0.5316,0.5564,0.5712,0.5533,0.5673,0.5822,0.5931,0.609,0.6284,0.6581,0.6735,0.6881,0.6979,0.6979,0.6979,0.6979,0.6979,0.707,0.7265,0.7412,0.7416,0.7265,0.7865,0.8158,0.8193,0.8455,0.8626,0.8626,0.8745,0.8804,0.8804,0.8804,0.8804,0.8804,0.8804,0.8804,0.8804,0.8804,0.8804,0.8804,0.8804,0.8804,0.8804,0.8804,0.8804,0.8804,0.8804,0.8804,0.8804,0.8804,0.8804,0.8804,0.8804,0.8804,0.8804,0.8804,0.8804,0.8804,0.8804,0.8533,0.8321,0.8699,0.865,0.8559,0.8732,0.8931,0.9038,0.9038,0.8918,0.8851,0.9011,0.8911,0.8858,0.9018,0.8911,0.0,0.9232,0.9392,0.9599,0.9913,1.0327,1.0648,1.0808,1.0942,1.1082,1.1216,1.1496,1.1663,1.1663,1.2071,1.2238,1.2104,1.2392,1.2465,1.2305,1.2458,1.2532,1.2512,1.2741,1.2893,1.3173,1.3494,1.3714,1.3854,1.4015,1.4088,1.4088,1.4088,1.4088,1.4088,1.4088,1.3659,1.307,1.2531,1.1117,0.9478,0.5551,0.5873,0.6106,0.5868,0.6033,0.6231,0.6273,0.6485,0.6645,0.6693,0.6881,0.6979,0.6979,0.6979,0.7027,0.7118,0.7118,0.7265,0.7553,0.7678,0.7688,0.7594,0.8092,0.8518,0.8791,0.8804,0.8804,0.8804,0.8804,0.8804,0.8804,0.8804,0.8804,0.8804,0.8804,0.8804,0.8804,0.8804,0.8804,0.8804,0.8804,0.8804,0.8804,0.8804,0.8804,0.8804,0.8804,0.8804,0.8804,0.8804,0.8804,0.8804,0.8804,0.8804,0.8804,0.8804,0.8851,0.8911,0.8911,0.8425,0.8115,0.8725,0.8639,0.8435,0.8831,0.9024,0.9203,0.9269,0.9165,0.9078,0.9305,0.9158,0.9085,0.9305,0.0,0.9272,0.0,0.99,1.0154,1.0672,1.0915,1.1209,1.1503,1.153,1.1557,1.1623,1.1904,1.2044,1.1977,1.2311,1.2512,1.2512,1.2665,1.2714,1.2405,1.2705,1.2739,1.2518,1.2746,1.297,1.2966,1.3434,1.3681,1.3761,1.3988,1.4088,1.4088,1.4088,1.4088,1.4088,1.4088,1.3385,1.2266,1.198,1.0504,0.8653,0.6142,0.6183,0.62,0.6166,0.6204,0.6292,0.6524,0.6594,0.6693,0.693,0.6979,0.6979,0.6979,0.6979,0.7118,0.7454,0.7454,0.7602,0.7849,0.8173,0.8189,0.7864,0.8195,0.8541,0.8804,0.8804,0.8804,0.8804,0.8804,0.8804,0.8804,0.8804,0.8804,0.8804,0.8804,0.8804,0.8804,0.8804,0.8804,0.8804,0.8804,0.8804,0.8804,0.8804,0.8804,0.8804,0.8804,0.8804,0.8804,0.8804,0.8804,0.8804,0.8804,0.8804,0.8804,0.8804,0.8998,0.915,0.915,0.8957,0.8818,0.9084,0.8971,0.8851,0.9097,0.917,0.9263,0.9593,0.9633,0.9626,0.9646,0.9633,0.9626,0.9646,0.0,0.0,1.0074,1.0555,1.0915,1.0955,1.1216,1.151,1.1804,1.1837,1.1951,1.2218,1.2512,1.264,1.2285,1.2826,1.3146,1.3146,1.2886,1.2808,1.2788,1.3019,1.3166,1.3146,1.3166,1.3313,1.3581,1.3539,1.3794,1.4055,1.4075,1.4088,1.4088,1.4088,1.4088,1.4088,1.4088,1.3334,1.2143,1.1016,0.9729,0.8546,0.624,0.6487,0.6637,0.6479,0.6596,0.6742,0.6833,0.6839,0.6881,0.6979,0.6979,0.6979,0.6979,0.7167,0.7363,0.7504,0.7649,0.786,0.8185,0.8326,0.8396,0.8455,0.8573,0.8692,0.8804,0.8804,0.8804,0.8804,0.8804,0.8804,0.8804,0.8804,0.8804,0.8804,0.8804,0.8804,0.8804,0.8804,0.8804,0.8804,0.8804,0.8804,0.8804,0.8804,0.8804,0.8804,0.8804,0.8804,0.8804,0.8804,0.8804,0.8838,0.9018,0.8951,0.8844,0.9025,0.9285,0.9552,0.9733,0.9573,0.9379,0.9486,0.9566,0.9599,0.9532,0.9653,0.982,0.9927,0.9813,0.9793,1.0221,1.0074,1.0074,1.0434,0.0,1.0514,1.0875,1.1122,1.1329,1.1516,1.179,1.2084,1.2459,1.2486,1.2533,1.2565,1.2859,1.2899,1.2592,1.2979,1.3213,1.3213,1.3267,1.3213,1.3033,1.3327,1.3387,1.3213,1.3394,1.3534,1.3654,1.3834,1.3981,1.4088,1.4088,1.4088,1.4088,1.4088,1.4088,1.3997,1.3322,1.2295,1.1128,0.9831,0.8614,0.7481,0.65,0.6742,0.693,0.6742,0.6881,0.6979,0.6979,0.6979,0.6979,0.6979,0.6979,0.6979,0.6979,0.7307,0.7523,0.7607,0.7885,0.8212,0.8508,0.8514,0.8626,0.8804,0.8804,0.8804,0.8804,0.8804,0.8804,0.8804,0.8804,0.8804,0.8804,0.8804,0.8804,0.8804,0.8804,0.8804,0.8804,0.8804,0.8804,0.8804,0.8804,0.8804,0.8804,0.8804,0.8804,0.8804,0.8804,0.8804,0.8804,0.8804,0.8871,0.8978,0.9123,0.9165,0.9118,0.9319,0.9593,0.9866,1.006,1.004,0.9933,0.984,0.99,0.9953,0.9846,0.9973,1.0167,1.0354,1.0234,1.0247,1.0742,1.0661,1.0661,1.1062,1.1042,1.1109,1.151,1.1643,1.181,1.2111,1.2318,1.2559,1.2866,1.2893,1.2893,1.2893,1.3173,1.3293,1.3173,1.328,1.3387,1.3487,1.3681,1.3687,1.3487,1.3681,1.3681,1.3487,1.3687,1.3781,1.3788,1.3995,1.4088,1.4088,1.4088,1.4088,1.4088,1.4088,1.4082,1.3802,1.2759,1.1556,1.0319,0.9152,0.787,0.6841,0.6979,0.7021,0.7021,0.7021,0.7021,0.7021,0.7021,0.7021,0.7021,0.7021,0.7021,0.7021,0.7021,0.7314,0.7605,0.7884,0.8212,0.8514,0.8804,0.8804,0.8804,0.8804,0.8804,0.8804,0.8804,0.8804,0.8804,0.8804,0.8804,0.8804,0.8804,0.8804,0.8804,0.8804,0.8804,0.8804,0.8804,0.8804,0.8804,0.8804,0.8804,0.8804,0.8804,0.8804,0.8804,0.8804,0.8804,0.8804,0.8804,0.8811,0.9005,0.9183,0.919,0.9452,0.9693,0.9686,0.9893,1.012,1.012,1.0334,1.0488,1.0194,0.9907,0.9766,1.006,1.0127,1.0287,1.0875,1.0995,1.1089,1.1376,1.143,1.1436,1.1436,1.1683,1.1877,1.1877,1.2124,1.2418,1.2788,1.2829,1.2872,1.318,1.3213,1.3213,1.3213,1.348,1.3774,1.4075,1.3808,1.3781,1.4075,1.4088,1.4088,1.4088,1.4088,1.4088,1.4088,1.4088,1.4088,1.4088,1.4088,1.4088,1.4088,1.4088,1.4088,1.4088,1.4088,1.3893,1.3516,1.2662,1.1466,1.0049,0.9065,0.7811,0.6674,0.6979,0.7167,0.7356,0.7356,0.7356,0.7356,0.7356,0.7167,0.7076,0.7314,0.7167,0.7167,0.7602,0.7701,0.7916,0.8235,0.8508,0.8692,0.8804,0.8804,0.8804,0.8804,0.8804,0.8804,0.8804,0.8804,0.8804,0.8804,0.8804,0.8804,0.8804,0.8804,0.8804,0.8804,0.8804,0.8804,0.8804,0.8804,0.8804,0.8804,0.8804,0.8804,0.8804,0.8804,0.8804,0.8804,0.8804,0.8804,0.8838,0.9038,0.911,0.9223,0.9486,0.9893,1.0322,1.0047,1.0194,1.0428,1.0428,1.0494,1.0604,1.0448,1.0361,1.0374,1.0668,1.0728,1.0842,1.1216,1.1463,1.1697,1.1991,1.2211,1.2425,1.2645,1.2572,1.256,1.256,1.2634,1.2721,1.2808,1.2939,1.3193,1.3487,1.3514,1.3514,1.3514,1.3512,1.3774,1.4075,1.4001,1.3995,1.4082,1.4088,1.4088,1.4088,1.4088,1.4088,1.4088,1.4088,1.4088,1.4088,1.4088,1.4088,1.4088,1.4088,1.4088,1.4088,1.3893,1.3704,1.3419,1.1556,1.06,0.9975,0.8028,0.7118,0.6759,0.7363,0.7511,0.7666,0.7649,0.7676,0.7673,0.7681,0.7504,0.7412,0.7651,0.7486,0.7497,0.7858,0.8008,0.8187,0.839,0.8633,0.8804,0.8804,0.8804,0.8804,0.8804,0.8804,0.8804,0.8804,0.8804,0.8804,0.8804,0.8804,0.8804,0.8804,0.8804,0.8804,0.8804,0.8804,0.8804,0.8804,0.8804,0.8804,0.8804,0.8804,0.8804,0.8804,0.8804,0.8878,0.8978,0.8978,0.9051,0.9178,0.9359,0.9492,0.9639,0.994,1.0335,1.0584,1.0347,1.0421,1.0651,1.0701,1.0728,1.0755,1.0875,1.0815,1.0775,1.0955,1.1082,1.1276,1.169,1.1917,1.2171,1.2585,1.2812,1.2993,1.318,1.3053,1.2926,1.2926,1.2926,1.2973,1.3086,1.3267,1.3494,1.3794,1.3814,1.3814,1.3814,1.3814,1.3901,1.4075,1.4088,1.4088,1.4088,1.4088,1.4088,1.4088,1.4088,1.4088,1.4088,1.4088,1.4088,1.4088,1.4088,1.4088,1.4088,1.4088,1.4088,1.4088,1.3893,1.3458,1.2779,1.1011,0.9991,0.9164,0.7507,0.6814,0.6739,0.7882,0.7925,0.7937,0.7926,0.7923,0.793,0.7953,0.7925,0.7925,0.7925,0.7915,0.7936,0.7954,0.8212,0.8396,0.8448,0.8685,0.8804,0.8804,0.8804,0.8804,0.8804,0.8804,0.8804,0.8804,0.8804,0.8804,0.8804,0.8804,0.8804,0.8804,0.8804,0.8804,0.8804,0.8804,0.8804,0.8804,0.8804,0.8804,0.8804,0.8804,0.8831,0.8858,0.8851,0.9025,0.9223,0.9223,0.9452,0.9686,0.9713,0.9913,1.0207,1.0474,1.0624,1.0624,1.0624,1.0645,1.0719,1.0922,1.1009,1.1102,1.1396,1.1283,1.1109,1.1109,1.1316,1.167,1.2265,1.2405,1.2592,1.3146,1.3273,1.3287,1.3287,1.3267,1.3253,1.3253,1.3253,1.3347,1.3614,1.3667,1.3788,1.4062,1.4088,1.4088,1.4088,1.4088,1.4088,1.4088,1.4088,1.4088,1.4088,1.4088,1.4088,1.4088,1.4088,1.4088,1.4088,1.4088,1.4088,1.4088,1.4088,1.4088,1.4088,1.4088,1.4088,1.4088,1.4082,1.3207,1.177,1.0875,0.9546,0.814,0.7351,0.684,0.6581,0.7911,0.8132,0.8273,0.8292,0.8277,0.8306,0.8292,0.8081,0.7967,0.8252,0.8067,0.8065,0.8565,0.8475,0.8508,0.8692,0.8752,0.8804,0.8804,0.8804,0.8804,0.8804,0.8804,0.8804,0.8804,0.8804,0.8804,0.8804,0.8804,0.8804,0.8804,0.8804,0.8804,0.8804,0.8804,0.8804,0.8804,0.8804,0.8804,0.8804,0.8804,0.8931,0.9128,0.9117,0.9332,0.9586,0.9586,0.9626,0.9719,0.9947,1.0221,1.0474,1.0604,1.0624,1.0624,1.0624,1.0722,1.0915,1.0975,1.1156,1.1403,1.1697,1.1897,1.2017,1.2017,1.2064,1.2285,1.2893,1.3193,1.3394,1.3527,1.3741,1.3895,1.3895,1.3701,1.3547,1.3547,1.3547,1.3492,1.3552,1.3848,1.4015,1.4082,1.4088,1.4088,1.4088,1.4088,1.4088,1.4088,1.4088,1.4088,1.4088,1.4088,1.4088,1.4088,1.4088,1.4088,1.4088,1.4088,1.4088,1.4088,1.4088,1.4088,1.4088,1.4088,1.4088,1.4088,1.3802,1.2983,1.1815,1.0544,0.9334,0.8082,0.7044,0.6661,0.6685,0.833,0.8455,0.8573,0.8573,0.8573,0.8573,0.8573,0.8448,0.8389,0.8567,0.8448,0.8448,0.8752,0.8685,0.8633,0.8804,0.8804,0.8804,0.8804,0.893,0.893,0.8811,0.893,0.893,0.8804,0.893,0.9017,0.899,0.9171,0.9216,0.9233,0.9233,0.9214,0.92,0.9071,0.9086,0.9225,0.9039,0.8987,0.8963,0.8963,0.9055,0.9187,0.9203,0.9512,0.9886,0.9886,0.998,1.0147,1.0434,1.0548,1.0651,1.0722,1.0768,1.0768,1.0768,1.0969,1.1229,1.1369,1.1523,1.1744,1.2178,1.2398,1.2512,1.2512,1.2625,1.2866,1.332,1.354,1.3687,1.3828,1.3981,1.4088,1.4088,1.3955,1.3854,1.3854,1.3854,1.3908,1.4041,1.4075,1.4088,1.4088,1.4215,1.4235,1.4095,1.4088,1.4088,1.4088,1.4088,1.4088,1.4088,1.4088,1.4088,1.4088,1.4088,1.4088,1.4088,1.4088,1.4088,1.4088,1.4088,1.4088,1.4088,1.4088,1.4088,1.4082,1.3322,1.233,1.1198,0.9933,0.8682,0.7519,0.6976,0.6805,0.6868,0.8804,0.8804,0.8804,0.8804,0.8804,0.8804,0.8804,0.8804,0.8804,0.8804,0.8804,0.8804,0.8804,0.8804,0.8804,0.8804,0.8864,0.886,0.886,0.9105,0.9198,0.8976,0.9159,0.9169,0.8983,0.9228,0.9316,0.9214,0.9525,0.9708,0.9669,0.9674,0.9728,0.9685,0.9384,0.9432,0.9697,0.9408,0.9266,0.9312,0.9312,0.9299,0.9336,0.9336,0.9719,1.0194,1.0194,1.0381,1.0675,1.0915,1.0868,1.0755,1.0989,1.1069,1.1069,1.1069,1.1269,1.1563,1.1864,1.1984,1.2237,1.2829,1.2976,1.2913,1.3044,1.314,1.3367,1.3661,1.3721,1.3794,1.4041,1.4088,1.4088,1.4088,1.4128,1.4162,1.4162,1.4162,1.4269,1.4563,1.4335,1.4182,1.4235,1.4362,1.4369,1.4175,1.4115,1.4088,1.4088,1.4088,1.4088,1.4088,1.4135,1.4135,1.4088,1.4135,1.4135,1.4088,1.4088,1.4088,1.4088,1.4088,1.4088,1.4088,1.3893,1.3795,1.3704,1.2481,1.1302,1.0224,0.9212,0.8025,0.69,0.693,0.6978,0.6959,0.8804,0.8804,0.8804,0.8804,0.8804,0.8804,0.8804,0.8804,0.8804,0.8804,0.8804,0.8804,0.8804,0.8804,0.8804,0.8804,0.9014,0.9142,0.9142,0.9435,0.9632,0.958,0.9603,0.9595,0.9595,0.9842,0.9707,0.9214,0.9556,0.9698,0.972,0.9679,0.9676,0.9711,0.9629,0.9666,0.9699,0.967,0.9608,0.9639,0.9639,0.9786,1.0,1.0,1.0207,1.0501,1.0501,1.0688,1.0942,1.0982,1.1136,1.1316,1.1356,1.1369,1.1369,1.1369,1.1577,1.187,1.2164,1.2432,1.2772,1.3373,1.352,1.3587,1.3848,1.3741,1.3667,1.3968,1.4028,1.4041,1.4082,1.4088,1.4088,1.4088,1.4295,1.4462,1.4462,1.4462,1.4576,1.487,1.4643,1.4563,1.4823,1.4422,1.4235,1.4442,1.4229,1.4088,1.4088,1.4088,1.4088,1.4088,1.4329,1.4342,1.4088,1.4335,1.4335,1.4088,1.4088,1.4088,1.4088,1.4088,1.4088,1.4082,1.3037,1.2572,1.2475,1.1281,1.0179,0.9103,0.8802,0.7935,0.6678,0.6602,0.6624,0.6776,0.8804,0.8804,0.8804,0.8804,0.8804,0.8804,0.8804,0.8804,0.8804,0.8804,0.8804,0.8804,0.8804,0.893,0.9042,0.9042,0.9285,0.9459,0.9454,0.9776,0.9847,0.9687,0.9843,0.9852,0.9714,0.9982,0.9973,0.9705,1.0053,1.0174,1.0181,1.0181,1.0221,1.0174,0.9988,1.0058,1.0167,0.9973,0.9907,0.9945,0.992,1.0,1.0114,1.0114,1.0301,1.0645,1.0742,1.0989,1.1263,1.143,1.1456,1.1456,1.1623,1.167,1.167,1.167,1.1997,1.2459,1.2512,1.2772,1.3106,1.3534,1.3559,1.3721,1.4021,1.3988,1.3975,1.4269,1.4329,1.4329,1.4329,1.4469,1.4522,1.4355,1.4576,1.477,1.477,1.477,1.4756,1.4723,1.489,1.487,1.4509,1.4382,1.4315,1.4282,1.4162,1.4088,1.4088,1.4088,1.4088,1.4088,1.4208,1.4215,1.4088,1.4215,1.4295,1.4322,1.4162,1.4088,1.4088,1.4088,1.4088,1.3997,1.2838,1.2295,1.214,1.0269,0.9205,0.8703,0.7918,0.7208,0.6688,0.666,0.6665,0.6651]},{"header":{"parameterUnit":"m.s-1","parameterCategory":1,"la1":30.6,"la2":28.766,"lo1":-90.7593,"lo2":-88.6598,"dy":0.0162,"dx":0.0183,"nx":116,"ny":114,"refTime":"2023-09-27T00:00:00:Z","depth":0,"parameterNumber":3,"parameterNumberName":"V-component_of_WINDS"},"data":[0.0,0.0,0.0,0.0,0.0,0.0,0.0,0.0,0.0,0.0,0.0,0.0,0.0,0.0,0.0,0.0,0.0,0.0,0.0,0.0,0.0,0.0,0.0,0.0,0.0,0.0,0.0,0.0,0.0,0.0,0.0,0.0,0.0,0.0,0.0,0.0,0.0,0.0,0.0,0.0,0.0,0.0,0.0,0.0,0.0,0.0,0.0,0.0,0.0,0.0,0.0,0.0,0.0,0.0,0.0,0.0,0.0,0.0,0.0,0.0,0.0,0.0,0.0,0.0,0.0,0.0,0.0,0.0,0.0,0.0,0.0,0.0,0.0,0.0,0.0,0.0,0.0,0.0,0.0,0.0,0.0,0.0,0.0,0.0,0.0,0.0,0.0,0.0,0.0,0.0,0.0,0.0,0.0,0.0,0.0,0.0,0.0,0.0,0.0,0.0,0.0,0.0,0.0,0.0,0.0,0.0,0.0,0.0,0.0,0.0,0.0,0.0,0.0,0.0,0.0,0.0,0.0,0.0,0.0,0.0,0.0,0.0,0.0,0.0,0.0,0.0,0.0,0.0,0.0,0.0,0.0,0.0,0.0,0.0,0.0,0.0,0.0,0.0,0.0,0.0,0.0,0.0,0.0,0.0,0.0,0.0,0.0,0.0,0.0,0.0,0.0,0.0,0.0,0.0,0.0,0.0,0.0,0.0,0.0,0.0,0.0,0.0,0.0,0.0,0.0,0.0,0.0,0.0,0.0,0.0,0.0,0.0,0.0,0.0,0.0,0.0,0.0,0.0,0.0,0.0,0.0,0.0,0.0,0.0,0.0,0.0,0.0,0.0,0.0,0.0,0.0,0.0,0.0,0.0,0.0,0.0,0.0,0.0,0.0,0.0,0.0,0.0,0.0,0.0,0.0,0.0,0.0,0.0,0.0,0.0,0.0,0.0,0.0,0.0,0.0,0.0,0.0,0.0,0.0,0.0,0.0,0.0,0.0,0.0,0.0,0.0,0.0,0.0,0.0,0.0,0.0,0.0,0.0,0.0,0.0,0.0,0.0,0.0,0.0,0.0,0.0,0.0,0.0,0.0,0.0,0.0,0.0,0.0,0.0,0.0,0.0,0.0,0.0,0.0,0.0,0.0,0.0,0.0,0.0,0.0,0.0,0.0,0.0,0.0,0.0,0.0,0.0,0.0,0.0,0.0,0.0,0.0,0.0,0.0,0.0,0.0,0.0,0.0,0.0,0.0,0.0,0.0,0.0,0.0,0.0,0.0,0.0,0.0,0.0,0.0,0.0,0.0,0.0,0.0,0.0,0.0,0.0,0.0,0.0,0.0,0.0,0.0,0.0,0.0,0.0,0.0,0.0,0.0,0.0,0.0,0.0,0.0,0.0,0.0,0.0,0.0,0.0,0.0,0.0,0.0,0.0,0.0,0.0,0.0,0.0,0.0,0.0,0.0,0.0,0.0,0.0,0.0,0.0,0.0,0.0,0.0,0.0,0.0,0.0,0.0,0.0,0.0,0.0,0.0,0.0,0.0,0.0,0.0,0.0,0.0,0.0,0.0,0.0,0.0,0.0,0.0,0.0,0.0,0.0,0.0,0.0,0.0,0.0,0.0,0.0,0.0,0.0,0.0,0.0,0.0,0.0,0.0,0.0,0.0,0.0,0.0,0.0,0.0,0.0,0.0,0.0,0.0,0.0,0.0,0.0,0.0,0.0,0.0,0.0,0.0,0.0,0.0,0.0,0.0,0.0,0.0,0.0,0.0,0.0,0.0,0.0,0.0,0.0,0.0,0.0,0.0,0.0,0.0,0.0,0.0,0.0,0.0,0.0,0.0,0.0,0.0,0.0,0.0,0.0,0.0,0.0,0.0,0.0,0.0,0.0,0.0,0.0,0.0,0.0,0.0,0.0,0.0,0.0,0.0,0.0,0.0,0.0,0.0,0.0,0.0,0.0,0.0,0.0,0.0,0.0,0.0,0.0,0.0,0.0,0.0,0.0,0.0,0.0,0.0,0.0,0.0,0.0,0.0,0.0,0.0,0.0,0.0,0.0,0.0,0.0,0.0,0.0,0.0,0.0,0.0,0.0,0.0,0.0,0.0,0.0,0.0,0.0,0.0,0.0,0.0,0.0,0.0,0.0,0.0,0.0,0.0,0.0,0.0,0.0,0.0,0.0,0.0,0.0,0.0,0.0,0.0,0.0,0.0,0.0,0.0,0.0,0.0,0.0,0.0,0.0,0.0,0.0,0.0,0.0,0.0,0.0,0.0,0.0,0.0,0.0,0.0,0.0,0.0,0.0,0.0,0.0,0.0,0.0,0.0,0.0,0.0,0.0,0.0,0.0,0.0,0.0,0.0,0.0,0.0,0.0,0.0,0.0,0.0,0.0,0.0,0.0,0.0,0.0,0.0,0.0,0.0,0.0,0.0,0.0,0.0,0.0,0.0,0.0,0.0,0.0,0.0,0.0,0.0,0.0,0.0,0.0,0.0,0.0,0.0,0.0,0.0,0.0,0.0,0.0,0.0,0.0,0.0,0.0,0.0,0.0,0.0,0.0,0.0,0.0,0.0,0.0,0.0,0.0,0.0,0.0,0.0,0.0,0.0,0.0,0.0,0.0,0.0,0.0,0.0,0.0,0.0,0.0,0.0,0.0,0.0,0.0,0.0,0.0,0.0,0.0,0.0,0.0,0.0,0.0,0.0,0.0,0.0,0.0,0.0,0.0,0.0,0.0,0.0,0.0,0.0,0.0,0.0,0.0,0.0,0.0,0.0,0.0,0.0,0.0,0.0,0.0,0.0,0.0,0.0,0.0,0.0,0.0,0.0,0.0,0.0,0.0,0.0,0.0,0.0,0.0,0.0,0.0,0.0,0.0,0.0,0.0,0.0,0.0,0.0,0.0,0.0,0.0,0.0,0.0,0.0,0.0,0.0,0.0,0.0,0.0,0.0,0.0,0.0,0.0,0.0,0.0,0.0,0.0,0.0,0.0,0.0,0.0,0.0,0.0,0.0,0.0,0.0,0.0,0.0,0.0,0.0,0.0,0.0,0.0,0.0,0.0,0.0,0.0,0.0,0.0,0.0,0.0,0.0,0.0,0.0,0.0,0.0,0.0,0.0,0.0,0.0,0.0,0.0,0.0,0.0,0.0,0.0,0.0,0.0,0.0,0.0,0.0,0.0,0.0,0.0,0.0,0.0,0.0,0.0,0.0,0.0,0.0,0.0,0.0,0.0,0.0,0.0,0.0,0.0,0.0,0.0,0.0,0.0,0.0,0.0,0.0,0.0,0.0,0.0,0.0,0.0,0.0,0.0,0.0,0.0,0.0,0.0,0.0,0.0,0.0,0.0,0.0,0.0,0.0,0.0,0.0,0.0,0.0,0.0,0.0,0.0,0.0,0.0,0.0,0.0,0.0,0.0,0.0,0.0,0.0,0.0,0.0,0.0,0.0,0.0,0.0,0.0,0.0,0.0,0.0,0.0,0.0,0.0,0.0,0.0,0.0,0.0,0.0,0.0,0.0,0.0,0.0,0.0,0.0,0.0,0.0,0.0,0.0,0.0,0.0,0.0,0.0,0.0,0.0,0.0,0.0,0.0,0.0,0.0,0.0,0.0,0.0,0.0,0.0,0.0,0.0,0.0,0.0,0.0,0.0,0.0,0.0,0.0,0.0,0.0,0.0,0.0,0.0,0.0,0.0,0.0,0.0,0.0,0.0,0.0,0.0,0.0,0.0,0.0,0.0,0.0,0.0,0.0,0.0,0.0,0.0,0.0,0.0,0.0,0.0,0.0,0.0,0.0,0.0,0.0,0.0,0.0,0.0,0.0,0.0,0.0,0.0,0.0,0.0,0.0,0.0,0.0,0.0,0.0,0.0,0.0,0.0,0.0,0.0,0.0,0.0,0.0,0.0,0.0,0.0,0.0,0.0,0.0,0.0,0.0,0.0,0.0,0.0,0.0,0.0,0.0,0.0,0.0,0.0,0.0,0.0,0.0,0.0,0.0,0.0,0.0,0.0,0.0,0.0,0.0,0.0,0.0,0.0,0.0,0.0,0.0,0.0,0.0,0.0,0.0,0.0,0.0,0.0,0.0,0.0,0.0,0.0,0.0,0.0,0.0,0.0,0.0,0.0,0.0,0.0,0.0,0.0,0.0,0.0,0.0,0.0,0.0,0.0,0.0,0.0,0.0,0.0,0.0,0.0,0.0,0.0,0.0,0.0,0.0,0.0,0.0,0.0,0.0,0.0,0.0,0.0,0.0,0.0,0.0,0.0,0.0,0.0,0.0,0.0,0.0,0.0,0.0,0.0,0.0,0.0,0.0,0.0,0.0,0.0,0.0,0.0,0.0,0.0,0.0,0.0,0.0,0.0,0.0,0.0,0.0,0.0,0.0,0.0,0.0,0.0,0.0,0.0,0.0,0.0,0.0,0.0,0.0,0.0,0.0,0.0,0.0,0.0,0.0,0.0,0.0,0.0,0.0,0.0,0.0,0.0,0.0,0.0,0.0,0.0,0.0,0.0,0.0,0.0,0.0,0.0,0.0,0.0,0.0,0.0,0.0,0.0,0.0,0.0,0.0,0.0,0.0,0.0,0.0,0.0,0.0,0.0,0.0,0.0,0.0,0.0,0.0,0.0,0.0,0.0,0.0,0.0,0.0,0.0,0.0,0.0,0.0,0.0,0.0,0.0,0.0,0.0,0.0,0.0,0.0,0.0,0.0,0.0,0.0,0.0,0.0,0.0,0.0,0.0,0.0,0.0,0.0,0.0,0.0,0.0,0.0,0.0,0.0,0.0,0.0,0.0,0.0,0.0,0.0,0.0,0.0,0.0,0.0,0.0,0.0,0.0,0.0,0.0,0.0,0.0,0.0,0.0,0.0,0.0,0.0,0.0,0.0,0.0,0.0,0.0,0.0,0.0,0.0,0.0,0.0,0.0,0.0,0.0,0.0,0.0,0.0,0.0,0.0,0.0,0.0,0.0,0.0,0.0,0.0,0.0,0.0,0.0,0.0,0.0,0.0,0.0,0.0,0.0,0.0,0.0,0.0,0.0,0.0,0.0,0.0,0.0,0.0,0.0,0.0,0.0,0.0,0.0,0.0,0.0,0.0,0.0,0.0,0.0,0.0,0.0,0.0,0.0,0.0,0.0,0.0,0.0,0.0,0.0,0.0,0.0,0.0,0.0,0.0,0.0,0.0,0.0,0.0,0.0,0.0,0.0,0.0,0.0,0.0,0.0,0.0,0.0,0.0,0.0,0.0,0.0,0.0,0.0,0.0,0.0,0.0,0.0,0.0,0.0,0.0,0.0,0.0,0.0,0.0,0.0,0.0,0.0,0.0,0.0,0.0,0.0,0.0,0.0,0.0,0.0,0.0,0.0,0.0,0.0,0.0,0.0,0.0,0.0,0.0,0.0,0.0,0.0,0.0,0.0,0.0,0.0,0.0,0.0,0.0,0.0,0.0,0.0,0.0,0.0,0.0,0.0,0.0,0.0,0.0,0.0,0.0,0.0,0.0,0.0,0.0,0.0,0.0,0.0,0.0,0.0,0.0,0.0,0.0,0.0,0.0,0.0,0.0,0.0,0.0,0.0,0.0,0.0,0.0,0.0,0.0,0.0,0.0,0.0,0.0,0.0,0.0,0.0,0.0,0.0,0.0,0.0,0.0,0.0,0.0,0.0,0.0,0.0,0.0,0.0,0.0,0.0,0.0,0.0,0.0,0.0,0.0,0.0,0.0,0.0,0.0,0.0,0.0,0.0,0.0,0.0,0.0,0.0,0.0,0.0,0.0,0.0,0.0,0.0,0.0,0.0,0.0,0.0,0.0,0.0,0.0,0.0,0.0,0.0,0.0,0.0,0.0,0.0,0.0,0.0,0.0,0.0,0.0,0.0,0.0,0.0,0.0,0.0,0.0,0.0,0.0,0.0,0.0,0.0,0.0,0.0,0.0,0.0,0.0,0.0,0.0,0.0,0.0,0.0,0.0,0.0,0.0,0.0,0.0,0.0,0.0,0.0,0.0,0.0,0.0,0.0,0.0,0.0,0.0,0.0,0.0,0.0,0.0,0.0,0.0,0.0,0.0,0.0,0.0,0.0,0.0,0.0,0.0,1.9711,0.0,0.0,0.0,0.0,0.0,0.0,0.0,0.0,0.0,0.0,0.0,0.0,0.0,0.0,0.0,0.0,0.0,0.0,0.0,0.0,0.0,0.0,0.0,0.0,0.0,0.0,0.0,0.0,0.0,0.0,0.0,0.0,0.0,0.0,0.0,0.0,0.0,0.0,0.0,0.9261,0.9384,0.9387,0.8057,0.7256,0.7032,0.0,0.0,0.0,0.0,0.0,0.0,0.0,0.0,0.0,0.0,0.0,0.0,0.0,0.0,0.0,0.0,0.0,0.0,0.0,0.0,0.0,0.0,0.0,0.0,0.0,0.0,0.0,0.0,0.0,0.0,0.0,0.0,0.0,0.0,0.0,0.0,0.0,0.0,0.0,0.0,0.0,0.0,0.0,0.0,0.0,0.0,0.0,0.0,0.0,0.0,0.0,0.0,0.0,0.0,0.0,0.0,0.0,0.0,0.0,0.0,0.0,0.0,0.0,0.0,0.0,0.0,0.0,0.0,0.0,0.0,0.0,2.1197,0.0,0.0,0.0,0.0,0.0,0.0,0.0,0.0,0.0,0.0,0.0,0.0,0.0,0.0,0.0,0.0,0.0,0.0,0.0,0.0,0.0,0.0,0.0,0.0,0.8882,0.7605,0.416,0.081,0.0,0.0,0.0,0.0,0.0,0.0,0.0,0.4417,0.7208,0.8271,0.7983,0.8309,0.9213,0.9343,0.9056,0.8472,1.0317,0.0,0.0,0.0,0.0,0.0,0.0,0.0,0.0,0.0,0.0,0.0,0.0,0.0,0.0,0.0,0.0,0.0,0.0,0.0,0.0,0.0,0.0,0.0,0.0,0.0,0.0,0.0,0.0,0.0,0.0,0.0,0.0,0.0,0.0,0.0,0.0,0.0,0.0,0.0,0.0,0.0,0.0,0.0,0.0,0.0,0.0,0.0,0.0,0.0,0.0,0.0,0.0,0.0,0.0,0.0,0.0,0.0,0.0,0.0,0.0,0.0,0.0,0.0,2.399,2.4392,2.4911,2.5042,2.4335,2.3049,2.452,2.292,1.9532,2.2382,0.0,0.0,0.0,0.0,0.0,0.0,0.0,0.0,0.0,0.0,0.0,0.0,0.0,0.0,0.0,0.0,0.0,0.0,0.0,0.0,0.0,0.8474,0.7847,0.8991,0.1968,-0.4952,0.0,0.0,0.0,0.0,0.0,0.0,-0.3626,0.0516,0.343,0.5017,0.7002,0.8285,0.89,1.0105,1.1271,1.2334,1.1876,1.2618,1.4095,0.0,0.0,0.0,0.0,0.0,0.0,0.0,0.0,0.0,0.0,0.0,0.0,0.0,0.0,0.0,0.0,0.0,0.0,0.0,0.0,0.0,0.0,0.0,0.0,0.0,0.0,0.0,0.0,0.0,0.0,0.0,0.0,0.0,0.0,0.0,0.0,0.0,0.0,0.0,0.0,0.0,1.6991,1.6226,0.0,0.0,0.0,0.0,0.0,0.0,0.0,0.0,0.0,0.0,0.0,0.0,0.0,2.5299,2.6079,2.6191,2.6054,2.5646,2.6184,2.6061,2.5354,2.6035,2.6236,2.6033,2.6451,0.0,2.2006,2.1039,0.0,0.0,0.0,0.0,0.0,0.0,0.0,0.0,0.0,0.0,0.0,0.0,0.0,0.0,0.0,0.0,0.0,0.0,0.0,0.0,0.0,0.4826,0.3441,0.2825,-0.3121,-0.8117,-1.1145,-1.2467,0.0,0.0,0.0,-0.8469,-0.6978,-0.1842,0.2189,0.496,0.6784,0.8182,0.9225,1.0714,1.219,1.3612,1.3645,1.4764,1.6595,1.6199,0.0,0.0,0.0,0.0,0.0,0.0,0.0,0.0,0.0,0.0,0.0,0.0,0.0,0.0,0.0,0.0,0.0,0.0,0.0,0.0,0.0,0.0,0.0,0.0,0.0,0.0,0.0,0.0,0.0,0.0,0.0,0.0,0.0,0.0,0.0,0.0,0.0,0.0,0.0,1.863,1.8906,1.7573,1.9544,2.0825,0.0,0.0,0.0,0.0,0.0,0.0,0.0,0.0,0.0,2.6222,2.6802,2.7475,2.8241,2.7922,2.7511,2.7009,2.74,2.7042,2.608,2.6447,2.6444,2.6185,2.6672,2.6293,2.522,2.4055,2.3755,2.4055,0.0,0.0,0.0,0.0,2.5791,2.5926,0.0,0.0,0.0,0.0,0.0,0.0,0.0,0.0,0.0,0.0,0.0,0.0,0.2345,0.0343,-0.1945,-0.4594,-0.8366,-1.1107,-1.2287,-1.3489,0.0,0.0,-1.1679,-1.0753,-0.9357,-0.349,0.1267,0.4747,0.6318,0.7843,0.9314,1.1076,1.2631,1.3998,1.4944,1.6517,1.8483,1.8435,1.8358,1.8139,0.0,0.0,0.0,0.0,0.0,0.0,0.0,0.0,0.0,0.0,0.0,0.0,0.0,0.0,0.0,0.0,0.0,0.0,0.0,0.0,0.0,0.0,0.0,0.0,0.0,0.0,0.0,0.0,0.0,0.0,0.0,0.0,0.0,0.0,0.0,0.0,0.0,1.9716,2.0462,1.8731,2.0902,2.2246,0.0,0.0,0.0,0.0,0.0,0.0,2.4896,2.6232,2.7357,2.8217,2.8717,2.9125,2.9476,2.8932,2.8614,2.8504,2.8392,2.8033,2.7512,2.731,2.6998,2.6654,2.7192,2.7774,2.824,2.6806,2.5378,2.418,2.5202,2.5831,2.6168,2.6558,2.6847,2.7089,0.0,0.0,0.0,0.0,0.0,0.0,0.0,0.0,0.0,0.0,0.0,-0.0924,-0.2733,-0.4893,-0.761,-1.1118,-1.2756,-1.4836,-1.779,-1.603,-1.4759,-1.4538,-1.3238,-1.1788,-1.0278,-0.4576,-0.0105,0.3046,0.5148,0.7062,0.8776,1.1022,1.2728,1.3983,1.543,1.7247,1.9141,1.7313,1.7793,1.9695,1.8652,0.0,0.0,0.0,0.0,0.0,0.0,0.0,0.0,0.0,0.0,0.0,0.0,0.0,0.0,0.0,0.0,0.0,0.0,0.0,0.0,0.0,0.0,0.0,0.0,0.0,0.0,0.0,0.0,0.0,0.0,0.0,0.0,0.0,0.0,0.0,0.0,0.0,0.0,1.8528,2.1517,0.0,0.0,0.0,0.0,2.5323,2.6024,2.727,2.9351,2.9734,2.9825,2.9708,2.9851,2.9855,2.9696,2.9476,2.9729,3.0451,2.9429,2.9329,2.9989,2.9237,2.8876,2.8849,2.8885,2.9661,3.0656,2.7374,2.6513,2.7191,2.6454,2.7273,2.8813,2.8102,2.8302,2.8871,0.0,0.0,0.0,0.0,0.0,0.0,0.0,0.0,-1.0421,-0.9091,-0.8533,-0.8453,-0.8975,-1.1186,-1.3526,-1.5697,-1.6938,-1.7495,-1.7264,-1.646,-1.5219,-1.3487,-1.3059,-1.1394,-0.8247,-0.4302,-0.1002,0.1608,0.418,0.6274,0.7922,0.9766,1.131,1.2518,1.3286,1.4346,1.5638,1.6355,1.6799,1.6958,1.6469,1.6676,0.0,0.0,0.0,0.0,0.0,0.0,0.0,0.0,0.0,0.0,0.0,0.0,0.0,0.0,0.0,0.0,0.0,0.0,0.0,0.0,0.0,0.0,0.0,0.0,0.0,0.0,0.0,0.0,0.0,0.0,0.0,0.0,0.0,0.0,0.0,0.0,0.0,2.3267,2.5423,0.0,2.6544,2.7027,2.761,2.8296,2.8531,2.9226,3.0499,3.1283,3.1913,3.2368,3.2419,3.2587,3.2921,3.1607,3.1347,3.2132,3.1225,3.1049,3.148,3.118,3.0299,2.9064,3.0186,3.1916,3.3769,3.1559,3.003,2.9108,2.8957,2.8979,2.9121,2.941,2.9333,2.9143,0.0,0.0,0.0,0.0,0.0,0.0,0.0,0.0,-1.229,-1.207,-1.2893,-1.3632,-1.3967,-1.5984,-1.8102,-2.002,-1.9875,-1.9083,-1.771,-1.6474,-1.4923,-1.2998,-1.2787,-1.1003,-0.7282,-0.4936,-0.2204,0.0962,0.3269,0.5572,0.7866,0.8738,0.9866,1.115,1.1178,1.1444,1.2098,1.3819,1.4688,1.4964,1.5065,1.5312,1.5586,0.0,0.0,0.0,0.0,0.0,0.0,0.0,0.0,0.0,0.0,0.0,0.0,0.0,0.0,0.0,0.0,0.0,0.0,0.0,0.0,0.0,0.0,0.0,0.0,0.0,0.0,0.0,0.0,0.0,0.0,0.0,0.0,0.0,0.0,0.0,2.6129,2.7218,2.8711,2.9707,2.987,3.014,3.0456,3.0822,3.1023,3.1559,3.2463,3.2913,3.3374,3.3929,3.357,3.3519,3.3845,3.2572,3.2294,3.2989,3.2281,3.2182,3.26,3.209,3.1221,3.0107,3.0541,3.2542,3.5432,3.44,3.3085,3.1676,3.1287,3.1015,3.0852,3.1141,3.1064,3.0856,0.0,0.0,0.0,0.0,0.0,0.0,0.0,-1.4542,-1.4152,-1.2835,-1.4345,-1.6032,-1.7332,-1.8958,-2.1096,-2.3942,-2.1347,-1.9544,-1.9504,-1.6148,-1.3903,-1.337,-1.2634,-1.0804,-0.7814,-0.6668,-0.3762,0.0977,0.2352,0.4916,0.8515,0.8009,0.8515,0.9807,0.923,0.8946,0.8997,0.9572,1.1416,1.3921,1.4635,1.4789,1.4599,0.0,0.0,0.0,0.0,0.0,0.0,0.0,0.0,0.0,0.0,0.0,0.0,0.0,0.0,0.0,0.0,0.0,0.0,0.0,0.0,0.0,0.0,0.0,0.0,0.0,0.0,0.0,0.0,0.0,0.0,0.0,0.0,0.0,2.4898,2.7894,3.0052,2.9902,3.1011,3.138,3.0385,3.0958,3.1872,3.2897,3.3508,3.4336,3.5435,3.4699,3.4237,3.4237,3.3157,3.2473,3.2279,3.2241,3.252,3.3071,3.2541,3.2694,3.3412,3.1996,3.1705,3.2203,3.0102,3.1594,3.5509,3.5494,3.5354,3.495,3.3325,3.3312,3.4103,3.3256,3.3442,3.4038,0.0,0.0,0.0,0.0,0.0,0.0,0.0,-1.2939,-1.2949,-1.17,-1.471,-1.6987,-1.7109,-1.9675,-2.1465,-2.1744,-1.9726,-1.8117,-1.732,-1.4528,-1.3405,-1.4567,-1.3162,-1.1902,-1.0954,-0.783,-0.4873,-0.207,0.043,0.2707,0.4709,0.5175,0.5826,0.6672,0.6209,0.5889,0.5719,0.6069,0.725,0.8961,1.0658,1.1416,1.1419,0.0,0.0,0.0,0.0,0.0,0.0,0.0,0.0,0.0,0.0,0.0,0.0,0.0,0.0,0.0,0.0,0.0,0.0,0.0,0.0,0.0,0.0,0.0,0.0,0.0,0.0,0.0,0.0,0.0,0.0,0.0,0.0,2.666,2.6803,2.8836,3.074,3.1922,3.291,3.3647,3.3972,3.4227,3.4471,3.4762,3.4946,3.5163,3.5474,3.5276,3.5053,3.4859,3.4566,3.426,3.4015,3.3393,3.3564,3.451,3.4168,3.4338,3.4925,3.4899,3.478,3.4563,3.3973,3.4376,3.5499,3.5498,3.5446,3.5345,3.488,3.4505,3.416,3.393,3.3291,3.2598,0.0,0.0,0.0,0.0,0.0,0.0,0.0,-1.2646,-1.2818,-1.1851,-1.5137,-1.7305,-1.6624,-1.9122,-2.0601,-2.0006,-1.8582,-1.7121,-1.5746,-1.3628,-1.2908,-1.396,-1.2992,-1.2144,-1.1528,-0.8765,-0.6214,-0.3855,-0.1592,0.04,0.2098,0.2371,0.2817,0.351,0.2939,0.2621,0.2501,0.3039,0.4064,0.5545,0.7178,0.8837,1.0245,0.9241,0.9891,1.1332,1.1186,1.3009,1.5574,1.6296,0.0,0.0,0.0,0.0,0.0,0.0,0.0,0.0,0.0,0.0,0.0,0.0,0.0,0.0,0.0,0.0,0.0,0.0,0.0,0.0,0.0,0.0,0.0,0.0,2.8039,2.9592,3.0266,3.1296,3.2487,3.3833,3.4449,3.4949,3.5449,3.5493,3.5493,3.5493,3.5493,3.5493,3.5493,3.5161,3.5,3.5105,3.4761,3.4602,3.4694,3.4302,3.4602,3.56,3.5223,3.557,3.6551,3.6642,3.6259,3.5585,3.6969,3.6796,3.5504,3.5498,3.5493,0.0,0.0,0.0,0.0,0.0,3.4263,3.3653,0.0,0.0,0.0,0.0,0.0,0.0,0.0,-1.2968,-1.3177,-1.2557,-1.5468,-1.711,-1.5763,-1.7899,-1.9116,-1.8253,-1.7321,-1.595,-1.4027,-1.2917,-1.2358,-1.2384,-1.244,-1.1877,-1.0624,-0.9351,-0.7395,-0.4734,-0.3535,-0.1941,-0.006,-0.0561,-0.0443,0.0127,-0.0538,-0.0899,-0.0833,-0.0071,0.1204,0.2823,0.3909,0.658,1.0016,0.9599,1.01,1.0973,1.0628,1.19,1.3879,1.4667,0.0,0.0,0.0,0.0,0.0,0.0,0.0,0.0,0.0,0.0,0.0,0.0,0.0,0.0,0.0,0.0,0.0,0.0,0.0,0.0,0.0,0.0,0.0,0.0,3.0765,3.2703,3.4139,3.4353,3.4622,3.5411,3.5493,3.5493,3.5493,3.5493,3.5493,3.5493,3.5493,3.5493,3.5493,0.0,0.0,0.0,0.0,3.4236,3.4734,3.5094,3.5634,3.6339,3.6006,3.6613,3.7988,3.757,3.6829,3.6032,3.9018,3.8594,3.5773,3.5715,3.5608,3.5515,3.5515,3.5515,3.5522,3.5503,3.5599,3.5747,0.0,0.0,0.0,0.0,0.0,0.0,0.0,-1.2065,-1.2458,-1.1793,-1.4829,-1.622,-1.4051,-1.7293,-1.8234,-1.4758,-1.3861,-1.2391,-0.9769,-1.0746,-1.1512,-1.1623,-1.1943,-1.163,-1.068,-0.8958,-0.7275,-0.5739,-0.498,-0.4439,-0.4005,-0.4426,-0.4538,-0.4443,-0.487,-0.5008,-0.5041,-0.485,-0.3699,-0.1836,-0.007,0.3533,0.7828,0.7067,0.7585,0.8639,0.8128,1.0081,1.3057,1.3748,1.5327,1.7166,1.8025,1.8091,0.0,0.0,0.0,0.0,0.0,0.0,0.0,0.0,0.0,0.0,0.0,0.0,0.0,0.0,0.0,0.0,0.0,0.0,0.0,3.094,3.1882,3.2912,3.4952,3.5257,3.5315,3.5488,3.5493,3.5493,3.5493,3.5493,3.5493,3.5493,3.5493,3.5493,3.5493,3.5353,3.5211,3.5105,3.5151,3.5117,3.5016,3.5921,3.6469,3.6642,0.0,0.0,3.8007,3.8336,3.8372,3.8204,3.8849,3.8522,3.7473,3.7046,3.6357,3.5588,3.5588,3.5588,3.5523,3.4996,3.4827,3.4853,0.0,0.0,0.0,0.0,0.0,0.0,0.0,-1.1324,-1.166,-1.1524,-1.3666,-1.4537,-1.2744,-1.4163,-1.4336,-1.2067,-1.0678,-0.93,-0.7757,-0.9115,-1.0097,-1.0345,-1.0877,-1.0748,-0.9846,-0.8435,-0.7151,-0.6121,-0.595,-0.6207,-0.6786,-0.7278,-0.7756,-0.8408,-0.9058,-0.9102,-0.8784,-0.8946,-0.7651,-0.527,-0.3321,-0.007,0.368,0.5123,0.6253,0.7032,0.7125,0.8877,1.134,1.2348,1.4358,1.6619,1.7606,1.822,1.8771,0.0,0.0,0.0,0.0,0.0,0.0,0.0,0.0,0.0,0.0,0.0,0.0,0.0,0.0,2.6638,0.0,0.0,3.0509,3.2831,3.3691,3.4339,3.5181,3.5417,3.5493,3.5493,3.5493,3.5493,3.5493,3.5493,3.5493,3.5493,3.5493,3.5493,3.5493,3.5493,3.5369,3.5105,3.5369,3.5561,3.5696,3.6366,3.7142,3.8007,3.8284,3.8706,3.9258,3.9109,3.9262,3.9642,3.9657,3.9196,3.8334,3.7411,3.6751,3.6265,3.5896,3.5742,3.571,3.5373,3.5271,3.5306,0.0,0.0,0.0,0.0,0.0,0.0,0.0,-1.0895,-1.1031,-1.127,-1.2378,-1.2663,-1.1384,-1.0792,-1.0247,-0.969,-0.8113,-0.7058,-0.6836,-0.7957,-0.8708,-0.8856,-0.9791,-0.9866,-0.8959,-0.7979,-0.7231,-0.6612,-0.6974,-0.7877,-0.9122,-0.9983,-1.1017,-1.2134,-1.3252,-1.3429,-1.2808,-1.2949,-1.1423,-0.8748,-0.6722,-0.4061,-0.0923,0.278,0.4736,0.5675,0.6592,0.788,0.945,1.1187,1.3491,1.5762,1.6804,1.818,1.9503,1.9829,1.9497,0.0,0.0,0.0,0.0,0.0,0.0,0.0,0.0,0.0,2.6456,2.7275,2.8582,3.0143,3.1849,3.2789,3.3573,3.4396,3.5296,3.5683,3.5007,3.5119,3.518,3.5007,3.5295,3.5493,3.5493,3.5493,3.5493,3.5493,3.5493,3.5493,3.5493,3.5493,3.5398,3.519,3.5383,3.5767,3.6356,3.6761,3.7738,3.9277,3.8738,3.9181,4.0469,3.9815,3.9892,4.0504,4.053,3.9914,3.8849,3.7777,3.7322,3.7202,3.6629,3.6394,3.6384,3.6033,3.595,3.5996,0.0,0.0,0.0,0.0,0.0,0.0,0.0,0.0,-1.0964,-1.0657,-1.1308,-1.1158,-0.9498,-0.929,-0.8755,-0.7388,-0.6859,-0.6571,-0.654,-0.7524,-0.7881,-0.7374,-0.9238,-0.9841,-0.8817,-0.7968,-0.7693,-0.8148,-0.8652,-0.9737,-1.1283,-1.3709,-1.5238,-1.6048,-1.7609,-1.819,-1.812,-1.7305,-1.5718,-1.3576,-1.1021,-0.8133,-0.4932,-0.1315,0.1726,0.4213,0.5634,0.6616,0.7776,1.1038,1.3196,1.4768,1.6339,1.7737,1.8886,1.9263,0.0,1.9268,2.087,2.1949,2.3402,2.6637,2.6384,2.6498,0.0,0.0,3.0258,3.1535,3.237,3.3066,3.3724,3.4341,3.4966,3.56,3.5821,3.5533,3.4443,3.432,3.4064,3.3276,3.4564,3.5493,3.5493,3.5493,3.5493,3.5493,3.5493,3.5493,3.5493,3.5493,3.5493,3.5446,3.5493,3.5878,3.6652,3.7454,3.8334,3.9296,3.9931,4.0315,4.0489,4.0412,4.0412,4.0504,4.0642,4.0181,3.9329,3.9108,3.8714,3.8241,3.8147,3.819,3.8105,3.6562,3.5996,3.5996,0.0,0.0,0.0,0.0,0.0,0.0,0.0,0.0,0.0,-1.0024,-1.0534,-1.0399,-0.9026,-0.8528,-0.7633,-0.6041,-0.5943,-0.5884,-0.5633,-0.6469,-0.6835,-0.6566,-0.8751,-0.9528,-0.8568,-0.8567,-0.8431,-0.8164,-0.9787,-1.1475,-1.3295,-1.6057,-1.8342,-2.021,-2.1694,-2.2311,-2.2232,-2.1531,-1.9894,-1.7465,-1.4705,-1.1436,-0.7735,-0.3666,-0.0304,0.2591,0.5288,0.7182,0.0,1.0215,1.2217,1.4166,1.5122,1.6588,1.8094,1.854,1.8906,0.0,2.157,0.0,0.0,0.0,2.9015,2.9932,3.2422,3.3093,3.3278,3.3637,3.4572,3.5477,3.5974,3.591,3.5901,0.0,3.6111,3.5627,3.4824,3.3978,3.3314,3.2949,3.3141,3.368,3.4641,3.4597,3.4793,3.5455,3.5493,3.5493,3.5493,3.5493,3.5718,3.618,3.6199,3.6853,3.82,3.8565,3.9161,3.9988,4.0335,4.0489,4.0508,4.1027,4.1301,4.1338,4.0945,4.0602,4.0285,3.9739,3.9435,3.9213,3.8705,3.8552,3.8516,3.7773,3.7187,3.6836,0.0,0.0,0.0,0.0,0.0,0.0,0.0,0.0,0.0,0.0,-0.9786,-0.9642,-0.857,-0.7684,-0.6644,-0.532,-0.5282,-0.5188,-0.4856,-0.5621,-0.6103,-0.6184,-0.8156,-0.908,-0.8877,-0.9266,-0.9458,-0.9438,-1.15,-1.3812,-1.627,-1.8996,-2.1718,-2.4317,-2.5672,-2.6288,-2.6207,-2.5242,-2.344,-2.0979,-1.7573,-1.3725,-0.9448,-0.4809,-0.104,0.228,0.5475,0.768,0.9183,0.9967,1.1709,1.3643,1.4436,1.5996,1.7698,1.8401,1.9519,2.094,2.2815,0.0,0.0,2.951,3.1343,3.292,3.3829,3.5194,3.6096,3.5533,3.6211,3.6932,3.6943,3.6279,3.5789,3.5969,3.5758,3.5379,3.4823,3.348,3.2564,3.2564,3.1584,3.1591,3.3333,3.3743,3.4246,3.507,3.5372,3.5493,3.5493,3.5718,3.6103,3.668,3.693,3.7777,3.9277,3.9296,3.97,4.0489,4.0739,4.0854,4.0893,4.1782,4.2124,4.1992,4.1463,4.1128,4.0957,4.0366,4.0168,4.0195,3.9551,3.9316,3.9316,3.9316,3.8613,3.7754,0.0,0.0,0.0,0.0,0.0,0.0,0.0,0.0,0.0,0.0,0.0,0.0,0.0,-0.652,-0.5688,-0.5225,-0.4855,-0.4575,-0.4419,-0.5239,-0.5873,-0.619,-0.7338,-0.8596,-1.002,-1.0013,-1.0991,-1.3107,-1.4323,-1.6916,-2.0868,-2.3238,-2.5679,-2.82,-2.966,-3.0388,-3.0346,-2.8072,-2.6138,-2.4239,-1.9512,-1.4666,-0.9761,-0.465,-0.005,0.4015,0.6439,0.7574,0.8339,1.0797,1.2127,1.3041,1.4796,1.6437,1.7962,1.9279,2.143,2.3632,2.4806,0.0,2.8656,3.1183,3.3076,3.475,3.6317,3.7983,3.8831,3.7659,3.7452,3.707,3.5787,3.4859,3.4282,3.425,3.4524,3.4528,3.3927,3.2637,3.1737,3.1737,3.0062,2.9658,0.0,3.3237,3.4199,3.4237,3.5026,3.5493,3.5493,3.6238,3.668,3.6699,3.7526,3.8392,3.9277,3.9296,3.97,4.0508,4.1354,4.1758,4.1777,4.2737,4.2759,4.2093,4.2217,4.1777,4.1019,4.111,4.1152,4.1152,4.1133,4.1113,4.1113,4.1113,4.0039,3.8555,0.0,0.0,0.0,0.0,0.0,0.0,0.0,0.0,0.0,0.0,0.0,0.0,0.0,0.0,0.0,0.0,-0.4992,-0.4607,-0.5737,-0.5664,-0.5911,-0.6693,-0.8124,-0.9234,-1.0031,-1.1489,-1.2633,-1.3354,-1.6224,-1.8548,-2.0286,-2.3924,-2.6586,-2.8359,-2.9701,-3.0659,-3.1099,-2.8157,-2.6119,-2.4551,-2.091,-1.6126,-1.0502,-0.4374,-0.0153,0.3035,0.0,0.9435,1.0012,1.0414,1.1193,1.2062,1.2596,1.4207,1.6578,2.0011,2.2439,2.4441,2.6343,0.0,3.1893,3.3852,3.5674,3.7402,3.8917,3.9119,3.8551,3.7031,3.6065,3.5034,3.3468,3.2378,3.2216,3.3657,3.3412,3.3467,3.4749,3.4024,3.2949,3.1833,3.1111,0.0,0.0,0.0,0.0,3.4103,3.5007,3.5738,3.6276,3.7103,3.7834,3.8411,3.87,3.9258,4.0085,4.0085,4.0219,4.0504,4.0891,4.1996,4.3702,4.2949,4.2773,4.3075,4.258,4.1909,4.1149,4.1171,4.1191,4.1191,4.1191,4.1191,4.1191,4.1191,4.082,4.0332,0.0,0.0,0.0,0.0,0.0,0.0,0.0,0.0,0.0,0.0,0.0,0.0,0.0,0.0,0.0,0.0,0.0,-0.4631,-0.5813,-0.5902,-0.6342,-0.732,-0.8359,-0.9305,-1.0097,-1.157,-1.2667,-1.327,-1.6421,-1.8823,-2.0444,-2.3464,-2.5782,-2.7443,-2.8112,-2.8791,-2.9276,-2.6799,-2.4453,-2.216,-1.9235,-1.4479,-0.8478,-0.2646,0.0855,0.0,0.8444,1.0449,1.0716,1.0669,1.1535,1.2682,1.3223,1.5429,1.8427,2.1723,2.4039,2.6071,2.8444,3.1292,3.4088,3.6065,3.7395,3.8549,3.9793,3.8831,3.7179,3.5477,3.3783,3.2153,3.0688,2.9398,2.925,3.146,3.108,3.1445,3.4059,3.3506,3.2776,3.2602,3.2314,3.1698,0.0,0.0,0.0,3.366,3.5103,3.6161,3.668,3.7815,3.8719,3.9277,3.9565,4.0123,4.095,4.095,4.1285,4.1919,4.2071,4.3209,4.5144,4.3807,4.3365,4.3596,4.2752,4.1933,4.1191,4.1191,4.1191,4.1191,4.1191,4.1191,4.1191,4.1191,4.1191,4.1191,0.0,0.0,0.0,0.0,0.0,0.0,0.0,0.0,0.0,0.0,0.0,0.0,0.0,0.0,0.0,0.0,0.0,0.0,-0.4995,-0.6075,-0.71,-0.8052,-0.8208,-0.8887,-1.0316,-1.0529,-1.144,-1.306,-1.5197,-1.7929,-2.1206,-2.2052,-2.3548,-2.5544,-2.5324,-2.5232,-2.5203,-2.4032,-2.1261,-1.7397,-1.4752,-0.9985,-0.4057,0.0351,0.2989,0.4907,0.9242,1.05,1.0309,1.1531,1.3141,1.4946,1.6724,1.9813,2.3049,2.4303,2.6255,2.8546,3.1064,3.3232,3.5327,3.7704,3.8239,3.8326,3.897,3.7193,3.49,3.3111,3.0704,2.8617,0.0,0.0,2.5682,2.8001,2.7968,2.8817,3.2187,3.1583,3.1679,0.0,0.0,0.0,0.0,0.0,0.0,3.316,0.0,3.6738,3.6834,3.843,3.9354,3.9354,4.0142,4.095,4.1797,4.1835,4.2748,4.4517,4.4598,4.5131,4.6015,4.5137,4.434,4.3594,4.2812,4.1973,4.1211,4.1289,4.1289,4.1191,4.125,4.123,4.1191,4.125,4.123,4.1211,0.0,0.0,0.0,0.0,0.0,0.0,0.0,0.0,0.0,0.0,0.0,0.0,0.0,0.0,0.0,0.0,0.0,0.0,-0.7851,-0.7899,-0.8404,-0.9584,-0.9944,-1.0371,-1.0875,-1.1862,-1.2851,-1.3826,-1.5622,-1.7214,-1.8606,-2.0604,-2.1815,-2.239,-2.4441,-2.3675,-2.0795,-2.0186,-1.7613,-1.3589,-0.9504,-0.6057,-0.2782,0.2799,0.4883,0.524,0.8352,0.918,0.9336,1.2859,0.0,0.0,0.0,2.1719,2.3351,2.6139,2.8763,3.1222,3.3213,3.6083,3.8453,3.8207,3.8735,3.8818,3.6953,3.4632,3.2167,2.978,2.7207,2.512,0.0,0.0,0.0,2.7605,2.8823,0.0,3.4251,3.5498,0.0,3.6065,0.0,3.6219,3.4968,3.5584,0.0,0.0,3.6334,3.7276,3.8565,3.9623,4.0181,4.0181,4.1027,4.1585,4.1797,4.2488,4.3507,4.4793,4.4167,4.4364,4.5251,4.4372,4.3515,4.2754,4.3183,4.2539,4.1308,4.2558,4.2324,4.1269,4.1855,4.1738,4.1269,4.1875,4.1719,4.1289,0.0,0.0,0.0,0.0,0.0,0.0,0.0,0.0,0.0,0.0,0.0,0.0,0.0,0.0,0.0,0.0,0.0,0.0,0.0,-0.8803,-0.9299,-0.9862,-1.0494,-1.0888,-1.1063,-1.1454,-1.1992,-1.2617,-1.4258,-1.5383,-1.5997,-1.7271,-1.8274,-1.8924,-1.7535,-1.4512,-1.0551,-1.1754,-1.0142,0.0,0.0,-0.3389,-0.0706,0.306,0.4471,0.4771,0.726,0.9623,0.0,0.0,0.0,2.1258,2.3676,2.5242,2.6745,2.9384,0.0,3.3491,3.5674,3.7998,3.9649,3.8974,3.8669,3.7806,3.5124,3.2322,2.9536,2.6928,2.4613,0.0,2.2466,0.0,0.0,0.0,0.0,0.0,3.2724,3.441,3.5468,0.0,3.7257,0.0,3.6161,3.7142,3.7834,0.0,3.7834,3.8277,3.9238,4.0046,4.0489,4.0489,4.1354,4.219,4.2975,4.3916,4.4731,4.541,4.4982,4.4858,4.4961,4.4101,4.3437,4.2988,0.0,4.2812,4.2363,4.3301,4.3144,4.2344,4.2793,4.2695,4.2344,4.2793,4.2674,4.2257,0.0,0.0,0.0,0.0,0.0,0.0,0.0,0.0,0.0,0.0,0.0,0.0,0.0,0.0,0.0,0.0,0.0,0.0,0.0,0.0,-0.9987,-0.9699,-1.0406,-1.0862,-1.0927,-1.0254,-1.014,-1.067,-1.2117,-1.3132,-1.371,-1.3692,-1.4549,-1.5784,-0.867,-0.3064,0.0879,-0.1897,-0.1523,0.0719,-0.1986,-0.1261,0.1466,0.0,0.3132,0.3912,0.6061,1.0332,0.0,0.0,2.0914,2.4014,2.6889,2.916,3.1113,3.2982,3.4198,3.5508,3.81,3.9331,3.9868,3.972,3.8277,3.6132,3.3265,3.0059,2.6997,2.4478,0.0,2.1477,2.1531,2.0963,2.1269,2.3703,0.0,2.587,2.9987,3.141,3.2929,3.5372,3.7046,3.7757,3.7123,3.8411,3.9335,3.945,3.945,3.945,3.945,4.0123,4.0604,4.0835,4.1597,4.284,4.4672,4.5512,4.5995,4.612,4.6246,4.584,4.4961,4.4219,4.3808,4.3652,4.3027,4.3105,4.3711,4.3945,4.3906,4.3711,4.3828,4.3808,4.369,4.3808,4.3735,4.3475,0.0,0.0,0.0,0.0,0.0,0.0,0.0,0.0,0.0,0.0,-0.9513,-0.9374,0.0,0.0,0.0,0.0,0.0,0.0,0.0,0.0,0.0,-1.0661,-1.0791,-1.0751,-1.0506,-0.9794,-0.9758,-1.0439,-1.1124,-1.1854,-1.2686,-1.3657,-1.4405,-1.4616,-0.62,-0.0457,0.293,0.2793,0.2552,0.2207,0.1628,0.155,0.1927,0.3184,0.0,0.0,0.4979,0.0,0.0,1.6384,2.1324,2.6229,2.9008,3.0665,3.2055,3.4484,3.5924,3.7282,3.9746,4.0663,4.0734,3.9836,3.7886,3.5091,3.0977,2.7451,0.0,0.0,2.0858,1.986,2.0577,2.107,2.1965,2.3802,0.0,0.0,0.0,0.0,3.443,0.0,0.0,0.0,0.0,0.0,0.0,0.0,0.0,4.0277,4.0277,4.0412,4.1162,4.2604,4.285,4.3831,4.5638,4.5936,4.612,4.6268,4.6289,4.584,4.498,4.4844,4.4375,4.373,4.4297,0.0,4.3808,4.5254,4.5,4.3769,4.4492,4.4292,4.37,4.4364,4.4109,4.3522,0.0,0.0,0.0,0.0,0.0,0.0,0.0,-0.9761,-0.9749,-1.0245,-1.0215,-1.0095,-0.9979,-0.9923,0.0,0.0,0.0,0.0,0.0,0.0,0.0,0.0,0.0,0.0,-1.0203,-0.9855,-0.981,0.0,0.0,-1.1229,-1.1485,-1.2522,-1.3217,-1.3281,-0.5835,0.01,0.4713,0.7162,0.7307,0.5745,0.4122,0.325,0.2884,0.0,0.0,0.0,0.0,0.0,0.0,0.0,1.9967,2.4529,2.8362,3.0626,3.228,3.44,3.5684,3.6991,3.9626,4.0369,4.0094,3.8732,3.6202,3.2988,2.9042,0.0,0.0,0.0,2.0508,2.0052,2.0432,0.0,0.0,0.0,0.0,0.0,0.0,0.0,0.0,0.0,0.0,0.0,0.0,0.0,0.0,0.0,0.0,4.0489,4.0489,4.1012,4.1865,4.312,4.3676,4.4636,4.5995,4.6075,4.6173,4.6308,4.6308,4.584,4.5,4.5,4.4766,4.4394,4.4824,4.5019,4.5117,4.5957,4.5801,4.5097,4.5442,4.5308,4.4933,4.5267,4.5071,4.4644,0.0,0.0,0.0,0.0,0.0,0.0,0.0,-1.0286,-1.0488,-1.0686,-1.0544,-1.0492,-1.0591,-0.9961,-0.9558,0.0,0.0,0.0,0.0,0.0,0.0,0.0,0.0,0.0,0.0,0.0,0.0,0.0,0.0,0.0,0.0,0.0,0.0,0.0,0.0,-0.1481,0.472,0.9512,1.0538,0.0,0.0,0.4774,0.0,0.0,0.0,0.0,0.0,0.0,0.0,0.0,1.8191,2.152,2.5644,2.8831,3.1333,3.2701,3.4231,3.602,3.8604,3.9385,3.9122,3.7655,3.4433,3.0761,2.7441,2.4531,0.0,0.0,2.0176,2.0253,2.001,0.0,2.047,0.0,0.0,0.0,0.0,0.0,0.0,0.0,0.0,0.0,0.0,0.0,0.0,0.0,0.0,0.0,4.0815,4.1763,4.269,4.3493,4.4314,4.5176,4.6089,4.612,4.62,4.6308,4.6308,4.5937,4.5273,4.5273,4.5273,4.5273,4.5273,4.5664,4.6308,4.6308,4.6289,4.6247,4.6144,4.6075,4.6014,4.5918,4.5825,4.5664,0.0,0.0,0.0,0.0,0.0,0.0,0.0,-1.0509,-1.1216,-1.0527,-0.975,-0.9608,-1.0494,-1.0201,-0.9676,0.0,0.0,0.0,0.0,0.0,0.0,0.0,0.0,0.0,0.0,0.0,0.0,0.0,0.0,0.0,0.0,0.0,0.0,0.0,0.0,0.0,0.0,0.7624,0.0,0.0,0.0,0.0,0.0,0.0,0.0,0.0,0.0,0.0,0.0,0.0,0.0,1.8538,2.035,2.4337,2.8385,2.8539,0.0,0.0,3.6875,3.8016,3.8476,3.7539,3.3495,2.9035,2.6335,0.0,0.0,1.8517,1.8824,1.918,1.8379,1.8821,1.9604,0.0,0.0,2.3386,0.0,0.0,0.0,0.0,0.0,0.0,0.0,0.0,0.0,0.0,0.0,0.0,4.1865,4.2762,4.3661,4.4528,4.4766,4.5269,4.6089,4.6223,4.6289,4.6308,4.6308,4.6269,4.6172,4.6172,4.6172,4.6172,4.6172,4.623,0.0,4.6308,4.6225,4.6117,4.6093,4.5979,4.5828,4.5815,4.5733,4.5601,0.0,0.0,0.0,0.0,0.0,0.0,-0.9713,-1.0082,-1.0415,-1.0614,-1.0234,-0.9954,-1.0,-0.9927,-0.9684,-0.9178,0.0,0.0,0.0,0.0,0.0,0.0,0.0,0.0,0.0,0.0,0.0,0.0,0.0,0.0,0.0,0.0,0.0,0.0,0.0,0.0,0.0,0.0,0.0,0.0,0.0,0.0,0.0,0.0,0.0,0.0,0.0,0.0,0.0,0.0,0.0,0.0,1.4896,1.7727,0.0,0.0,2.849,3.1259,3.4103,3.5483,3.5825,3.4549,3.0682,2.667,2.4578,0.0,1.8739,1.803,1.8207,1.8354,1.8003,1.8652,1.9368,1.9667,1.9843,0.0,0.0,0.0,0.0,0.0,0.0,0.0,0.0,0.0,0.0,0.0,0.0,0.0,4.2967,4.3818,4.446,4.4805,4.5428,4.5893,4.6223,4.5741,4.5781,4.6289,4.5762,4.5781,4.6308,4.6308,4.6308,4.6308,4.6308,4.6308,0.0,4.6202,4.6147,4.6084,4.5974,4.5878,4.5783,4.5708,4.5651,4.5586,0.0,0.0,0.0,0.0,0.0,-0.9279,-0.9783,-0.9729,-0.9823,-1.0376,-1.0287,-1.009,-0.9861,-0.9574,-0.9371,-0.9337,-0.897,0.0,0.0,0.0,0.0,0.0,0.0,0.0,0.0,0.0,-0.9091,-0.9078,-0.9154,0.0,0.0,0.0,0.0,0.0,0.0,0.0,0.0,0.0,0.0,0.0,0.0,0.0,0.0,0.0,0.0,0.0,0.0,0.0,0.0,0.0,0.0,0.0,0.0,0.0,1.6342,0.0,2.4444,2.7487,3.0054,3.1877,3.2721,3.1385,2.7946,2.4458,0.0,0.0,1.7417,1.7176,1.735,1.7439,1.7185,1.7903,1.8593,1.8789,1.8999,2.024,2.3425,0.0,0.0,0.0,0.0,0.0,0.0,0.0,0.0,0.0,0.0,0.0,4.3595,4.4195,4.4787,4.5294,4.5955,4.6308,4.6308,4.5683,4.5683,4.6289,4.5683,4.5703,4.6308,4.6308,4.6308,4.6308,4.6308,4.6308,0.0,4.617,4.608,4.6027,4.5867,4.5789,4.5718,4.5635,4.5586,4.5586,0.0,0.0,0.0,0.0,0.0,0.0,-0.9088,-0.9571,-0.9822,-0.963,-0.9493,-0.9661,-1.032,-0.9213,-0.869,-0.9332,-0.8802,0.0,0.0,0.0,0.0,0.0,0.0,0.0,0.0,0.0,-0.9088,-0.95,-0.9098,-0.8895,-0.8904,0.0,0.0,0.0,0.0,0.0,0.0,0.0,0.0,0.0,0.0,0.0,0.0,0.0,0.0,0.0,0.0,0.0,0.0,0.0,0.0,0.0,0.0,1.266,1.2947,1.3931,1.9074,2.4445,2.4472,2.7012,2.9434,2.8555,2.5655,2.2586,0.0,1.8445,1.6281,1.5485,1.6002,1.6356,1.5493,1.6085,1.6988,1.7771,2.0078,0.0,2.2978,0.0,0.0,0.0,0.0,0.0,0.0,0.0,0.0,0.0,0.0,0.0,4.3556,4.3667,4.4492,4.623,4.6289,4.6308,4.6308,4.6289,4.6289,4.6308,4.6289,4.6289,4.6308,4.6308,4.6308,4.6308,4.6308,4.6308,0.0,4.617,4.6027,4.5909,4.5832,4.5723,4.5603,4.5586,4.5586,4.5586,0.0,0.0,0.0,0.0,0.0,0.0,0.0,-0.9123,-0.9131,-0.9134,-0.901,-0.9035,-0.9342,-0.892,-0.8639,-0.8706,-0.853,0.0,0.0,0.0,0.0,0.0,0.0,0.0,0.0,0.0,-0.9362,-0.9502,-0.9644,-0.9435,-0.8912,-0.9457,-0.9913,0.0,0.0,0.0,0.0,0.0,0.0,0.0,0.0,0.0,0.0,0.0,0.0,0.0,0.0,0.0,0.0,0.0,0.0,0.0,0.0,0.0,0.0,1.1496,1.5028,0.0,2.1243,2.2943,2.4145,2.392,2.2112,2.0091,1.8923,1.7083,1.5534,1.5279,1.5496,1.5622,1.5346,1.6512,1.7808,1.8644,2.048,2.2303,0.0,0.0,0.0,0.0,0.0,0.0,0.0,0.0,0.0,0.0,0.0,0.0,4.3629,4.4257,4.5117,4.6269,4.5137,4.5098,4.6289,4.5117,4.5117,4.6289,4.5703,4.5723,4.6308,4.6308,4.6308,4.6308,4.6308,4.6308,4.6289,4.6069,4.5932,4.5881,4.5728,4.5635,4.5586,4.5586,4.5586,4.5586,0.0,0.0,0.0,0.0,0.0,0.0,0.0,-0.9101,-0.9002,-0.9036,-0.8979,-0.9004,-0.9212,-0.894,-0.8747,-0.8783,-0.8546,0.0,0.0,0.0,0.0,0.0,0.0,0.0,0.0,-0.9656,-1.042,-1.1655,-1.1725,-1.1504,-1.1023,-1.1719,-1.1412,-1.0276,-0.9931,0.0,0.0,0.0,0.0,0.0,0.0,0.0,0.6096,0.0,0.0,0.0,0.0,0.0,0.0,0.0,0.0,0.0,0.0,0.0,0.0,0.0,1.1995,1.469,0.0,1.9158,2.028,2.0311,1.9495,0.0,0.0,1.6217,1.5189,1.5189,1.5229,1.526,1.526,1.642,1.7762,1.8924,2.0625,2.2405,0.0,0.0,0.0,0.0,0.0,0.0,0.0,0.0,0.0,0.0,0.0,0.0,4.3183,4.4043,4.4766,4.5293,4.459,4.4863,4.6289,4.4902,4.4902,4.6289,4.543,4.5469,4.6289,4.5957,4.5996,4.6308,4.6308,4.6308,0.0,4.6001,4.5899,4.5881,4.5688,4.5586,4.5586,4.5586,4.5586,4.5586,0.0,0.0,0.0,0.0,0.0,0.0,0.0,-0.9403,-0.9331,-0.9312,-0.9312,-0.9414,-0.9735,-0.9195,-0.8971,-0.934,0.0,0.0,0.0,0.0,0.0,0.0,0.0,0.0,-1.0112,-1.0234,-1.1787,-1.4839,-1.4616,-1.4498,-1.4522,-1.4988,-1.3588,-1.0616,-0.9316,-0.7946,-0.6754,0.0,0.0,0.0,0.0,0.0,0.0,0.0,0.0,0.0,0.0,0.0,0.0,0.0,0.0,0.0,0.0,0.0,0.0,0.0,0.0,0.0,0.0,1.5592,1.7465,0.0,0.0,0.0,1.6575,1.5777,0.0,1.5189,1.5189,1.5228,1.5368,1.6099,1.7261,1.898,2.0841,0.0,0.0,0.0,0.0,0.0,0.0,0.0,0.0,0.0,0.0,0.0,0.0,0.0,4.248,4.3262,4.373,4.3789,4.4512,4.5293,4.6113,4.5312,4.5351,4.6191,4.5391,4.5469,4.6269,4.5469,4.5527,0.0,4.6308,4.6308,4.6289,4.6001,4.5899,4.5881,4.5688,4.5586,4.5586,4.5586,4.5586,4.5586,0.0,0.0,0.0,0.0,0.0,0.0,0.0,0.0,0.0,0.0,-0.933,-0.9327,-0.9407,-0.922,-0.9101,0.0,0.0,0.0,0.0,0.0,0.0,0.0,0.0,0.0,-1.0258,-1.0275,-1.0634,-1.1307,-1.3453,-1.4498,-1.4498,-1.4991,-1.4839,-1.3981,-0.9257,-0.6937,-0.6583,-0.6408,0.0,0.0,0.0,0.0,0.0,0.0,0.0,0.0,0.6718,0.7276,0.0,0.0,0.0,0.0,0.0,0.0,0.0,0.0,1.0052,1.0255,1.0879,0.0,1.3318,1.4607,1.49,1.5007,0.0,1.5342,1.5189,1.5189,0.0,1.5599,1.6888,1.7812,1.9194,2.1585,2.3461,0.0,0.0,0.0,0.0,0.0,0.0,0.0,0.0,0.0,0.0,0.0,0.0,4.2031,4.332,4.3594,4.4004,4.4668,4.4258,4.4101,4.4316,4.4101,4.4433,4.5293,4.5098,4.5469,4.6289,4.6094,4.6113,4.6308,4.6308,4.6308,4.6289,4.6001,4.5899,4.5881,4.5688,4.5586,4.5586,4.5586,4.5586,4.5586,0.0,0.0,0.0,0.0,0.0,0.0,0.0,0.0,0.0,0.0,0.0,0.0,0.0,0.0,0.0,0.0,0.0,0.0,0.0,0.0,0.0,0.0,0.0,-1.0266,-1.0203,-1.0215,-1.0209,-1.0189,-1.1735,-1.4095,-1.718,-1.742,-1.7404,-1.6795,-0.7635,-0.3564,-0.3535,-0.2992,-0.1696,0.0207,0.2564,0.0,0.0,0.0,0.0,0.0,0.6816,0.7227,0.0,0.8219,0.8636,0.9059,0.0,0.0,0.0,0.0,1.0057,1.0094,1.0094,1.1316,1.2815,1.3734,1.456,1.5264,1.5701,1.5484,1.5189,0.0,0.0,1.6195,1.7465,1.8763,2.0495,2.3082,2.4657,0.0,0.0,0.0,0.0,0.0,0.0,0.0,0.0,0.0,0.0,0.0,0.0,4.2148,4.3066,4.3867,4.4141,4.3828,4.4121,4.4101,4.3691,4.3301,4.373,4.5,4.459,4.5078,4.6289,4.5898,4.5918,4.6308,4.6308,4.6308,4.6289,4.6001,4.5899,4.5881,4.5688,4.5586,4.5586,4.5586,4.5586,4.5586,0.0,0.0,0.0,0.0,0.0,0.0,0.0,0.0,0.0,0.0,0.0,0.0,0.0,0.0,0.0,0.0,0.0,0.0,0.0,0.0,0.0,0.0,0.0,-1.0232,-1.009,-1.0104,-1.0168,-1.0302,-1.0698,-1.3838,-1.9525,-1.9949,-1.9285,-1.719,-0.5294,0.0,0.0,0.0,0.0,0.0211,0.2566,0.0,0.0,0.0,0.0,0.0,0.0,0.0,0.0,0.8198,0.8665,0.9062,0.9349,0.0,0.0,0.0,0.0,0.0,1.0094,1.2065,1.4052,1.3791,1.5118,1.6503,1.6503,0.0,0.0,0.0,0.0,0.0,0.0,1.9689,0.0,0.0,0.0,0.0,0.0,0.0,0.0,0.0,0.0,0.0,0.0,0.0,0.0,0.0,0.0,4.2266,4.2383,4.3808,4.3926,4.2441,4.3828,4.4199,4.332,4.2832,4.3262,4.4609,4.4121,4.4668,4.6074,4.5469,4.5605,4.6308,0.0,0.0,4.6289,4.6001,4.5899,4.5881,4.5688,4.5586,4.5586,4.5586,4.5586,4.5586,0.0,0.0,0.0,0.0,0.0,0.0,0.0,0.0,0.0,0.0,0.0,0.0,0.0,0.0,0.0,0.0,0.0,0.0,0.0,0.0,0.0,-1.0078,-1.0224,-1.0246,-1.011,-1.009,-1.0168,-1.0292,-1.3064,-1.4941,-1.6024,-1.8369,-1.6238,-1.0197,-0.314,0.0,0.0,0.0,0.0,0.0195,0.2556,0.0,0.0,0.0,0.0,0.0,0.0,0.0,0.0,0.819,0.865,0.9152,0.9468,0.0,0.0,0.0,0.0,0.0,1.0094,1.2541,1.4732,1.3258,1.472,1.6503,1.6503,1.6926,0.0,0.0,0.0,0.0,0.0,0.0,0.0,0.0,0.0,0.0,0.0,0.0,0.0,0.0,0.0,0.0,0.0,0.0,0.0,0.0,0.0,4.168,4.2363,4.2656,4.2676,4.2402,4.2656,4.2402,4.1582,4.2851,4.3262,4.2812,4.416,4.4941,4.5215,4.582,4.6172,4.6308,0.0,4.6308,4.6289,4.6001,4.5899,4.5881,4.5688,4.5586,4.5586,4.5586,4.5586,4.5586,0.0,0.0,0.0,0.0,0.0,0.0,0.0,0.0,0.0,0.0,0.0,0.0,0.0,0.0,0.0,0.0,0.0,0.0,0.0,0.0,0.0,-1.0083,-1.0166,-1.0154,-1.0089,-1.1905,-1.2021,-1.029,-1.1733,-1.4339,-1.7919,-1.6099,-1.278,-0.8124,-0.2506,0.1587,0.4091,0.122,0.1064,0.2811,0.0,0.0,0.0,0.0,0.0,0.0,0.0,0.0,0.0,0.0,0.8987,0.9407,0.9638,0.0,0.0,0.0,0.0,0.0,1.0094,1.2289,1.4299,1.3013,1.5318,1.7779,1.7266,1.7426,0.0,0.0,0.0,0.0,0.0,0.0,0.0,0.0,0.0,0.0,0.0,0.0,0.0,0.0,0.0,0.0,0.0,0.0,0.0,0.0,4.1052,4.1453,4.2292,4.2381,4.2402,4.2402,4.2402,4.2012,4.1211,4.2402,4.2793,4.2422,4.3691,4.4531,4.5039,4.5898,4.6308,4.6308,0.0,4.6308,4.6289,4.6001,4.5899,4.5881,4.5688,4.5586,4.5586,4.5586,4.5586,4.5586,0.0,0.0,0.0,0.0,0.0,0.0,0.0,0.0,0.0,0.0,0.0,0.0,0.0,0.0,0.0,0.0,0.0,0.0,0.0,0.0,-1.0096,-1.0098,-1.0097,-1.0093,-1.0101,-1.3489,-1.4405,-1.2706,-1.2568,-1.4612,-1.857,-1.3492,-0.9299,-0.5806,-0.012,0.445,0.7635,0.3577,0.3116,0.502,0.0,0.0,0.0,0.0,0.0,0.0,0.0,0.0,0.0,0.0,0.0,0.0,0.0,0.0,0.0,1.0082,1.0094,1.0098,1.0113,1.1879,1.3561,1.2882,0.0,1.8653,1.8164,1.821,0.0,0.0,0.0,0.0,0.0,0.0,0.0,0.0,0.0,0.0,0.0,0.0,0.0,0.0,0.0,0.0,0.0,0.0,0.0,0.0,4.0755,4.1097,4.1989,4.1892,4.1914,4.2109,4.2129,4.1816,4.1211,4.1816,4.2129,4.2129,4.3398,4.4258,4.4726,4.5801,4.6308,4.6308,4.6308,4.6289,4.6226,4.5995,4.5881,4.5852,4.5673,4.5586,4.5586,4.5586,4.5586,4.5586,0.0,0.0,0.0,0.0,0.0,0.0,0.0,0.0,0.0,0.0,0.0,0.0,0.0,0.0,0.0,0.0,0.0,0.0,0.0,0.0,-1.0106,-1.0094,-1.0106,-1.0101,-1.0101,-1.3563,-1.6855,-1.9863,-1.9663,-1.7632,-1.3838,-1.0603,-0.6054,-0.0273,0.6528,0.8933,0.7871,0.7491,0.6467,0.5095,0.502,0.0,0.0,0.0,0.0,0.0,0.0,0.0,0.0,0.0,0.0,0.0,0.0,0.0,1.009,1.0094,1.0094,1.0106,1.0173,1.1504,1.2873,1.2803,1.5355,1.8092,1.8905,1.9663,0.0,2.3404,0.0,0.0,0.0,0.0,0.0,0.0,0.0,0.0,0.0,0.0,0.0,0.0,0.0,0.0,0.0,0.0,0.0,4.0929,4.0251,4.0232,4.123,4.0527,4.0449,4.1269,4.1289,4.1269,4.1191,4.1269,4.1289,4.1328,4.375,4.4512,4.3848,4.5527,4.6308,4.6308,4.6308,4.6225,4.6089,4.5967,4.5871,4.5777,4.5648,4.5586,4.5586,4.5586,4.5586,4.5586,0.0,0.0,0.0,0.0,0.0,0.0,0.0,0.0,0.0,0.0,0.0,0.0,0.0,0.0,0.0,0.0,0.0,0.0,0.0,-1.0101,-1.0034,-0.9857,-1.0006,-1.0133,-1.0221,-1.3628,-1.6005,-1.7239,-1.4871,-1.2638,-1.0567,-0.9005,-0.3022,0.6518,0.9136,0.9401,0.7901,0.7901,0.6817,0.5205,0.6373,0.6836,0.0,0.0,0.0,0.0,0.0,0.0,0.0,0.0,0.9699,0.9911,1.002,1.0078,1.0094,1.0094,1.0094,1.0106,1.018,1.1862,1.3489,1.2949,1.5376,0.0,0.0,2.0651,2.2454,2.4046,2.5183,0.0,0.0,0.0,0.0,0.0,0.0,0.0,0.0,0.0,0.0,0.0,0.0,0.0,0.0,0.0,3.9044,3.9952,3.931,3.9283,4.0218,3.9529,3.9492,4.0351,4.0391,4.0644,4.1191,4.1191,4.1445,4.1953,4.3476,4.4297,4.4551,4.5742,4.5996,4.5527,4.5987,4.5835,4.5319,4.5697,4.582,4.5783,4.5648,4.5586,4.5586,4.5586,4.5586,4.5586,0.0,0.0,0.0,0.0,0.0,0.0,0.0,0.0,0.0,0.0,0.0,0.0,0.0,0.0,0.0,0.0,0.0,0.0,-1.0101,-1.002,-0.9889,-0.9712,-0.9873,-1.0051,-1.0239,-1.2564,-1.3722,-1.359,-1.1062,-0.96,-0.9148,-0.8805,-0.1872,1.0285,0.9767,0.8936,0.7899,0.7909,0.7272,0.6385,0.7475,0.8031,0.0,0.0,0.0,0.0,0.0,0.0,0.0,0.0,0.9873,1.0006,1.0078,1.0094,1.0094,1.0094,1.0094,1.011,1.0172,1.1711,1.3217,1.2905,0.0,0.0,1.9392,2.1199,2.3137,2.4873,2.6121,0.0,0.0,0.0,0.0,0.0,0.0,0.0,0.0,0.0,0.0,0.0,0.0,0.0,0.0,0.0,3.8519,3.9431,3.8817,3.8912,4.0118,3.9177,3.9004,3.9863,3.9902,4.0195,4.0781,4.0781,4.1328,4.2402,4.3008,4.3887,4.5039,4.5858,4.5914,4.5366,4.5835,4.569,4.5141,4.5623,4.5789,4.5737,4.5635,4.5586,4.5586,4.5586,4.5586,4.5586,0.0,0.0,0.0,0.0,0.0,0.0,0.0,0.0,0.0,0.0,0.0,0.0,0.0,0.0,0.0,0.0,0.0,0.0,-1.0101,-0.9837,-0.9706,-0.9706,-0.9694,-0.9819,-1.0086,-1.0236,-1.0232,-1.0098,-1.0093,-0.9963,-0.97,-1.0047,-0.2883,1.0215,0.8593,0.789,0.7904,0.79,0.8284,0.884,0.8169,0.8316,0.8959,0.0,0.0,0.0,0.0,0.0,0.0,0.0,0.9949,1.0006,1.0078,1.0094,1.0094,1.0094,1.0113,1.0136,1.0198,1.0861,1.1754,0.0,0.0,0.0,2.0234,2.1309,2.2891,2.6309,0.0,2.6919,2.6992,0.0,0.0,0.0,0.0,0.0,0.0,0.0,0.0,0.0,0.0,0.0,0.0,3.7674,3.8596,3.9598,3.8865,3.9198,4.1054,3.9512,3.8965,3.9844,3.9883,3.9883,3.9902,3.9902,4.0742,4.2402,4.2402,4.3301,4.5019,4.574,4.6089,4.6065,4.5947,4.5861,4.5777,4.5796,4.5723,4.5586,4.5586,4.5586,4.5586,4.5586,4.5586,4.5586,0.0,0.0,0.0,0.0,0.0,0.0,0.0,0.0,0.0,0.0,0.0,0.0,0.0,0.0,0.0,0.0,0.0,0.0,-0.9817,-0.9738,-0.9696,-0.9698,-0.9705,-0.9735,-0.9807,-1.0048,-1.0137,-1.0098,-1.0195,-1.0061,-0.9607,-0.5144,0.1118,0.853,0.6733,0.693,0.8572,0.81,0.8284,0.8873,0.8677,0.8724,0.8938,0.0,0.0,0.0,0.0,0.0,0.0,0.0,0.0,0.0,1.009,1.0094,1.0094,1.0094,1.054,1.1015,1.1031,1.2579,0.0,1.5341,0.0,0.0,0.0,2.3516,0.0,0.0,2.7402,2.7145,2.7744,0.0,0.0,0.0,0.0,0.0,0.0,0.0,0.0,0.0,0.0,0.0,0.0,3.6259,3.6865,3.787,3.7175,3.7224,3.8398,3.7383,3.7168,3.8047,3.8066,3.8652,3.9883,3.9902,4.0742,4.2402,4.2402,4.2966,4.4045,4.4829,4.4835,4.4265,4.5356,4.5479,4.4918,4.5461,4.5635,4.5586,4.5586,4.5586,4.5586,4.5586,4.5586,4.5586,0.0,0.0,0.0,0.0,0.0,0.0,0.0,0.0,0.0,0.0,0.0,0.0,0.0,0.0,0.0,0.0,0.0,0.0,0.0,-0.9696,-0.9695,-0.9706,-0.9705,-0.9703,-0.9708,-0.9954,-1.0058,-0.9939,-0.9806,-0.9625,-0.9265,-0.4339,-0.0538,0.2158,0.2795,0.5091,0.8493,0.8361,0.8526,0.8907,0.8908,0.8908,0.8925,0.0,0.0,0.0,0.0,0.0,0.0,0.0,0.0,0.0,1.0121,1.0147,1.0131,1.0148,1.0518,1.0992,1.1344,0.0,0.0,1.6399,1.8925,2.1641,2.3672,0.0,0.0,0.0,0.0,0.0,0.0,0.0,0.0,0.0,0.0,0.0,0.0,0.0,0.0,0.0,0.0,0.0,3.5163,3.5846,3.6562,3.7192,3.6795,3.6894,3.7773,3.6992,3.6758,3.7285,3.7305,3.7969,3.9375,3.9332,4.017,4.1849,4.1799,4.2002,4.2493,4.4046,4.4226,4.3394,4.4666,4.5104,4.4974,4.5406,4.5586,4.5586,4.5586,4.5586,4.5586,4.5586,4.5586,4.5586,0.0,0.0,0.0,0.0,0.0,0.0,0.0,0.0,0.0,0.0,0.0,0.0,0.0,0.0,0.0,0.0,0.0,0.0,0.0,0.0,-0.9701,-0.9709,-0.9728,-0.973,-0.9706,-0.9942,-0.9929,-0.9625,-0.9076,-0.8756,-0.8642,-0.6225,-0.5591,-0.6285,-0.193,0.2936,0.7929,0.855,0.8818,0.8841,0.8849,0.885,0.8936,0.9245,0.0,0.0,0.0,0.0,0.0,0.0,0.0,0.0,1.017,1.0208,1.0197,1.0205,1.0252,1.0513,1.1374,0.0,0.0,1.6562,1.9668,0.0,0.0,0.0,0.0,0.0,0.0,0.0,0.0,0.0,0.0,0.0,0.0,0.0,0.0,0.0,0.0,0.0,0.0,0.0,3.449,3.5997,3.7014,3.7168,3.7187,3.7539,3.832,3.7617,3.7187,3.7168,3.7168,3.7636,3.8574,3.8375,3.9193,4.0996,4.0786,4.0703,4.0781,4.3316,4.4024,4.3331,4.3994,4.4778,4.5586,4.5586,4.5586,4.5586,4.5586,4.5586,4.5586,4.5586,4.5586,4.5586,0.0,0.0,0.0,0.0,0.0,0.0,0.0,0.0,0.0,0.0,0.0,0.0,0.0,0.0,0.0,0.0,0.0,0.0,0.0,0.0,-0.9699,-0.9704,-0.9899,-0.9911,-0.9695,-0.9762,-0.9547,-0.9078,-0.8428,-0.7762,-0.7066,-0.5723,-0.5205,-0.5261,-0.162,0.2949,0.7896,0.8058,0.8265,0.8501,0.8388,0.854,0.885,0.9016,0.9296,0.0,0.0,0.0,0.0,0.0,0.0,0.0,1.0129,1.0161,1.0191,1.02,1.0681,1.1417,1.2286,1.3786,0.0,0.0,2.2303,0.0,0.0,0.0,0.0,0.0,0.0,0.0,0.0,0.0,0.0,0.0,0.0,0.0,0.0,0.0,0.0,0.0,0.0,3.3611,3.4491,3.494,3.5469,3.6211,3.6289,3.6367,3.6543,3.6387,3.6267,3.6208,3.6208,3.6911,3.8436,3.7683,3.8555,4.0996,4.0227,4.0159,4.0742,4.2005,4.3111,4.4075,4.4218,4.4778,4.5586,4.5586,4.5586,4.5586,4.5586,4.5586,4.5586,4.5586,4.5586,4.5586,0.0,0.0,0.0,0.0,0.0,0.0,0.0,0.0,0.0,0.0,0.0,0.0,0.0,0.0,0.0,0.0,0.0,0.0,0.0,0.0,-0.942,-0.9699,-0.9834,-0.9717,-0.9323,-0.931,-0.9019,-0.8424,-0.8067,-0.746,-0.6579,-0.5581,-0.5104,-0.4884,0.0177,0.4465,0.7897,0.79,0.8098,0.8395,0.8395,0.8613,0.8949,0.9094,0.9341,0.9614,0.9755,0.0,0.0,0.0,0.0,0.0,0.0,0.0,1.0194,1.021,1.0524,1.1067,1.1949,0.0,0.0,1.9586,0.0,0.0,0.0,0.0,0.0,0.0,0.0,0.0,0.0,0.0,0.0,0.0,0.0,0.0,0.0,0.0,0.0,0.0,0.0,3.2283,3.3266,3.4144,3.4858,3.5332,3.5762,3.5996,3.5996,3.5973,3.5942,3.5903,3.5841,3.6411,3.7722,3.7206,3.7864,3.9668,3.9529,3.9855,4.0615,4.1059,4.2179,4.3701,4.3278,4.3816,4.497,4.497,4.522,4.5586,4.5586,4.5586,4.5586,4.5586,4.5586,4.5586,0.0,0.0,0.0,0.0,0.0,0.0,0.0,0.0,0.0,0.0,0.0,0.0,0.0,0.0,0.0,0.0,0.0,0.0,0.0,0.0,0.0,-0.9537,-0.945,-0.9189,-0.8734,-0.8575,-0.8238,-0.7665,-0.7673,-0.7297,-0.657,-0.4959,-0.4119,-0.3641,0.2596,0.6227,0.7675,0.7755,0.803,0.8428,0.8743,0.902,0.9328,0.957,0.9825,1.0034,0.9838,1.0,1.0278,1.0144,0.0,0.0,0.0,0.0,1.0197,1.0202,1.0208,1.0399,1.1259,0.0,1.5293,1.9355,2.2051,0.0,0.0,0.0,0.0,0.0,0.0,0.0,0.0,0.0,0.0,0.0,0.0,0.0,0.0,0.0,0.0,0.0,0.0,3.0992,3.1738,3.3298,3.4336,3.4473,3.5273,3.576,3.576,3.5681,3.5728,3.5836,3.558,3.5954,3.6973,3.6775,3.7177,3.8197,3.8954,3.9642,4.0296,4.0431,4.1373,4.2835,4.2104,4.2681,4.4085,4.4085,4.4605,4.5374,4.5374,4.547,4.5586,4.5586,4.5586,4.5586,0.0,0.0,0.0,0.0,0.0,0.0,0.0,0.0,0.0,0.0,0.0,0.0,0.0,0.0,0.0,0.0,0.0,0.0,-0.8874,0.0,0.0,-0.9006,-0.845,-0.8101,-0.8044,-0.7286,-0.6865,-0.6776,-0.6772,-0.6716,-0.6508,-0.2533,-0.012,0.1046,0.475,0.6541,0.6794,0.7159,0.7718,0.8496,0.9495,0.9958,1.0127,1.0848,1.1413,1.1659,1.0224,1.0282,1.0956,1.0329,1.0109,0.0,0.0,0.0,1.0191,1.0197,1.02,1.0396,0.0,0.0,1.5893,0.0,0.0,0.0,0.0,0.0,0.0,0.0,0.0,0.0,0.0,0.0,0.0,0.0,0.0,0.0,0.0,0.0,0.0,0.0,3.0685,3.0784,3.1014,3.1953,3.2812,3.3516,3.4326,3.4797,3.4797,3.4711,3.497,3.563,3.4894,3.5282,3.6901,3.6098,3.653,3.8197,3.8954,3.9354,3.9469,4.0181,4.1046,4.197,4.1854,4.2354,4.3258,4.3258,4.3739,4.447,4.447,4.4932,4.5586,4.5586,4.5586,4.5586,0.0,0.0,0.0,0.0,0.0,0.0,0.0,0.0,0.0,0.0,0.0,0.0,0.0,0.0,0.0,-0.8343,-0.8077,-0.8017,-0.8312,-0.8339,-0.8123,-0.7634,-0.7329,-0.7169,-0.7171,-0.6245,-0.5757,-0.5758,-0.5154,0.0,0.0,-0.2062,0.1675,0.4747,0.544,0.6084,0.6616,0.6753,0.7533,0.8786,0.9838,1.0036,0.9837,1.1161,1.1685,1.1698,1.1633,1.1089,1.0471,1.0861,1.0565,1.0033,1.0033,0.0,0.0,0.0,1.0163,0.0,1.127,1.2697,1.4329,0.0,0.0,0.0,0.0,0.0,0.0,0.0,0.0,0.0,0.0,0.0,0.0,0.0,0.0,0.0,0.0,0.0,0.0,0.0,2.8301,2.8688,3.0703,3.125,3.1796,3.2551,3.3398,3.3867,3.3814,3.3744,3.4068,3.4855,3.4453,3.4851,3.6098,3.572,3.6125,3.736,3.7685,3.8354,3.9296,3.9662,4.0277,4.1066,4.1066,4.1835,4.3104,4.3104,4.3855,4.5028,4.5028,4.5259,4.5586,4.5586,4.5586,4.5586,0.0,0.0,0.0,0.0,0.0,0.0,0.0,0.0,0.0,0.0,0.0,0.0,0.0,0.0,0.0,0.0,-0.7577,-0.7577,-0.7577,-0.7563,-0.7281,-0.6621,-0.6346,-0.634,-0.6584,-0.5617,-0.4958,-0.4694,0.0,0.0,-0.6141,-0.2435,0.167,0.0,0.5692,0.5495,0.0,0.6197,0.7444,0.8966,0.9781,0.9919,0.9775,1.1293,1.1727,1.1645,1.2678,0.0,0.0,0.0,0.0,0.0,0.0,0.0,0.0,0.0,0.0,0.0,0.0,0.0,1.2722,1.3812,0.0,0.0,0.0,0.0,0.0,0.0,0.0,0.0,0.0,0.0,0.0,0.0,0.0,0.0,0.0,0.0,0.0,0.0,2.6715,2.7383,2.9375,3.0097,3.0776,3.1616,3.2237,3.2655,3.285,3.2781,3.3112,3.3914,3.3909,3.4295,3.5161,3.5391,3.5815,3.6411,3.6603,3.7392,3.8642,3.9104,3.9623,4.02,4.0412,4.1239,4.245,4.2681,4.3643,4.497,4.5182,4.5393,4.5586,4.5586,4.5586,4.5586,0.0,0.0,0.0,0.0,0.0,0.0,0.0,0.0,0.0,0.0,0.0,0.0,-0.802,-0.7916,-0.7574,-0.6731,-0.6673,-0.6673,-0.6673,-0.6665,-0.6641,-0.6604,-0.5693,0.0,-0.6585,-0.5616,-0.46,-0.3591,0.0,0.0,-0.5134,-0.3372,-0.0587,0.3026,0.5718,0.5085,0.224,0.0,0.0,0.892,0.9221,0.9783,1.0539,0.0,0.0,0.0,0.0,0.0,0.0,0.0,0.0,0.0,0.0,0.0,0.0,0.0,0.0,0.0,0.0,1.1477,0.0,0.0,0.0,0.0,0.0,0.0,0.0,0.0,0.0,0.0,0.0,0.0,0.0,0.0,0.0,0.0,0.0,0.0,0.0,0.0,2.7692,2.8223,2.6172,2.7864,2.9569,3.0677,3.0685,3.1,3.1824,3.181,3.2134,3.2942,3.2968,3.3391,3.4257,3.5084,3.5512,3.557,3.6353,3.6757,3.6892,3.8546,3.9315,3.9392,4.0162,4.0546,4.07,4.1527,4.2412,4.3316,4.4066,4.4874,4.5586,4.5586,4.5586,4.5586,0.0,0.0,0.0,0.0,0.0,0.0,0.0,0.0,0.0,0.0,0.0,0.0,0.0,-0.706,-0.6934,-0.6616,-0.6596,-0.6602,-0.6602,-0.6604,-0.6589,-0.6589,-0.5635,-0.4934,-0.462,-0.4918,-0.4575,-0.3494,0.0,-0.2178,-0.5077,-0.3464,-0.0765,0.2755,0.4133,0.4902,0.516,0.5489,0.0,0.0,0.0,0.0,0.0,0.0,0.0,0.0,0.0,0.0,0.0,0.0,0.0,0.0,0.0,0.0,0.0,0.0,0.0,0.0,0.0,0.0,0.0,0.0,0.0,0.0,0.0,0.0,0.0,0.0,0.0,0.0,0.0,0.0,0.0,0.0,0.0,0.0,0.0,0.0,0.0,0.0,2.6445,2.707,2.7336,2.809,2.8541,2.8524,2.979,3.043,3.0161,3.0593,3.1256,3.2102,3.2122,3.2526,3.3353,3.4237,3.4661,3.468,3.5526,3.6199,3.6719,3.7353,3.8238,3.9315,3.9604,4.0335,4.1354,4.1681,4.2624,4.3893,4.4182,4.4836,4.5586,4.5586,4.5586,4.5586,0.0,0.0,0.0,0.0,0.0,0.0,0.0,0.0,0.0,0.0,0.0,0.0,0.0,0.0,-0.6458,-0.6124,-0.6098,-0.6105,-0.6091,-0.6091,-0.609,-0.6104,-0.5107,-0.4239,-0.3518,-0.4197,-0.4031,-0.2921,-0.055,-0.0549,0.0,-0.1295,0.0655,0.2993,0.3338,0.4565,0.0,0.0,0.0,0.8619,0.0,0.0,0.9992,0.0,0.0,0.0,0.0,0.0,0.0,0.0,0.0,0.0,0.0,0.0,0.0,0.0,0.0,0.0,1.1666,0.0,0.0,0.0,0.0,0.0,0.0,0.0,0.0,0.0,0.0,0.0,0.0,0.0,0.0,0.0,0.0,0.0,0.0,0.0,0.0,0.0,2.5681,2.6107,2.7245,2.7319,2.7357,2.7491,2.8694,0.0,2.9603,3.0109,3.0814,3.1679,3.1698,3.2083,3.2891,3.3757,3.4199,3.4199,3.5084,3.5795,3.6315,3.6584,3.7488,3.8873,3.9161,4.0085,4.1393,4.1681,4.247,4.3528,4.4085,4.4643,4.5201,4.549,4.5586,4.5586,0.0,0.0,0.0,0.0,0.0,0.0,0.0,0.0,0.0,-0.6564,0.0,0.0,0.0,0.0,0.0,-0.5172,-0.5067,-0.5049,-0.5049,-0.5059,-0.5059,-0.5046,-0.4044,-0.3467,-0.3442,-0.344,-0.2895,-0.1741,0.0663,0.1821,0.1829,0.2957,0.3503,0.3508,0.3501,0.4091,0.538,0.0,1.0236,0.8101,0.0,1.0002,1.0954,0.0,0.0,0.0,1.2297,1.2527,0.0,0.0,0.0,0.0,0.0,0.0,0.0,0.0,0.0,0.0,0.0,0.0,0.0,0.0,0.0,0.0,0.0,0.0,0.0,0.0,0.0,0.0,0.0,0.0,0.0,0.0,0.0,0.0,0.0,0.0,0.0,0.0,2.564,2.5562,2.55,2.5385,2.6025,2.7757,2.7403,2.8063,3.0243,3.0383,3.0794,3.1641,3.166,3.2045,3.2814,3.368,3.4141,3.416,3.5045,3.5488,3.5545,3.6315,3.7161,3.8046,3.8892,3.9719,4.0566,4.1412,4.1777,4.197,4.3624,4.4278,4.4412,4.5278,4.5586,4.5586,0.0,0.0,0.0,0.0,0.0,0.0,0.0,-0.6602,-0.6337,0.0,0.0,0.0,-0.6523,-0.5959,-0.5399,-0.5114,-0.4386,-0.3948,-0.3936,-0.3944,-0.3942,-0.3935,-0.3291,-0.2719,-0.2269,-0.2272,-0.169,-0.0498,0.1869,0.2611,0.1818,0.2967,0.3507,0.0,0.3502,0.4101,0.522,0.7202,0.0,0.0,1.0951,1.0557,0.0,0.0,0.0,0.0,0.0,1.0506,1.0635,0.0,0.9882,0.9698,0.0,0.0,0.0,0.0,0.0,0.0,1.2521,0.0,0.0,0.0,0.0,0.0,0.0,0.0,0.0,0.0,0.0,0.0,0.0,0.0,0.0,0.0,0.0,0.0,0.0,0.0,0.0,0.0,2.5601,2.5561,2.5515,2.5479,2.5987,0.0,2.7576,2.8221,2.9467,3.007,3.0513,3.0756,3.0756,3.0871,3.1102,3.1968,3.2679,3.3276,3.4141,3.4891,3.5526,3.5738,3.6642,3.8007,3.8257,3.9161,4.0508,4.0758,4.1239,4.1912,4.3008,4.3797,4.4412,4.5278,4.5586,4.5586,0.0,0.0,0.0,0.0,0.0,0.0,-0.6594,-0.6599,-0.6236,0.0,0.0,0.0,-0.5899,-0.6105,-0.6178,-0.6197,-0.4986,-0.3947,-0.3204,-0.3154,-0.3168,-0.3171,-0.2139,-0.1414,-0.1065,-0.1055,-0.0453,0.0747,0.2132,0.2452,0.1821,0.2969,0.3501,0.3551,0.0,0.0,0.0,0.0,0.0,0.0,1.1854,0.0,0.0,1.0794,1.103,0.0,0.0,0.0,1.1048,1.0075,0.9961,0.0,0.0,0.0,0.0,0.0,0.0,0.0,0.0,0.0,0.0,0.0,0.0,0.0,1.325,1.3294,0.0,0.0,0.0,0.0,0.0,0.0,0.0,0.0,0.0,0.0,0.0,0.0,0.0,0.0,2.5522,2.5493,2.5459,2.5426,2.5691,2.6367,2.7537,2.8664,2.9651,3.0155,3.0398,3.0398,3.0398,3.0398,3.0398,3.1256,3.1948,3.241,3.3622,3.4468,3.4968,3.5334,3.6411,3.7988,3.7623,3.8623,4.0469,4.0142,4.0489,4.1373,4.2624,4.3393,4.3951,4.5143,4.5586,4.5586,0.0,0.0,0.0,-0.5278,-0.5931,-0.6599,-0.6607,-0.6607,-0.6245,0.0,-0.5105,-0.5184,-0.5371,-0.6763,-0.7639,-0.7447,-0.6127,-0.455,-0.2822,-0.2506,-0.2413,-0.2408,-0.0872,0.0087,0.0308,0.0307,0.0829,0.1888,0.1913,0.1944,0.2004,0.3153,0.3692,0.3798,0.0,0.0,0.0,0.0,0.0,1.1555,1.1908,1.196,0.0,0.0,1.1764,0.0,1.1287,1.1691,1.2583,1.0499,1.0282,0.0,0.0,0.0,0.0,0.0,1.2942,0.0,0.0,0.0,0.0,0.0,0.0,0.0,1.2481,1.2584,1.2987,0.0,0.0,0.0,0.0,0.0,0.0,0.0,0.0,0.0,0.0,0.0,0.0,0.0,0.0,2.5391,2.5383,2.533,2.5341,2.5437,2.7497,2.9171,3.016,3.0321,3.0398,3.0398,3.0398,3.0398,3.0398,3.1179,3.1602,3.1718,3.3295,3.4103,3.4191,3.5089,3.6358,3.7766,3.7012,3.8084,4.0296,3.9585,3.9758,4.0662,4.2316,4.297,4.3162,4.4836,4.5451,4.5451,0.0,0.0,0.0,-0.5283,-0.594,-0.6608,-0.6611,-0.6596,-0.6232,-0.5228,-0.5092,-0.5637,-0.7037,-0.7493,-0.7162,-0.588,-0.5493,-0.4569,-0.2821,-0.1349,-0.0518,-0.0524,-0.0195,0.0682,0.2148,0.2179,0.2288,0.2513,0.2529,0.2737,0.32,0.4391,0.4956,0.5063,0.0,0.0,0.0,0.0,0.0,0.9907,1.1227,0.0,1.0242,1.094,1.0882,1.0359,1.0047,1.0139,1.0339,0.0,0.9931,1.0195,0.0,0.0,0.0,0.0,0.0,0.0,0.0,0.0,0.0,0.0,0.0,0.0,1.4979,1.5194,1.5548,0.0,0.0,0.0,0.0,0.0,0.0,0.0,0.0,0.0,0.0,0.0,0.0,0.0,0.0,2.5387,2.5312,2.5303,2.5591,2.6294,2.8005,2.9025,2.9033,2.9898,3.0398,3.0398,3.0398,3.0398,3.0398,3.0571,3.1006,3.1718,3.2699,3.3407,3.391,3.4995,3.5921,3.6621,3.6684,3.7777,3.9508,3.9354,3.9758,4.0585,4.1643,4.2047,4.2258,4.3932,4.4547,4.4547,0.0,0.0,0.0,-0.5183,-0.5936,-0.6596,-0.66,-0.617,-0.5673,-0.5164,-0.5857,-0.6726,-0.7616,-0.7705,-0.7365,-0.6572,-0.496,-0.3251,-0.1484,-0.0497,0.0399,0.1305,0.1338,0.1773,0.2679,0.2698,0.2712,0.2694,0.357,0.414,0.4422,0.5829,0.5579,0.4111,0.7691,0.0,0.0,0.0,1.0381,1.0495,1.0531,0.0,0.9757,1.0302,1.0165,0.9698,0.9698,0.9739,0.9791,0.9771,1.0347,0.0,0.0,1.1124,1.2816,0.0,1.4324,1.5593,0.0,0.0,0.0,1.7182,0.0,0.0,0.0,1.4922,1.4747,1.5202,1.4617,0.0,0.0,0.0,0.0,0.0,0.0,0.0,0.0,0.0,0.0,0.0,0.0,2.4259,2.4668,2.4697,2.5236,2.6505,2.7371,2.7986,2.8275,2.8832,2.9159,2.9159,2.9544,2.9698,2.9552,3.011,3.0609,3.1064,3.191,3.2666,3.3389,3.4389,3.5451,3.6473,3.6214,3.7315,3.9258,3.8834,3.9373,4.0585,4.147,4.1797,4.195,4.3239,4.3701,4.3758,-0.6229,0.0,0.0,0.0,-0.5797,-0.6609,-0.6602,-0.5756,-0.5233,-0.5545,-0.6817,-0.7708,-0.7708,0.0,0.0,0.0,-0.4471,-0.1625,0.0,0.0,0.0,0.2627,0.2685,0.2685,0.2709,0.3022,0.3208,0.3192,0.4606,0.531,0.5348,0.7225,0.6636,0.0,0.0,0.0,0.0,0.0,0.0,1.1464,0.0,0.9813,1.015,1.0062,1.0018,0.9982,0.9795,0.9791,0.9919,0.9981,0.0,1.1786,1.0028,1.2022,0.0,0.0,0.0,0.0,0.0,0.0,0.0,0.0,0.0,1.6952,0.0,0.0,0.0,1.5516,0.0,0.0,0.0,0.0,0.0,0.0,0.0,0.0,0.0,0.0,0.0,0.0,2.2793,2.3148,2.4014,2.411,2.4726,2.6236,2.6505,2.6909,2.7601,2.7813,2.789,2.789,2.8525,2.8813,2.8687,2.9605,3.0151,3.0311,3.1015,3.1845,3.2799,3.3722,3.4946,3.6353,3.5748,3.6853,3.8988,3.8296,3.8988,4.0566,4.1277,4.1546,4.1662,4.2527,4.297,4.3181,-0.4893,-0.4411,0.0,0.0,-0.5301,-0.661,-0.6593,-0.5737,-0.566,-0.7207,-0.7564,0.0,0.0,0.0,0.0,0.0,0.0,0.0,0.4381,0.0,0.0,0.2699,0.2708,0.271,0.2697,0.4205,0.5003,0.4997,0.5219,0.5289,0.5368,0.8295,0.945,0.0,0.8248,0.0,0.0,0.0,0.9932,0.0,1.0517,1.0915,0.0,1.1306,1.112,1.1,1.0109,0.9838,1.0018,0.0,1.1217,1.1516,0.0,1.2832,1.2974,0.0,0.0,0.0,0.0,0.0,0.0,0.0,1.9279,0.0,0.0,0.0,1.8119,1.7555,0.0,0.0,0.0,0.0,0.0,0.0,0.0,0.0,0.0,0.0,0.0,0.0,2.2793,2.3148,2.4014,2.411,2.4466,2.538,2.6159,2.664,2.6736,2.7486,2.789,2.789,2.7986,2.8255,2.8687,2.8843,2.926,2.9952,3.0056,3.0861,3.2315,3.3372,3.4369,3.5288,3.5441,3.6507,3.8142,3.8046,3.8988,4.0508,4.0604,4.0642,4.0739,4.1623,4.245,4.3104,-0.3012,-0.2815,0.0,0.0,-0.6669,-0.7105,-0.6661,-0.5732,-0.5367,-0.6087,0.0,0.0,0.0,0.0,0.0,0.0,0.0,0.1176,0.0,0.0,0.0,0.0,0.0,0.0,0.4176,0.4927,0.5309,0.529,0.5294,0.5769,0.673,0.8462,0.9703,0.0,0.8851,0.0,1.0239,0.0,0.0,0.0,0.0,0.0,0.0,1.1643,1.1351,1.1728,1.1365,1.1295,1.1351,0.0,1.2193,0.0,0.0,0.0,0.0,0.0,0.0,0.0,0.0,0.0,0.0,0.0,0.0,0.0,1.9138,0.0,1.8427,0.0,0.0,0.0,0.0,0.0,0.0,0.0,2.0263,0.0,0.0,0.0,0.0,0.0,0.0,0.0,2.3263,2.336,2.3706,2.4543,2.4928,2.5351,2.5832,2.6197,2.639,2.639,2.689,2.724,2.7478,2.8343,2.9064,2.9661,2.975,3.0708,3.2435,3.2381,3.3429,3.5315,3.4908,3.5699,3.7257,3.7257,3.8257,3.9796,3.9796,4.0085,4.0604,4.1489,4.2027,4.2489,-0.1301,0.0,0.0,0.0,0.0,0.0,0.0,0.0,0.0,0.0,0.0,0.0,-0.486,-0.1431,0.0,0.0,0.0,0.2551,0.0,0.0,0.6973,0.0,0.0,0.0,0.0,0.0,0.5945,0.5958,0.5966,0.6557,0.7718,0.8673,0.9754,1.0849,0.0,0.9445,0.9734,0.0,0.0,1.2261,1.2354,1.3007,1.3787,1.2174,1.1783,1.2114,1.2231,1.2327,1.2352,1.2041,1.3066,0.0,1.259,0.0,0.0,0.0,0.0,0.0,1.8374,0.0,0.0,0.0,0.0,0.0,0.0,0.0,0.0,0.0,0.0,0.0,0.0,0.0,0.0,0.0,0.0,2.0809,0.0,0.0,0.0,0.0,0.0,0.0,0.0,2.2447,2.2889,2.4014,2.411,2.4447,2.5264,2.5303,2.5303,2.5303,2.5849,2.6297,2.6591,2.7884,2.8817,2.9363,2.9458,3.0395,3.2041,3.1692,3.2825,3.5014,3.4705,3.5325,3.6592,3.6592,3.7625,3.918,3.918,3.9746,4.0566,4.12,4.1758,4.2335,-0.0068,-0.1003,0.0,0.0,0.0,0.0,0.0,0.0,0.0,0.0,0.0,0.0,0.0,0.0,0.0,0.0,0.0,0.3136,0.6242,0.0,0.6989,0.0,0.0,0.6804,0.0,0.0,0.7637,0.7627,0.7627,0.7646,0.7726,0.9171,1.0251,1.093,1.1404,1.1364,1.0897,1.0134,1.0518,1.163,1.163,1.2309,1.3317,0.0,1.2766,1.2104,1.2187,0.0,0.0,1.3277,1.3589,0.0,0.0,0.0,0.0,0.0,0.0,0.0,0.0,0.0,0.0,1.9416,0.0,0.0,0.0,0.0,2.0235,0.0,0.0,0.0,0.0,0.0,0.0,0.0,0.0,0.0,0.0,0.0,0.0,0.0,0.0,0.0,0.0,2.1543,2.2254,2.3975,2.411,2.4447,2.5264,2.5303,2.5303,2.5303,2.5149,2.5539,2.6591,2.7426,2.824,2.9018,2.9005,2.9606,3.0706,3.1714,3.28,3.391,3.4995,3.5776,3.6304,3.6304,3.7333,3.8917,3.8917,3.9557,4.0489,4.0527,4.1604,4.3066,0.0,0.0,0.0,0.0,0.0,0.0,0.0,-0.6118,0.0,0.0,0.0,0.0,0.0,0.0,0.4785,0.0,0.0,0.5447,0.6543,0.6826,0.0,0.0,0.0,0.9777,0.0,0.0,0.8677,0.7706,0.9518,1.0415,1.0426,1.0656,1.102,1.1452,0.0,1.0237,0.0,0.0,0.0,0.0,0.0,1.3618,1.404,0.0,0.0,1.3713,1.3915,1.4022,0.0,1.4418,1.4882,1.5249,1.4822,1.5038,1.5406,1.5312,1.5288,0.0,0.0,0.0,1.7746,1.9446,0.0,0.0,0.0,0.0,0.0,0.0,0.0,0.0,0.0,0.0,0.0,0.0,0.0,0.0,0.0,0.0,0.0,0.0,0.0,0.0,0.0,0.0,0.0,2.2977,2.3199,2.3832,2.5226,2.5303,2.5253,2.5099,2.5034,2.5574,2.6793,2.7065,2.7825,2.9001,2.9559,3.036,3.1411,3.1776,3.2841,3.4396,3.4186,3.4528,3.523,3.523,3.635,3.8039,3.8039,3.9059,4.0566,4.1143,4.1739,4.2412,-0.0319,0.0,0.0,0.0,0.0,0.0,0.0,0.0,0.0,0.0,-0.2666,0.0,0.3209,0.0,0.6193,0.0,0.6689,0.6782,0.6112,0.6694,0.0,0.8219,0.9872,0.0,0.0,0.0,0.0,0.849,1.109,1.2154,1.178,1.1522,1.1624,1.197,0.0,1.0659,0.9535,0.0,1.1468,0.0,0.0,1.4551,0.0,0.0,1.4224,1.4908,0.0,1.4832,1.4904,1.489,1.5489,1.6113,1.5424,1.5737,1.6351,1.6269,1.6165,1.6298,1.711,1.7516,0.0,1.9511,1.9602,0.0,2.0804,0.0,0.0,0.0,0.0,0.0,0.0,0.0,0.0,0.0,0.0,0.0,0.0,1.9688,0.0,0.0,0.0,0.0,0.0,0.0,2.0646,2.2357,2.264,2.3448,2.5107,2.5184,2.5122,2.4991,2.517,2.5785,2.6879,2.7118,2.7957,2.9439,2.9953,3.0715,3.1663,3.205,3.2913,3.4078,3.3936,3.4103,3.4529,3.4529,3.5616,3.7296,3.7414,3.8649,4.0449,4.1091,4.1739,4.247,0.0,0.0,0.0,0.0,-0.4062,0.0,0.0,0.0,-0.481,0.0,-0.0218,0.465,0.9288,0.8662,0.7907,0.7941,0.7946,0.0,0.5357,0.7162,0.0,0.0,0.8875,0.9758,1.1565,0.0,0.0,0.0,0.0,1.2884,1.1874,1.1841,1.1985,1.2363,1.37,0.0,0.9713,1.24,1.2433,1.0895,1.3516,1.505,1.5674,1.4921,1.5123,1.5717,1.489,1.477,1.4999,1.4878,1.5517,1.6353,1.6213,1.6636,1.7202,1.7191,1.7059,1.7073,1.7839,1.8212,1.8628,1.9578,0.0,0.0,0.0,0.0,2.0427,0.0,0.0,0.0,0.0,0.0,0.0,0.0,0.0,0.0,0.0,0.0,0.0,0.0,0.0,0.0,0.0,1.9778,2.0476,2.2173,2.2479,2.3294,0.0,2.501,2.501,2.501,2.5471,2.6115,2.6879,2.7514,2.8617,3.021,3.0246,3.0687,3.1501,3.2548,3.3041,3.3101,3.4191,3.4486,3.4176,3.4176,3.5187,3.6727,3.7062,3.84,4.0139,4.0425,4.1585,4.3143,-0.1459,-0.2582,-0.2696,0.0,-0.3064,-0.2155,0.0,0.0,0.0,0.0,0.5759,0.631,0.8206,0.8104,0.8101,0.8586,0.865,0.0,0.0,0.0,0.0,0.833,0.8631,0.8896,0.8898,1.0802,0.0,1.2496,0.0,0.0,1.2975,1.2438,1.2231,1.2349,0.0,0.0,0.8967,1.1703,1.2398,1.1927,1.4396,1.5876,0.0,0.0,1.6885,1.7523,1.6161,1.6111,1.6697,1.6809,1.7071,1.7313,1.7111,1.7159,1.7256,1.7206,1.7059,1.6945,1.7147,1.7857,1.8768,1.9654,2.0498,2.1297,0.0,0.0,0.0,0.0,0.0,0.0,0.0,0.0,0.0,0.0,0.0,0.0,0.0,0.0,0.0,2.0207,0.0,0.0,0.0,1.9564,2.0316,2.1952,2.2254,2.3145,2.4903,0.0,2.501,2.501,2.5747,2.6378,2.6898,2.764,2.8759,3.021,3.0797,3.1513,3.232,3.3188,3.3589,3.3607,3.3913,3.3979,3.3902,3.3902,3.5025,3.6727,3.7062,3.8518,4.0425,4.0473,4.1181,4.2162,-0.1848,0.0,0.0,-0.2716,0.0,0.0,0.1079,0.0,0.0,0.7629,0.7428,0.0,0.7851,0.8164,0.8487,0.887,0.8889,0.0,0.7945,0.0,0.0,0.8028,0.854,0.8729,0.8353,0.9772,0.0,1.3405,0.0,0.0,1.3395,1.2975,1.2711,0.0,0.0,1.2935,0.0,1.1981,1.3191,1.412,1.5252,0.0,0.0,1.7125,1.782,1.879,1.769,1.7358,1.7453,1.7562,1.7899,1.8232,1.8059,1.8183,1.8372,1.8279,1.8101,1.8041,1.8375,1.8748,1.9343,2.0632,2.1173,2.1655,2.2592,2.2793,2.2793,0.0,0.0,0.0,0.0,0.0,0.0,0.0,0.0,0.0,0.0,0.0,0.0,0.0,0.0,0.0,0.0,1.9394,2.0004,2.126,2.1868,2.2814,2.4271,0.0,2.4937,2.501,2.6706,2.739,2.6898,2.9008,3.0282,3.0723,3.1531,3.2357,3.3146,3.3587,3.3807,3.3807,3.3807,3.3807,3.3825,3.4192,3.5192,3.6652,3.7803,3.9087,4.0339,4.0457,4.1046,4.178,0.0,0.0,0.0,0.0,0.0,0.0,0.0,0.6314,0.0,0.6477,0.0,0.8902,0.8112,0.8541,0.8897,0.8895,0.0,0.8592,0.8167,0.8074,0.806,0.8147,0.8702,0.8971,0.8913,0.8514,0.0,0.0,0.0,0.0,1.3968,1.3845,0.0,0.0,0.0,0.0,0.0,1.2945,1.4175,1.6178,1.6014,1.6821,1.8056,1.7647,1.846,1.9712,1.9153,1.8504,1.7931,1.7939,1.8501,1.915,1.9026,1.9447,1.9936,1.9825,1.9707,1.9767,2.0482,2.0307,2.0316,2.1902,2.1981,2.1905,2.2775,2.3043,2.312,2.312,2.3043,2.2958,0.0,0.0,0.0,0.0,0.0,0.0,0.0,0.0,0.0,0.0,0.0,0.0,0.0,0.0,1.9748,2.0448,2.1411,2.2424,0.0,0.0,2.4855,2.4974,2.7635,2.8462,2.7233,3.0632,3.2125,3.1715,3.2353,3.307,3.3807,3.3842,3.3842,3.3807,3.3807,3.3807,3.3862,3.4688,3.5615,3.6703,3.8752,3.9754,4.0062,4.0302,4.0869,4.1468,0.0,0.0,0.0,0.0,0.0,0.6597,1.0472,0.9912,0.973,1.1527,1.4278,1.4189,0.9263,0.8818,0.8895,0.8908,0.8384,0.0,0.0,0.0,0.0,0.9366,0.9509,0.9356,0.8913,0.6509,0.553,0.0,0.0,0.0,1.7008,1.6179,0.0,0.0,0.0,0.0,1.6694,1.442,0.0,1.4697,1.6583,1.7642,1.8184,1.8896,1.9869,2.0745,2.0039,1.9707,1.9611,1.9775,1.9931,2.0073,2.0038,2.0383,2.0784,2.0759,2.1038,2.1399,2.1528,2.1708,2.1902,2.2211,2.2966,2.3659,2.3832,2.4389,2.4861,2.4861,2.4332,2.4015,2.448,0.0,0.0,0.0,0.0,0.0,0.0,0.0,0.0,0.0,0.0,0.0,0.0,0.0,0.0,2.0484,2.134,0.0,0.0,0.0,2.4818,0.0,2.6759,0.0,0.0,0.0,3.1774,3.3366,3.3074,3.3259,3.3807,3.4018,3.3993,3.3807,3.3807,3.3807,3.3862,3.4688,3.6058,3.7716,3.8779,3.9389,3.969,3.9735,3.9851,4.0006,0.0,0.0,0.0,0.0,0.0,0.0,0.0,0.9832,0.0,1.0791,1.2264,1.2207,0.9597,0.9315,0.9314,0.9312,0.9015,0.9788,1.2034,1.1949,1.1165,0.976,0.9697,0.0,0.9323,0.6249,0.3837,0.2171,0.0,0.0,1.7772,0.0,0.0,0.0,0.0,1.6993,0.0,0.0,0.0,1.6508,1.7514,1.8228,1.8838,1.9948,2.0678,2.1126,2.1369,2.1454,2.132,2.0565,2.0581,2.0826,2.0232,2.0782,2.155,2.091,2.125,2.1912,2.2436,2.2447,2.252,2.3474,2.3902,2.4206,2.462,2.5024,2.5303,2.5303,2.4986,2.4753,2.4867,2.4756,0.0,0.0,0.0,0.0,0.0,0.0,0.0,0.0,0.0,0.0,0.0,0.0,0.0,0.0,0.0,0.0,0.0,0.0,2.5036,0.0,0.0,0.0,2.9457,0.0,3.2176,3.3183,3.2914,3.3235,3.3993,3.4012,3.4012,3.4012,3.385,3.4045,3.4523,3.5789,3.7098,3.8358,3.8896,3.9186,3.9364,3.9552,3.9486,3.9364,0.0,0.8048,0.0,0.0,1.3048,0.0,0.9158,0.9081,0.9077,0.908,0.9068,0.9232,0.9643,1.0324,1.0717,1.0709,1.072,1.1801,1.4336,1.4497,1.3363,1.0836,1.0726,1.0721,1.0726,0.6828,0.3222,0.0,0.0,0.0,0.0,0.0,0.0,0.0,0.0,0.0,0.0,0.0,1.7926,1.857,1.833,1.8804,1.9723,2.0715,2.1341,2.1772,2.2537,2.2908,2.2851,2.1331,2.1254,2.1605,2.0663,2.1381,2.2364,2.1377,2.1654,2.2481,2.328,2.3184,2.3169,2.4601,2.4651,2.4524,2.5159,2.5303,2.5303,2.5303,2.5264,2.5149,2.4842,2.467,0.0,0.0,0.0,0.0,0.0,0.0,0.0,0.0,0.0,0.0,0.0,0.0,0.0,0.0,0.0,0.0,2.3201,0.0,0.0,0.0,0.0,2.9495,2.9982,0.0,3.2449,3.3128,3.2896,3.329,3.4218,3.4062,3.4179,3.4455,3.4186,3.4633,3.5642,3.6945,3.7955,3.8719,3.8933,3.9008,3.9036,3.9308,3.9249,3.9008,0.0,0.0,0.0,0.0,0.0,0.0,0.9556,0.9614,0.9629,0.9627,0.9615,0.965,0.9698,1.2297,1.4054,1.4044,1.4054,1.4175,1.4474,1.4494,1.4372,1.4064,1.4045,1.4046,1.4051,0.7965,0.3215,0.0,0.0,1.7802,0.0,0.0,0.0,0.0,0.0,0.0,0.0,1.7771,1.8094,1.8622,1.8696,1.9517,2.07,2.0992,2.2114,2.3487,2.2987,2.3321,2.3841,2.2889,2.262,2.2641,2.234,2.2779,2.3324,2.3042,2.3435,2.3988,2.4099,2.4344,2.4615,2.478,2.4991,2.5207,2.5284,2.5303,2.5303,2.5303,2.5152,2.4974,2.4832,2.479,2.4639,0.0,0.0,0.0,0.0,0.0,0.0,0.0,0.0,0.0,0.0,2.1807,0.0,0.0,2.2493,0.0,0.0,0.0,0.0,2.5502,2.7286,2.9196,3.1225,3.0693,3.1898,3.478,3.3792,3.3623,3.42,3.4486,3.4895,3.5349,3.5026,3.5789,3.7276,3.7452,3.7955,3.8707,3.8719,3.875,3.875,3.8762,3.8762,3.875,0.0,0.0,0.0,0.0,0.0,0.0,0.0,0.9711,1.0394,1.2336,1.0907,1.0436,1.2367,1.3733,1.4495,1.4499,1.4512,1.4504,1.4499,1.4512,1.4489,1.4489,1.4489,1.4507,1.4504,1.1955,0.9994,0.0,0.0,0.0,0.0,0.0,0.0,0.0,0.0,1.7883,1.8057,1.8208,1.8489,1.8861,1.9018,1.9491,2.0214,2.1387,2.2353,2.3193,2.4005,2.4524,2.4745,2.4281,2.3809,2.328,2.2588,2.3164,2.398,2.3283,2.3603,2.4247,2.4495,2.467,2.4861,2.5056,2.5212,2.5303,2.5303,2.5303,2.5303,2.5303,2.5072,2.485,2.4818,2.4591,2.4393,0.0,0.0,0.0,0.0,0.0,0.0,0.0,0.0,0.0,0.0,0.0,0.0,0.0,0.0,0.0,0.0,0.0,0.0,2.6265,0.0,2.8532,3.0913,2.9973,3.093,3.3802,3.2892,3.3255,3.4716,3.451,3.4684,3.5246,3.6121,3.6872,3.7533,3.801,3.8414,3.8707,3.8707,3.8707,3.8707,3.8707,3.8707,3.8707,1.9435,0.0,1.3721,0.0,1.1486,0.97,0.9698,1.0323,1.1681,1.4164,1.2519,1.1986,1.4251,1.4492,1.4504,1.4487,1.4302,1.4265,1.449,1.4507,1.4502,1.4496,1.4496,0.0,1.4505,1.4497,1.4494,1.4494,1.0759,0.0,0.0,0.0,0.0,0.0,1.8035,1.8146,1.833,1.8563,1.8806,1.9019,1.9221,1.9594,2.0188,2.157,2.2498,2.3235,2.4704,2.5214,2.5173,2.5005,2.4518,2.3871,2.3182,2.3655,2.4349,2.3584,2.3768,2.4266,2.4607,2.476,2.4874,2.513,2.5264,2.5303,2.5303,2.5303,2.5274,2.5224,2.4949,2.4716,2.4716,2.4426,2.419,2.419,0.0,0.0,0.0,0.0,0.0,0.0,2.3522,2.3305,2.3069,2.2989,0.0,0.0,0.0,0.0,0.0,0.0,0.0,0.0,0.0,0.0,3.0476,2.9715,3.0577,3.2989,3.2502,3.326,3.5107,3.5082,3.5231,3.5597,3.7187,3.7845,3.79,3.8469,3.8707,3.8707,3.8707,3.8707,3.8707,3.8707,3.8707,3.8707,1.3494,1.4038,1.4485,1.4491,1.1823,0.9697,0.9697,1.1783,1.3635,1.4392,1.4464,1.446,1.4503,1.4501,1.4496,1.4505,1.3831,1.3725,1.4454,1.449,1.4504,0.0,0.0,1.4495,1.4514,1.4514,1.4506,1.4512,0.0,0.0,1.9281,0.0,1.871,1.8585,1.8585,1.8585,1.8603,1.8747,1.8878,1.9019,1.9217,2.0022,2.1128,2.1482,2.265,2.4168,2.4782,2.4991,2.4986,2.4855,2.4651,2.4493,2.4493,2.4493,2.4461,2.4247,2.419,2.4247,2.4444,2.4654,2.4828,2.4974,2.5152,2.5303,2.5303,2.5303,2.5234,2.5034,2.4737,2.4512,2.4512,2.4339,2.419,2.419,0.0,0.0,0.0,0.0,0.0,0.0,2.3117,2.2721,2.2721,2.2463,0.0,0.0,0.0,0.0,0.0,0.0,0.0,2.6576,2.7365,0.0,3.0191,3.0191,3.1131,3.2989,3.3274,3.3979,3.5145,3.6476,3.6921,3.6756,3.8103,3.8689,3.8689,3.8707,3.8707,3.8707,3.8707,3.8707,3.8707,3.8707,3.8707,3.8707,1.4051,1.3933,1.375,1.3755,1.2905,1.2399,1.2889,1.3644,1.4235,1.4465,1.4489,1.4511,1.4497,1.4492,1.4508,0.0,1.3831,1.3507,0.0,1.6278,1.7775,1.7775,1.7775,1.777,1.7773,1.5613,1.5579,1.7777,0.0,0.0,0.0,1.895,1.8782,1.8729,1.8639,1.8715,1.8878,1.8914,1.9361,2.0036,2.0246,2.0961,2.2004,2.279,2.3416,2.3998,2.4736,2.4937,2.4842,2.4654,2.4543,2.4478,2.4358,2.4303,2.4284,2.4209,2.4303,2.4444,2.4654,2.4828,2.4981,2.5152,2.5253,2.5303,2.5303,2.5184,2.5053,2.491,2.4666,2.4495,2.4495,2.4339,2.419,2.419,2.419,0.0,0.0,0.0,0.0,0.0,2.2822,2.2634,2.2453,2.2527,0.0,0.0,0.0,0.0,0.0,0.0,0.0,0.0,2.8209,0.0,3.0999,3.1017,3.1765,3.3274,3.3373,3.3998,3.5126,3.5929,3.6137,3.5963,3.7302,3.7863,3.7918,3.8469,3.8707,3.8707,3.8707,3.8707,3.8719,3.8894,3.8971,3.8999,1.2533,1.22,1.2382,1.3591,1.3819,1.3972,1.4441,1.4492,1.4497,1.4502,1.4496,1.4488,1.4488,1.4501,0.0,1.4486,1.518,1.5614,1.5627,1.7928,1.9308,1.9304,1.9304,1.93,1.9291,1.733,0.0,1.9308,1.9689,1.9908,1.99,1.9921,2.0029,2.021,1.9921,1.9885,2.0044,2.0044,2.0421,2.1013,2.1429,2.1877,2.2444,2.3714,2.4041,2.3888,2.4574,2.4752,2.4654,2.4444,2.4393,2.4357,2.4247,2.419,2.419,2.419,2.4284,2.4444,2.4731,2.4869,2.4981,2.5243,2.5234,2.5163,2.5126,2.4956,2.4795,2.4697,2.4528,2.4393,2.4393,2.4284,2.419,2.419,2.419,2.4132,2.3917,0.0,0.0,0.0,0.0,0.0,0.0,2.2789,2.3157,0.0,0.0,0.0,0.0,0.0,0.0,2.7769,2.887,3.0081,3.1384,3.1696,3.2368,3.3412,3.3938,3.4518,3.5107,3.5664,3.5935,3.6019,3.7063,3.7661,3.7973,3.8487,3.8707,3.8707,3.8707,3.8707,3.8719,3.8884,3.9054,3.9222,0.9552,0.9529,1.0981,0.0,1.4499,0.0,1.4505,1.4508,1.4506,1.4506,1.4506,1.4494,1.4494,1.4502,1.4596,1.4814,0.0,0.0,0.0,1.9298,1.9295,1.9289,1.9305,1.9298,1.9298,1.9298,1.9304,1.93,2.0411,2.0984,2.1021,2.1585,2.2113,2.2515,2.2022,2.1803,2.1803,2.1803,2.1821,2.1912,2.2613,2.2722,2.2644,2.4293,2.4467,2.3904,2.4361,2.4495,2.4444,2.4247,2.419,2.419,2.419,2.419,2.419,2.419,2.4209,2.4303,2.467,2.479,2.4869,2.5201,2.513,2.4949,2.4799,2.4639,2.4495,2.4478,2.4339,2.419,2.419,2.419,2.419,2.419,2.419,2.419,2.417,0.0,0.0,0.0,0.0,0.0,2.3206,2.3265,2.3458,0.0,0.0,0.0,0.0,0.0,2.8081,2.797,2.9531,3.0742,3.1549,3.232,3.2956,3.3563,3.4882,3.5419,3.5261,3.5738,3.6227,3.6738,3.7284,3.7918,3.8615,3.8689,3.8707,3.8707,3.8707,3.8707,3.8707,3.8701,3.8946,3.9312,0.0,0.0,1.3591,1.4382,1.4494,1.4496,1.4496,1.4513,1.4501,1.4496,1.4502,1.4501,1.4503,1.45,1.55,1.795,1.8863,1.9306,1.9308,1.9308,1.9308,1.9289,1.9305,1.9305,1.9301,1.9298,1.9305,1.9301,2.0829,2.18,2.2186,2.2332,2.2259,2.1985,2.1858,2.1803,2.1803,2.1803,2.2042,2.2447,2.2776,2.3425,2.4273,2.4959,2.4873,2.4436,2.4545,2.4447,2.4247,2.4209,2.419,2.419,2.419,2.419,2.419,2.419,2.4303,2.4444,2.4561,2.4685,2.4818,2.4902,2.4883,2.4799,2.4607,2.4526,2.4444,2.4303,2.4228,2.419,2.419,2.419,2.419,2.419,2.419,2.4113,2.3837,2.3753,0.0,0.0,2.3792,2.3868,2.3242,2.3991,2.4527,0.0,0.0,0.0,2.6337,2.9586,3.0907,2.9677,3.1201,3.243,3.322,3.3421,3.4016,3.5007,3.5545,3.6081,3.6623,3.6541,3.6597,3.6738,3.7284,3.7606,3.7826,3.845,3.8707,3.8707,3.8707,3.8707,3.8701,3.8701,3.8745,3.8914,1.224,1.3307,1.4504,1.4504,1.4497,1.4488,1.4488,1.4489,1.4508,1.4496,1.5777,1.6691,1.668,1.6688,1.7406,1.915,1.9302,1.9295,1.9305,1.9305,1.9305,1.9305,1.9298,1.9301,1.9301,1.9289,2.0036,2.1548,2.197,2.2556,2.3327,2.3327,2.318,2.2887,2.2887,2.2887,2.2887,2.2887,2.307,2.3364,2.3575,2.4011,2.4584,2.492,2.4869,2.4569,2.4466,2.4321,2.419,2.419,2.419,2.419,2.419,2.419,2.419,2.419,2.4266,2.4375,2.4478,2.4575,2.4654,2.4654,2.4731,2.4731,2.4445,2.4357,2.4321,2.4228,2.419,2.419,2.419,2.419,2.419,2.419,2.419,2.4151,2.3937,2.3917,2.4003,2.418,2.459,2.4825,2.4753,2.5302,2.5681,2.5681,2.7332,0.0,2.7732,3.0815,3.1861,3.0246,3.2118,3.3366,3.3807,3.391,3.429,3.4907,3.5206,3.5496,3.5773,3.6037,3.6296,3.6564,3.7198,3.7698,3.8065,3.8524,3.8707,3.8707,3.8707,3.8707,3.8701,3.8707,3.8885,3.9164,1.4492,1.4493,1.4508,1.4511,1.4488,1.4506,1.4494,1.4496,1.4659,1.5152,1.7586,1.93,1.9305,1.9304,1.9298,1.9298,1.9298,1.9305,1.9305,1.9308,1.9292,1.9289,1.9308,1.953,2.0032,2.0042,2.1406,2.4211,2.329,2.3308,2.419,2.419,2.419,2.419,2.419,2.419,2.419,2.419,2.419,2.4209,2.4448,2.4407,2.4241,2.4572,2.4628,2.4501,2.4266,2.419,2.419,2.419,2.419,2.419,2.419,2.419,2.419,2.419,2.419,2.4247,2.441,2.4444,2.4444,2.4444,2.4575,2.4623,2.4266,2.419,2.419,2.419,2.419,2.419,2.419,2.419,2.419,2.419,2.419,2.419,2.419,0.0,2.463,2.5329,2.5623,2.6025,2.6722,2.6888,2.7016,2.7145,2.8521,2.9365,2.9365,3.1549,3.21,3.0613,3.2669,3.3807,3.3807,3.4018,3.4203,3.4333,3.4607,3.4738,3.4723,3.5467,3.6128,3.6688,3.7367,3.8065,3.8707,3.8707,3.8707,3.8707,3.8707,3.8707,3.8707,3.8787,3.9155,3.9593,1.4499,1.4511,1.4492,1.4499,1.4488,1.4501,1.4502,1.4496,1.5488,1.8204,1.8998,1.9298,1.9313,1.9301,1.9301,1.9301,1.9305,1.9305,1.9305,1.9303,1.9287,1.9289,1.9297,2.0601,2.3382,2.3452,2.3695,2.4211,2.4026,2.4043,2.419,2.419,2.419,2.419,2.419,2.419,2.419,2.419,2.419,2.419,2.4265,2.4228,2.421,2.4265,2.4265,2.4265,2.4209,2.419,2.419,2.419,2.419,2.419,2.419,2.419,2.419,2.419,2.419,2.4209,2.4247,2.4247,2.4247,2.4247,2.4266,2.4266,2.4209,2.419,2.419,2.419,2.419,2.419,2.419,2.419,2.419,2.419,2.419,2.419,2.419,0.0,2.5274,2.5403,2.6594,2.7475,2.7603,2.8227,2.8925,2.9586,3.0503,3.1017,3.1017,3.2669,3.3201,3.2265,3.3256,3.3807,3.3807,3.3842,3.4199,3.4871,3.4926,3.5689,3.6977,3.7124,3.761,3.834,3.8469,3.8579,3.8707,3.8707,3.8707,3.8707,3.8707,3.8707,3.8756,3.9268,3.95,3.9482,1.4506,1.4496,1.4501,1.4508,1.4496,1.45,1.4498,1.5968,1.7624,1.9113,1.9287,1.9298,1.9305,1.9305,1.9305,1.9305,1.9305,1.9292,1.9303,1.931,2.0101,2.1872,2.0224,2.0843,2.4136,2.4211,2.4192,2.4192,2.419,2.419,2.419,2.419,2.419,2.419,2.419,2.419,2.419,2.419,2.419,2.419,2.419,2.419,2.419,2.419,2.419,2.419,2.419,2.419,2.419,2.419,2.419,2.419,2.419,2.419,2.419,2.419,2.419,2.419,2.419,2.4266,2.4339,2.4228,2.4598,2.4857,2.432,2.4538,2.4832,2.4832,2.4502,2.4318,2.4759,2.4483,2.4337,2.4777,2.4483,0.0,2.5364,2.5805,2.6374,2.7236,2.8374,2.9255,2.9696,3.0063,3.0448,3.0815,3.1586,3.2045,3.2045,3.3164,3.3623,3.3256,3.4045,3.4247,3.3807,3.4229,3.4431,3.4376,3.477,3.5422,3.6193,3.7074,3.7679,3.8065,3.8505,3.8707,3.8707,3.8707,3.8707,3.8707,3.8707,3.884,3.9063,3.9444,3.9419,3.9102,1.546,1.5005,1.4742,1.5488,1.5613,1.5619,1.5624,1.7697,1.9298,1.9302,1.9298,1.9305,1.9305,1.9305,1.9308,1.9295,1.9295,1.9303,1.9297,2.0003,2.1561,2.4085,2.1788,2.1625,2.4153,2.419,2.419,2.419,2.419,2.419,2.419,2.419,2.419,2.419,2.419,2.419,2.419,2.419,2.419,2.419,2.419,2.419,2.419,2.419,2.419,2.419,2.419,2.419,2.419,2.419,2.419,2.419,2.419,2.419,2.419,2.419,2.4318,2.4483,2.4483,2.4469,2.443,2.4468,2.4912,2.5208,2.4596,2.4962,2.5458,2.5642,2.5181,2.4942,2.5566,2.5162,2.4961,2.5566,0.0,2.5474,0.0,2.72,2.7897,2.9122,2.9989,3.0797,3.1604,3.1678,3.1751,3.1935,3.2706,3.3091,3.2908,3.3825,3.4376,3.4376,3.4798,3.4697,3.4082,3.4908,3.5,3.4394,3.5018,3.5394,3.5624,3.6909,3.7588,3.7808,3.8432,3.8707,3.8707,3.8707,3.8707,3.8707,3.8707,3.8873,3.92,3.9492,3.9203,3.8633,1.8355,1.6538,1.5442,1.8429,1.8952,1.8943,1.8947,1.915,1.9302,1.9301,1.9305,1.9305,1.9305,1.9305,1.9295,1.9294,1.9294,1.9299,1.9305,2.2154,2.3951,2.4204,2.397,2.3952,2.419,2.419,2.419,2.419,2.419,2.419,2.419,2.419,2.419,2.419,2.419,2.419,2.419,2.419,2.419,2.419,2.419,2.419,2.419,2.419,2.419,2.419,2.419,2.419,2.419,2.419,2.419,2.419,2.419,2.419,2.419,2.419,2.4722,2.5311,2.5311,2.4778,2.4393,2.5127,2.4815,2.4484,2.5164,2.5366,2.5623,2.6355,2.6465,2.6447,2.6502,2.6465,2.6447,2.6502,0.0,0.0,2.7677,2.8998,2.9989,3.0099,3.0815,3.1623,3.243,3.2522,3.2834,3.3568,3.4376,3.4495,3.3752,3.5238,3.6119,3.6119,3.5404,3.4954,3.4899,3.5771,3.6174,3.6119,3.6174,3.6578,3.7312,3.7452,3.79,3.8615,3.867,3.8707,3.8707,3.8707,3.8707,3.8707,3.8707,3.8726,3.8809,3.9387,3.902,3.8156,1.9063,1.8319,1.787,1.9087,1.9294,1.9306,1.9295,1.9313,1.9298,1.9305,1.9305,1.9305,1.9305,1.9298,1.9308,1.9295,2.116,2.235,2.2337,2.3511,2.4211,2.4211,2.421,2.4209,2.419,2.419,2.419,2.419,2.419,2.419,2.419,2.419,2.419,2.419,2.419,2.419,2.419,2.419,2.419,2.419,2.419,2.419,2.419,2.419,2.419,2.419,2.419,2.419,2.419,2.419,2.419,2.4281,2.4777,2.4593,2.43,2.4795,2.5511,2.6245,2.6741,2.63,2.5768,2.6062,2.6282,2.6374,2.619,2.6521,2.6979,2.7273,2.6961,2.6906,2.7893,2.7677,2.7677,2.8668,0.0,2.8888,2.9879,3.0558,3.1127,3.1641,3.2394,3.3201,3.4,3.4073,3.4202,3.4523,3.533,3.544,3.4596,3.5661,3.6303,3.6303,3.645,3.6303,3.5807,3.6615,3.678,3.6303,3.6798,3.7184,3.7514,3.801,3.8414,3.8707,3.8707,3.8707,3.8707,3.8707,3.8707,3.8719,3.8689,3.8699,3.8807,3.98,3.9261,3.8041,1.9286,1.9306,1.9301,1.9306,1.9298,1.9305,1.9305,1.9305,1.9305,1.9305,1.9305,1.9305,1.9305,1.9287,1.9727,2.0759,2.2899,2.4191,2.4192,2.4211,2.4192,2.419,2.419,2.419,2.419,2.419,2.419,2.419,2.419,2.419,2.419,2.419,2.419,2.419,2.419,2.419,2.419,2.419,2.419,2.419,2.419,2.419,2.419,2.419,2.419,2.419,2.419,2.419,2.419,2.419,2.4373,2.4667,2.5237,2.5181,2.5052,2.5603,2.6355,2.7108,2.764,2.7585,2.7291,2.7034,2.72,2.7346,2.7053,2.7402,2.7934,2.8448,2.8117,2.8154,2.9512,2.9292,2.9292,3.0393,3.0338,3.0522,3.1623,3.199,3.2449,3.3275,3.3844,3.4504,3.5349,3.5422,3.5422,3.5422,3.6193,3.6523,3.6193,3.6486,3.678,3.7055,3.7588,3.7606,3.7055,3.7588,3.7588,3.7055,3.7606,3.7863,3.7881,3.845,3.8707,3.8707,3.8707,3.8707,3.8707,3.8707,3.8689,3.8707,3.8693,3.8702,3.8848,4.0041,3.9118,3.7367,1.9305,1.9289,1.9289,1.9289,1.9289,1.9289,1.9289,1.9289,1.9289,1.9289,1.9289,1.9289,1.9289,1.9305,2.0615,2.3909,2.4191,2.4211,2.419,2.419,2.419,2.419,2.419,2.419,2.419,2.419,2.419,2.419,2.419,2.419,2.419,2.419,2.419,2.419,2.419,2.419,2.419,2.419,2.419,2.419,2.419,2.419,2.419,2.419,2.419,2.419,2.419,2.419,2.419,2.4208,2.474,2.5403,2.5421,2.597,2.6631,2.6612,2.7181,2.7805,2.7805,2.8393,2.8815,2.8007,2.7218,2.6833,2.764,2.7824,2.8264,2.9879,3.021,3.0467,3.1256,3.1403,3.1421,3.1421,3.21,3.2632,3.2632,3.3311,3.4119,3.4899,3.5009,3.5367,3.6211,3.6303,3.6303,3.6303,3.7037,3.7845,3.867,3.7936,3.7863,3.867,3.8707,3.8707,3.8707,3.8707,3.8707,3.8707,3.8707,3.8707,3.8707,3.8707,3.8707,3.8707,3.8707,3.8707,3.8707,3.8707,3.8695,3.8704,3.8683,3.8709,3.8858,4.0061,3.8393,3.6008,1.9305,1.9298,1.9289,1.9289,1.9289,1.9289,1.9289,1.9298,1.9311,1.9305,1.9298,1.9298,1.9299,1.9302,2.0623,2.3915,2.4192,2.4209,2.419,2.419,2.419,2.419,2.419,2.419,2.419,2.419,2.419,2.419,2.419,2.419,2.419,2.419,2.419,2.419,2.419,2.419,2.419,2.419,2.419,2.419,2.419,2.419,2.419,2.419,2.419,2.419,2.419,2.419,2.4281,2.4832,2.5201,2.5513,2.6062,2.7181,2.8168,2.7603,2.8007,2.865,2.865,2.8833,2.8938,2.8705,2.8466,2.8503,2.931,2.9475,2.9787,3.0815,3.1494,3.2137,3.2944,3.355,3.4137,3.4743,3.4541,3.4275,3.4275,3.4477,3.4715,3.4954,3.555,3.6248,3.7055,3.7129,3.7129,3.7129,3.7379,3.7845,3.867,3.8469,3.845,3.8689,3.8707,3.8707,3.8707,3.8707,3.8707,3.8707,3.8707,3.8707,3.8707,3.8707,3.8707,3.8707,3.8707,3.8707,3.8707,3.8695,3.87,3.8696,3.8702,3.9218,4.0006,4.0362,3.9858,3.883,1.9308,1.9314,1.9714,2.1015,2.1233,2.0798,1.9499,1.9295,1.931,1.93,2.0429,2.0737,1.9449,2.0461,2.2044,2.4026,2.421,2.419,2.419,2.419,2.419,2.419,2.419,2.419,2.419,2.419,2.419,2.419,2.419,2.419,2.419,2.419,2.419,2.419,2.419,2.419,2.419,2.419,2.419,2.419,2.419,2.419,2.419,2.419,2.4392,2.4667,2.4667,2.4869,2.5217,2.5713,2.608,2.6484,2.731,2.8205,2.8883,2.8429,2.8631,2.9067,2.9402,2.9475,2.9549,2.9879,2.9714,2.9604,3.0099,3.0448,3.098,3.2118,3.2742,3.344,3.4578,3.5202,3.5697,3.6211,3.5862,3.5514,3.5514,3.5514,3.5642,3.5954,3.645,3.7074,3.79,3.7955,3.7955,3.7955,3.7955,3.8193,3.867,3.8707,3.8707,3.8707,3.8707,3.8707,3.8707,3.8707,3.8707,3.8707,3.8707,3.8707,3.8707,3.8707,3.8707,3.8707,3.8707,3.8707,3.8707,3.8695,3.8538,3.8192,3.7173,3.8288,4.0499,4.0502,3.9653,3.8219,1.9755,1.9738,2.0677,2.369,2.4205,2.3194,2.0189,1.9738,1.9738,1.9738,2.2351,2.3047,2.0063,2.241,2.4211,2.4192,2.4191,2.419,2.419,2.419,2.419,2.419,2.419,2.419,2.419,2.419,2.419,2.419,2.419,2.419,2.419,2.419,2.419,2.419,2.419,2.419,2.419,2.419,2.419,2.419,2.419,2.4263,2.4337,2.4318,2.4795,2.5513,2.5513,2.597,2.6612,2.6686,2.7236,2.8044,2.8778,2.8994,2.8994,2.8994,2.9049,2.925,3.0008,3.0246,3.0503,3.1311,3.0999,3.0522,3.0522,3.1091,3.2063,3.3697,3.4082,3.4596,3.6119,3.6468,3.6505,3.6505,3.645,3.6413,3.6413,3.6413,3.667,3.7404,3.7551,3.7881,3.8634,3.8707,3.8707,3.8707,3.8707,3.8707,3.8707,3.8707,3.8707,3.8707,3.8707,3.8707,3.8707,3.8707,3.8707,3.8707,3.8707,3.8707,3.8707,3.8707,3.8707,3.8707,3.8707,3.8707,3.8707,3.8689,3.8356,3.7616,3.5296,3.6911,4.0459,4.0153,3.83,3.5945,2.3138,2.3124,2.3363,2.4081,2.421,2.3952,2.3253,2.3141,2.3139,2.3143,2.3766,2.3931,2.3217,2.3768,2.4192,2.4209,2.4209,2.419,2.419,2.419,2.419,2.419,2.419,2.419,2.419,2.419,2.419,2.419,2.419,2.419,2.419,2.419,2.419,2.419,2.419,2.419,2.419,2.419,2.419,2.419,2.419,2.4705,2.5423,2.5219,2.564,2.6337,2.6337,2.6447,2.6704,2.7328,2.8081,2.8778,2.8938,2.8994,2.8994,2.8994,2.9457,2.9989,3.0155,3.065,3.1329,3.2137,3.2687,3.3018,3.3018,3.3146,3.3752,3.5422,3.6248,3.6798,3.7165,3.7753,3.8175,3.8175,3.7643,3.7221,3.7221,3.7221,3.7323,3.7489,3.8046,3.8505,3.8689,3.8707,3.8707,3.8707,3.8707,3.8707,3.8707,3.8707,3.8707,3.8707,3.8707,3.8707,3.8707,3.8707,3.8707,3.8707,3.8707,3.8707,3.8707,3.8707,3.8707,3.8707,3.8707,3.8707,3.8707,3.8707,3.8803,3.895,3.901,3.9638,4.0172,3.7548,3.7777,3.9418,2.4192,2.4211,2.421,2.421,2.421,2.421,2.421,2.4192,2.4192,2.4192,2.4192,2.4192,2.4209,2.4191,2.421,2.419,2.419,2.419,2.419,2.4206,2.4206,2.4208,2.4206,2.4206,2.419,2.4206,2.4944,2.6484,2.5719,2.5495,2.5717,2.5197,2.4976,2.4939,2.4424,2.4627,2.5346,2.5351,2.5203,2.4963,2.4963,2.5221,2.5588,2.5458,2.6135,2.7163,2.7163,2.742,2.7879,2.8668,2.898,2.9067,2.9457,2.9586,2.9586,2.9586,3.0136,3.0852,3.1237,3.1659,3.2265,3.3458,3.4064,3.4376,3.4376,3.4688,3.5349,3.6597,3.7202,3.7606,3.7991,3.8414,3.8707,3.8707,3.834,3.8065,3.8065,3.8065,3.8212,3.8579,3.867,3.8707,3.8707,3.9056,3.9111,3.8726,3.8707,3.8707,3.8707,3.8707,3.8707,3.8707,3.8707,3.8707,3.8707,3.8707,3.8707,3.8707,3.8707,3.8707,3.8707,3.8707,3.8707,3.8707,3.8707,3.8707,3.8689,3.8689,3.8811,3.9051,3.9472,3.9986,4.0082,3.6746,3.7632,4.0496,2.419,2.419,2.419,2.419,2.419,2.419,2.419,2.419,2.419,2.419,2.419,2.419,2.419,2.419,2.419,2.419,2.4687,2.502,2.502,2.4516,2.444,2.5,2.4496,2.42,2.4186,2.4198,2.577,2.9001,2.7664,2.704,2.7117,2.6222,2.5847,2.5905,2.51,2.5395,2.6463,2.6567,2.6348,2.5937,2.5937,2.5901,2.5825,2.5825,2.6704,2.8007,2.8007,2.8521,2.9329,2.9989,2.9861,2.9549,3.0191,3.0411,3.0411,3.0411,3.0962,3.177,3.2596,3.2926,3.3395,3.5009,3.5412,3.5477,3.5595,3.6101,3.6725,3.7533,3.7698,3.79,3.8579,3.8707,3.8707,3.8707,3.8817,3.8909,3.8909,3.8909,3.9203,4.001,3.9386,3.8964,3.9111,3.946,3.9478,3.8946,3.8781,3.8707,3.8707,3.8707,3.8707,3.8707,3.8836,3.8836,3.8707,3.8836,3.8836,3.8707,3.8707,3.8707,3.8707,3.8707,3.8707,3.8707,3.8695,3.8688,3.87,3.8701,3.8777,3.8833,3.8744,3.9446,4.0154,3.739,3.8116,4.05,2.419,2.419,2.419,2.419,2.419,2.419,2.419,2.419,2.419,2.419,2.419,2.419,2.419,2.419,2.419,2.419,2.6745,2.8347,2.8347,2.5748,2.5424,2.8223,2.5685,2.4203,2.4203,2.4208,2.5792,2.9001,2.8767,2.7769,2.5996,2.5886,2.6054,2.6499,2.682,2.6557,2.5941,2.6389,2.6578,2.6484,2.6484,2.6888,2.7475,2.7475,2.8044,2.8851,2.8851,2.9365,3.0063,3.0173,3.0595,3.1091,3.1201,3.1237,3.1237,3.1237,3.1806,3.2614,3.3421,3.4156,3.5092,3.6743,3.7147,3.7331,3.8046,3.7753,3.7551,3.8377,3.8542,3.8579,3.8689,3.8707,3.8707,3.8707,3.9276,3.9735,3.9735,3.9735,4.0047,4.0855,4.023,4.001,4.0726,3.9625,3.9111,3.968,3.9093,3.8707,3.8707,3.8707,3.8707,3.8707,3.9368,3.9405,3.8707,3.9386,3.9386,3.8707,3.8707,3.8707,3.8707,3.8707,3.8707,3.8689,3.8682,3.8692,3.8682,3.8702,3.9006,3.9431,3.8899,3.9444,4.0448,3.9986,4.0121,4.0492,2.419,2.419,2.419,2.419,2.419,2.419,2.419,2.419,2.419,2.419,2.419,2.419,2.419,2.4206,2.4185,2.4185,2.5511,2.7087,2.8883,2.5975,2.4838,2.6258,2.668,2.6885,2.6872,2.6878,2.7589,2.9005,2.899,2.8533,2.7596,2.7596,2.7706,2.7952,2.8206,2.8015,2.7559,2.7215,2.7405,2.7889,2.7442,2.7475,2.7787,2.7787,2.8301,2.9049,2.9512,3.0191,3.0944,3.1403,3.1476,3.1476,3.1935,3.2063,3.2063,3.2063,3.2963,3.4,3.4376,3.5092,3.6009,3.7184,3.7507,3.7698,3.8524,3.8432,3.8395,3.9203,3.9368,3.9368,3.9368,3.9753,3.99,3.9441,4.0047,4.0579,4.0579,4.0579,4.0543,4.0451,4.091,4.0855,3.9863,3.9515,3.9331,3.9239,3.8909,3.8707,3.8707,3.8707,3.8707,3.8707,3.9038,3.9056,3.8707,3.9056,3.9276,3.935,3.8909,3.8707,3.8707,3.8707,3.8707,3.8719,3.8934,3.9293,3.9709,3.9709,3.9869,4.0082,3.9806,3.8888,3.793,3.9798,3.9302,3.7719]}]]